[[{"header":{"parameterUnit":"m.s-1","parameterCategory":1,"la1":31.0,"la2":29.5877,"lo1":-88.7671,"lo2":-86.6584,"dy":0.0162,"dx":0.0185,"nx":115,"ny":88,"refTime":"2026-04-10T00:00:00:Z","depth":0,"parameterNumber":2,"parameterNumberName":"U-component_of_WINDS"},"data":[0.0,0.0,0.0,0.0,0.0,0.0,0.0,0.0,0.0,0.0,0.0,0.0,0.0,0.0,0.0,0.0,0.0,0.0,0.0,0.0,0.0,0.0,0.0,0.0,0.0,0.0,0.0,0.0,0.0,0.0,0.0,0.0,0.0,0.0,0.0,0.0,0.0,0.0,0.0,0.0,0.0,0.0,0.0,0.0,0.0,0.0,0.0,0.0,0.0,0.0,0.0,0.0,0.0,0.0,0.0,0.0,0.0,0.0,0.0,0.0,0.0,0.0,0.0,0.0,0.0,0.0,0.0,0.0,0.0,0.0,0.0,0.0,0.0,0.0,0.0,0.0,0.0,0.0,0.0,0.0,0.0,0.0,0.0,0.0,0.0,0.0,0.0,0.0,0.0,0.0,0.0,0.0,0.0,0.0,0.0,0.0,0.0,0.0,0.0,0.0,0.0,0.0,0.0,0.0,0.0,0.0,0.0,0.0,0.0,0.0,0.0,0.0,0.0,0.0,0.0,0.0,0.0,0.0,0.0,0.0,0.0,0.0,0.0,0.0,0.0,0.0,0.0,0.0,0.0,0.0,0.0,0.0,0.0,0.0,0.0,0.0,0.0,0.0,0.0,0.0,0.0,0.0,0.0,0.0,0.0,0.0,0.0,0.0,0.0,0.0,0.0,0.0,0.0,0.0,0.0,0.0,0.0,0.0,0.0,0.0,0.0,0.0,0.0,0.0,0.0,0.0,0.0,0.0,0.0,0.0,0.0,0.0,0.0,0.0,0.0,0.0,0.0,0.0,0.0,0.0,0.0,0.0,0.0,0.0,0.0,0.0,0.0,0.0,0.0,0.0,0.0,0.0,0.0,0.0,0.0,0.0,0.0,0.0,0.0,0.0,0.0,0.0,0.0,0.0,0.0,0.0,0.0,0.0,0.0,0.0,0.0,0.0,0.0,0.0,0.0,0.0,0.0,0.0,0.0,0.0,0.0,0.0,0.0,0.0,0.0,0.0,0.0,0.0,0.0,0.0,0.0,0.0,0.0,0.0,0.0,0.0,0.0,0.0,0.0,0.0,0.0,0.0,0.0,0.0,0.0,0.0,0.0,0.0,0.0,0.0,0.0,0.0,0.0,0.0,0.0,0.0,0.0,0.0,0.0,0.0,0.0,0.0,0.0,0.0,0.0,0.0,0.0,0.0,0.0,0.0,0.0,0.0,0.0,0.0,0.0,0.0,0.0,0.0,0.0,0.0,0.0,0.0,0.0,0.0,0.0,0.0,0.0,0.0,0.0,0.0,0.0,0.0,0.0,0.0,0.0,0.0,0.0,0.0,0.0,0.0,0.0,0.0,0.0,0.0,0.0,0.0,0.0,0.0,0.0,0.0,0.0,0.0,0.0,0.0,0.0,0.0,0.0,0.0,0.0,0.0,0.0,0.0,0.0,0.0,0.0,0.0,0.0,0.0,0.0,0.0,0.0,0.0,0.0,0.0,0.0,0.0,0.0,0.0,0.0,0.0,0.0,0.0,0.0,0.0,0.0,0.0,0.0,0.0,0.0,0.0,0.0,0.0,0.0,0.0,0.0,0.0,0.0,0.0,0.0,0.0,0.0,0.0,0.0,0.0,0.0,0.0,0.0,0.0,0.0,0.0,0.0,0.0,0.0,0.0,0.0,0.0,0.0,0.0,0.0,0.0,0.0,0.0,0.0,0.0,0.0,0.0,0.0,0.0,0.0,0.0,0.0,0.0,0.0,0.0,0.0,0.0,0.0,0.0,0.0,0.0,0.0,0.0,0.0,0.0,0.0,0.0,0.0,0.0,0.0,0.0,0.0,0.0,0.0,0.0,0.0,0.0,0.0,0.0,0.0,0.0,0.0,0.0,0.0,0.0,0.0,0.0,0.0,0.0,0.0,0.0,0.0,0.0,0.0,0.0,0.0,0.0,0.0,0.0,0.0,0.0,0.0,0.0,0.0,0.0,0.0,0.0,0.0,0.0,0.0,0.0,0.0,0.0,0.0,0.0,0.0,0.0,0.0,0.0,0.0,0.0,0.0,0.0,0.0,0.0,0.0,0.0,0.0,0.0,0.0,0.0,0.0,0.0,0.0,0.0,0.0,0.0,0.0,0.0,0.0,0.0,0.0,0.0,0.0,0.0,0.0,0.0,0.0,0.0,0.0,0.0,0.0,0.0,0.0,0.0,0.0,0.0,0.0,0.0,0.0,0.0,0.0,0.0,0.0,0.0,0.0,0.0,0.0,0.0,0.0,0.0,0.0,0.0,0.0,0.0,0.0,0.0,0.0,0.0,0.0,0.0,0.0,0.0,0.0,0.0,0.0,0.0,0.0,0.0,0.0,0.0,0.0,0.0,0.0,0.0,0.0,0.0,0.0,0.0,0.0,0.0,0.0,0.0,0.0,0.0,0.0,0.0,0.0,0.0,0.0,0.0,0.0,0.0,0.0,0.0,0.0,0.0,0.0,0.0,0.0,0.0,0.0,0.0,0.0,0.0,0.0,0.0,0.0,0.0,0.0,0.0,0.0,0.0,0.0,0.0,0.0,0.0,0.0,0.0,0.0,0.0,0.0,0.0,0.0,0.0,0.0,0.0,0.0,0.0,0.0,0.0,0.0,0.0,0.0,0.0,0.0,0.0,0.0,0.0,0.0,0.0,0.0,0.0,0.0,0.0,0.0,0.0,0.0,0.0,0.0,0.0,0.0,0.0,0.0,0.0,0.0,0.0,0.0,0.0,0.0,0.0,0.0,0.0,0.0,0.0,0.0,0.0,0.0,0.0,0.0,0.0,0.0,0.0,0.0,0.0,0.0,0.0,0.0,0.0,0.0,0.0,0.0,0.0,0.0,0.0,0.0,0.0,0.0,0.0,0.0,0.0,0.0,0.0,0.0,0.0,0.0,0.0,0.0,0.0,0.0,0.0,0.0,0.0,0.0,0.0,0.0,0.0,0.0,0.0,0.0,0.0,0.0,0.0,0.0,0.0,0.0,0.0,0.0,0.0,0.0,0.0,0.0,0.0,0.0,0.0,0.0,0.0,0.0,0.0,0.0,0.0,0.0,0.0,0.0,0.0,0.0,0.0,0.0,0.0,0.0,0.0,0.0,0.0,0.0,0.0,0.0,0.0,0.0,0.0,0.0,0.0,0.0,0.0,0.0,0.0,0.0,0.0,0.0,0.0,0.0,0.0,0.0,0.0,0.0,0.0,0.0,0.0,0.0,0.0,0.0,0.0,0.0,0.0,0.0,0.0,0.0,0.0,0.0,0.0,0.0,0.0,0.0,0.0,0.0,0.0,0.0,0.0,0.0,0.0,0.0,0.0,0.0,0.0,0.0,0.0,0.0,0.0,0.0,0.0,0.0,0.0,0.0,0.0,0.0,0.0,0.0,0.0,0.0,0.0,0.0,0.0,0.0,0.0,0.0,0.0,0.0,0.0,0.0,0.0,0.0,0.0,0.0,0.0,0.0,0.0,0.0,0.0,0.0,0.0,0.0,0.0,0.0,0.0,0.0,0.0,0.0,0.0,0.0,0.0,0.0,0.0,0.0,0.0,0.0,0.0,0.0,0.0,0.0,0.0,0.0,0.0,0.0,0.0,0.0,0.0,0.0,0.0,0.0,0.0,0.0,0.0,0.0,0.0,0.0,0.0,0.0,0.0,0.0,0.0,0.0,0.0,0.0,0.0,0.0,0.0,0.0,0.0,0.0,0.0,0.0,0.0,0.0,0.0,0.0,0.0,0.0,0.0,0.0,0.0,0.0,0.0,0.0,0.0,0.0,0.0,0.0,0.0,0.0,0.0,0.0,0.0,0.0,0.0,0.0,0.0,0.0,0.0,0.0,0.0,0.0,0.0,0.0,0.0,0.0,0.0,0.0,0.0,0.0,0.0,0.0,0.0,0.0,0.0,0.0,0.0,0.0,0.0,0.0,0.0,0.0,0.0,0.0,0.0,0.0,0.0,0.0,0.0,0.0,0.0,0.0,0.0,0.0,0.0,0.0,0.0,0.0,0.0,0.0,0.0,0.0,0.0,0.0,0.0,0.0,0.0,0.0,0.0,0.0,0.0,0.0,0.0,0.0,0.0,0.0,0.0,0.0,0.0,0.0,0.0,0.0,0.0,0.0,0.0,0.0,0.0,0.0,0.0,0.0,0.0,0.0,0.0,0.0,0.0,0.0,0.0,0.0,0.0,0.0,0.0,0.0,0.0,0.0,0.0,0.0,0.0,0.0,0.0,0.0,0.0,0.0,0.0,0.0,0.0,0.0,0.0,0.0,0.0,0.9294,0.0,0.0,0.0,0.0,0.0,0.0,0.0,0.0,0.0,0.0,0.0,0.0,0.0,0.0,0.0,0.0,0.0,0.0,0.0,0.0,0.0,0.0,0.0,0.0,0.0,0.0,0.0,0.0,0.0,0.0,0.0,0.0,0.0,0.0,0.0,0.0,0.0,0.0,0.0,0.0,0.0,0.0,0.0,0.0,0.0,0.0,0.0,0.0,0.0,0.0,0.0,0.0,0.0,0.0,0.0,0.0,0.0,0.0,0.0,0.0,0.0,0.0,0.0,0.0,0.0,0.0,0.0,0.0,0.0,0.0,0.0,0.0,0.0,0.0,0.0,0.0,0.0,0.0,0.0,0.0,0.0,0.0,0.0,0.0,0.0,0.0,0.0,0.0,0.0,0.0,0.0,0.0,0.0,0.0,0.0,0.0,0.0,0.0,0.0,0.0,0.0,0.0,0.0,0.0,0.0,0.0,0.0,0.0,0.0,0.0,0.9698,0.9698,0.9655,0.9513,0.9297,0.0,0.0,0.0,0.0,0.0,0.0,0.0,0.0,0.0,0.0,0.0,0.0,0.0,0.0,0.0,0.0,0.0,0.0,0.0,0.0,0.0,0.0,0.0,0.0,0.0,0.0,0.0,0.0,0.0,0.0,0.0,0.0,0.0,0.0,0.0,0.0,0.0,0.0,0.0,0.0,0.0,0.0,0.0,0.0,0.0,0.0,0.0,0.0,0.0,0.0,0.0,0.0,0.0,0.0,0.0,0.0,0.0,0.0,0.0,0.0,0.0,0.0,0.0,0.0,0.0,0.0,0.0,0.0,0.0,0.0,0.0,0.0,0.0,0.0,0.0,0.0,0.0,0.0,0.0,0.0,0.0,0.0,0.0,0.0,0.0,0.0,0.0,0.0,0.0,0.0,0.0,0.0,0.0,0.0,0.0,0.0,0.0,0.0,0.0,0.0,0.0,0.0,0.0,0.0,0.0,0.0,0.0,0.0,0.0,0.0,0.0,0.0,0.9928,0.9817,0.9542,0.0,0.0,0.0,0.0,0.0,0.0,0.0,0.0,0.0,0.0,0.0,0.0,0.0,0.0,0.0,0.0,0.0,0.0,0.0,0.0,0.0,0.0,0.0,0.0,0.0,0.0,0.0,0.0,0.0,0.0,0.0,0.0,0.0,0.0,0.0,0.0,0.0,0.0,0.0,0.0,0.0,0.0,0.0,0.0,0.0,0.0,0.0,0.0,0.0,0.0,0.0,0.0,0.0,0.0,0.0,0.0,0.0,0.0,0.0,0.0,0.0,0.0,0.0,0.0,0.0,0.0,0.0,0.0,0.0,0.0,0.0,0.0,0.0,0.0,0.0,0.0,0.0,0.0,0.0,0.0,0.0,0.0,0.0,0.0,0.0,0.0,0.0,0.0,0.0,0.0,0.0,0.0,0.0,0.0,0.0,0.0,0.0,0.0,0.0,0.0,0.0,0.0,0.0,0.0,0.0,0.0,0.0,0.0,0.0,0.0,1.0062,1.0787,1.0656,0.0,1.017,0.0,0.0,0.0,0.0,0.0,0.0,0.0,0.0,0.0,0.0,0.0,0.0,0.0,0.0,0.0,0.0,0.0,0.0,0.0,0.0,0.0,0.0,0.0,0.0,0.0,0.0,0.0,0.0,0.0,0.0,0.0,0.0,0.0,0.0,0.0,0.0,0.0,0.0,0.0,0.0,0.0,0.0,0.0,0.0,0.0,0.0,0.0,0.0,0.0,0.0,0.0,0.0,0.0,0.0,0.0,0.0,0.0,0.0,0.0,0.0,0.0,0.0,0.0,0.0,0.0,0.0,0.0,0.0,0.0,0.0,0.0,0.0,0.0,0.0,0.0,0.0,0.0,0.0,0.0,0.0,0.0,0.0,0.0,0.0,0.0,0.0,0.0,0.0,0.0,0.0,0.0,0.0,0.0,0.0,0.0,0.0,0.0,0.0,0.0,0.0,0.0,0.0,0.0,0.0,0.0,0.0,0.0,0.0,0.0,0.0,0.0,1.0891,1.0687,1.0542,0.0,0.0,0.0,0.0,0.0,0.0,0.0,0.0,0.0,0.0,0.0,0.0,0.0,0.0,0.0,0.0,0.0,0.0,0.0,0.0,0.0,0.0,0.0,0.0,0.0,0.0,0.0,0.0,0.0,0.0,0.0,0.0,0.0,0.0,0.0,0.0,0.0,0.0,0.0,0.0,0.0,0.0,0.0,0.0,0.0,0.0,0.0,0.0,0.0,0.0,0.0,0.0,0.0,0.0,0.0,0.0,0.0,0.0,0.0,0.0,0.0,0.0,0.0,0.0,0.0,0.0,0.0,0.0,0.0,0.0,0.0,0.0,0.0,0.0,0.0,0.0,0.0,0.0,0.0,0.0,0.0,0.0,0.0,0.0,0.0,0.0,0.0,0.0,0.0,0.0,0.0,0.0,0.0,0.0,0.0,0.0,0.0,0.0,0.0,0.0,0.0,0.0,0.0,0.0,0.0,0.0,0.0,0.0,0.0,0.0,1.0727,0.0,1.1182,1.0538,1.0262,1.0481,0.0,0.0,0.0,0.0,0.0,0.0,0.0,0.0,0.0,0.0,0.0,0.0,0.0,0.0,0.0,0.0,0.0,0.0,0.0,0.0,0.0,0.0,0.0,0.0,0.0,0.0,0.0,0.0,0.0,0.0,0.0,0.0,0.0,0.0,0.0,0.0,0.0,0.0,0.0,0.0,0.0,0.0,0.0,0.0,0.0,0.0,0.0,0.0,0.0,0.0,0.0,0.0,0.0,0.0,0.0,0.0,0.0,0.0,0.0,0.0,0.0,0.0,0.0,0.0,0.0,0.0,0.0,0.0,0.0,0.0,0.0,0.0,0.0,0.0,0.0,0.0,0.0,0.0,0.0,0.0,0.0,0.0,0.0,0.0,0.0,0.0,0.0,0.0,0.0,0.0,0.0,0.0,0.0,0.0,0.0,0.0,0.0,0.0,0.0,0.0,0.0,0.0,0.0,0.0,0.0,0.0,0.0,0.0,0.0,1.1311,1.1264,1.1962,1.0298,0.9722,0.0,0.0,0.0,0.0,0.0,0.0,0.0,0.0,0.0,0.0,0.0,0.0,0.0,0.0,0.0,0.0,0.0,0.0,0.0,0.0,0.0,0.0,0.0,0.0,0.0,0.0,0.0,0.0,0.0,0.0,0.0,0.0,0.0,0.0,0.0,0.0,0.0,0.0,0.0,0.0,0.0,0.0,0.0,0.0,0.0,0.0,0.0,0.0,0.0,0.0,0.0,0.0,0.0,0.0,0.0,0.0,0.0,0.0,0.0,0.0,0.0,0.0,0.0,0.0,0.0,0.0,0.0,0.0,0.0,0.0,0.0,0.0,0.0,0.0,0.0,0.0,0.0,0.0,0.0,0.0,0.0,0.0,0.0,0.0,0.0,0.0,0.0,0.0,0.0,0.0,0.0,0.0,0.0,0.0,0.0,0.0,0.0,0.0,0.0,0.0,0.0,0.0,0.0,0.0,0.0,0.0,0.0,0.0,0.0,1.0636,1.0834,1.1233,1.1905,1.0724,1.0155,0.0,0.0,0.0,0.0,0.0,0.0,0.0,0.0,0.0,0.0,0.0,0.0,0.0,0.0,0.0,0.0,0.0,0.0,0.0,0.0,0.0,0.0,0.0,0.0,0.0,0.0,0.0,0.0,0.0,0.0,0.0,0.0,0.0,0.0,0.0,0.0,0.0,0.0,0.0,0.0,0.0,0.0,0.0,0.0,0.0,0.0,0.0,0.0,0.0,0.0,0.0,0.0,0.0,0.0,0.0,0.0,0.0,0.0,0.0,0.0,0.0,0.0,0.0,0.0,0.0,0.0,0.0,0.0,0.0,0.0,0.0,0.0,0.0,0.0,0.0,0.0,0.0,0.0,0.0,0.0,0.0,0.0,0.0,0.0,0.0,0.0,0.0,0.0,0.0,0.0,0.0,0.0,0.0,0.0,0.0,0.0,0.0,0.0,0.0,0.0,0.0,0.0,0.0,0.0,0.0,0.0,0.0,0.0,0.0,1.0566,0.0,1.1733,0.0,1.0992,1.0314,0.0,0.0,0.0,0.0,0.0,0.0,0.0,0.0,0.0,0.0,0.0,0.0,0.0,0.0,0.0,0.0,0.0,0.0,0.0,0.0,0.0,0.0,0.0,0.0,0.0,0.0,0.0,0.0,0.0,0.0,0.0,0.0,0.0,0.0,0.0,0.0,0.0,0.0,0.0,0.0,0.0,0.0,0.0,0.0,0.0,0.0,0.0,0.0,0.0,0.0,0.0,0.0,0.0,0.0,0.0,0.0,0.0,0.0,0.0,0.0,0.0,0.0,0.0,0.0,0.0,0.0,0.0,0.0,0.0,0.0,0.0,0.0,0.0,0.0,0.0,0.0,0.0,0.0,0.0,0.0,0.0,0.0,0.0,0.0,0.0,0.0,0.0,0.0,0.0,0.0,0.0,0.0,0.0,0.0,0.0,0.0,0.0,0.0,0.0,0.0,0.0,0.0,0.0,0.0,0.0,0.0,0.0,0.0,0.0,1.2107,1.2831,1.2691,1.1921,1.0951,1.0059,0.0,0.0,0.0,0.0,0.0,0.0,0.0,0.0,0.0,0.0,0.0,0.0,0.0,0.0,0.0,0.0,0.0,0.0,0.0,0.0,0.0,0.0,0.0,0.0,0.0,0.0,0.0,0.0,0.0,0.0,0.0,0.0,0.0,0.0,0.0,0.0,0.0,0.0,0.0,0.0,0.0,0.0,0.0,0.0,0.0,0.0,0.0,0.0,0.0,0.0,0.0,0.0,0.0,0.0,0.0,0.0,0.0,0.0,0.0,0.0,0.0,0.0,0.0,0.0,0.0,0.0,0.0,0.0,0.0,0.0,0.0,0.0,0.0,0.0,0.0,0.0,0.0,0.0,0.0,0.0,0.0,0.0,0.0,0.0,0.0,0.0,0.0,0.0,0.0,0.0,0.0,0.0,0.0,0.0,0.0,0.0,0.0,0.0,0.0,0.0,0.0,0.0,0.0,0.0,0.0,0.0,0.0,0.0,0.0,1.1384,1.1539,1.1677,1.1639,1.0387,0.9664,0.0,0.0,0.0,0.0,0.0,0.0,0.0,0.0,0.0,0.0,0.0,0.0,0.0,0.0,0.0,0.0,0.0,0.0,0.0,0.0,0.0,0.0,0.0,0.0,0.0,0.0,0.0,0.0,0.0,0.0,0.0,0.0,0.0,0.0,0.0,0.0,0.0,0.0,0.0,0.0,0.0,0.0,0.0,0.0,0.0,0.0,0.0,0.0,0.0,0.0,0.0,0.0,0.0,0.0,0.0,0.0,0.0,0.0,0.0,0.0,0.0,0.0,0.0,0.0,0.0,0.0,0.0,0.0,0.0,0.0,0.0,0.0,0.0,0.0,0.0,0.0,0.0,0.0,0.0,0.0,0.0,0.0,0.0,0.0,0.0,0.0,0.0,0.0,0.0,0.0,0.0,0.0,0.0,0.0,0.0,0.0,0.0,0.0,0.0,0.0,0.0,0.0,0.0,0.0,0.0,0.0,0.0,0.0,0.0,1.2343,1.2276,1.2157,1.2055,1.0828,1.0122,0.9986,0.0,0.0,0.0,0.0,0.0,0.0,0.0,0.0,0.0,0.0,0.0,0.0,0.0,0.0,0.0,0.0,0.0,0.0,0.0,0.0,0.0,0.0,0.0,0.0,0.0,0.0,0.0,0.0,0.0,0.0,0.0,0.0,0.0,0.0,0.0,0.0,0.0,0.0,0.0,0.0,0.0,0.0,0.0,0.0,0.0,0.0,0.0,0.0,0.0,0.0,0.0,0.0,0.0,0.0,0.0,0.0,0.0,0.0,0.0,0.0,0.0,0.0,0.0,0.0,0.0,0.0,0.0,0.0,0.0,0.0,0.0,0.0,0.0,0.0,0.0,0.0,0.0,0.0,0.0,0.0,0.0,0.0,0.0,0.0,0.0,0.0,0.0,0.0,0.0,0.0,0.0,0.0,0.0,0.0,0.0,0.0,0.0,0.0,0.0,0.0,0.0,0.0,0.0,0.0,0.0,0.0,0.0,0.0,1.451,1.459,1.4068,1.2961,1.2142,1.1182,0.0,0.0,0.0,0.0,0.0,0.0,0.0,0.0,0.0,0.0,0.0,0.0,0.0,0.0,0.0,0.0,0.0,0.0,0.0,0.0,0.0,0.0,0.0,0.0,0.0,0.0,0.0,0.0,0.0,0.0,0.0,0.0,0.0,0.0,0.0,0.0,0.0,0.0,0.0,0.0,0.0,0.0,0.0,0.0,0.0,0.0,0.0,0.0,0.0,0.0,0.0,0.0,0.0,0.0,0.0,0.0,0.0,0.0,0.0,0.0,0.0,0.0,0.0,0.0,0.0,0.0,0.0,0.0,0.0,0.0,0.0,0.0,0.0,0.0,0.0,0.0,0.0,0.0,0.0,0.0,0.0,0.0,0.0,0.0,0.0,0.0,0.0,0.0,0.0,0.0,0.0,0.0,0.0,0.0,0.0,0.0,0.0,0.0,0.0,0.0,0.0,0.0,0.0,0.0,0.0,0.0,0.0,0.0,0.0,1.3771,1.5392,1.5704,1.4513,1.2682,1.1426,0.0,0.0,0.0,0.0,0.0,0.0,0.0,0.0,0.0,0.0,0.0,0.0,0.0,0.0,0.0,0.0,0.0,0.0,0.0,0.0,0.0,0.0,0.0,0.0,0.0,0.0,0.0,0.0,0.0,0.0,0.0,0.0,0.0,0.0,0.0,0.0,0.0,0.0,0.0,0.0,0.0,0.0,0.0,0.0,0.0,0.0,0.0,0.0,0.0,0.0,0.0,0.0,0.0,0.0,0.0,0.0,0.0,0.0,0.0,0.0,0.0,0.0,0.0,0.0,0.0,0.0,0.0,0.0,0.0,0.0,0.0,0.0,0.0,0.0,0.0,0.0,0.0,0.0,0.0,0.0,0.0,0.0,0.0,0.0,0.0,0.0,0.0,0.0,0.0,0.0,0.0,0.0,0.0,0.0,0.0,0.0,0.0,0.0,0.0,0.0,0.0,0.0,0.0,0.0,0.0,0.0,0.0,0.0,1.4276,1.4873,1.6868,1.7344,1.6138,1.4158,1.2467,0.0,0.0,0.0,0.0,0.0,0.0,0.0,0.0,0.0,0.0,0.0,0.0,0.0,0.0,0.0,0.0,0.0,0.0,0.0,0.0,0.0,0.0,0.0,0.0,0.0,0.0,0.0,0.0,0.0,0.0,0.0,0.0,0.0,0.0,0.0,0.0,0.0,0.0,0.0,0.0,0.0,0.0,0.0,0.0,0.0,0.0,0.0,0.0,0.0,0.0,0.0,0.0,0.0,0.0,0.0,0.0,0.0,0.0,0.0,0.0,0.0,0.0,0.0,0.0,0.0,0.0,0.0,0.0,0.0,0.0,0.0,0.0,0.0,0.0,0.0,0.0,0.0,0.0,0.0,0.0,0.0,0.0,0.0,0.0,0.0,0.0,0.0,0.0,0.0,0.0,0.0,0.0,0.0,0.0,0.0,0.0,0.0,0.0,0.0,0.0,0.0,0.0,0.0,0.0,0.0,0.0,0.0,0.0,1.5444,1.6875,1.8463,1.8733,1.7501,1.596,1.3949,0.0,0.0,0.0,0.0,0.0,0.0,0.0,0.0,0.0,0.0,0.0,0.0,0.0,0.0,0.0,0.0,0.0,0.0,0.0,0.0,0.0,0.0,0.0,0.0,0.0,0.0,0.0,0.0,0.0,0.0,0.0,0.0,0.0,0.0,0.0,0.0,0.0,0.0,0.0,0.0,0.0,0.0,0.0,0.0,0.0,0.0,0.0,0.0,0.0,0.0,0.0,0.0,0.0,0.0,0.0,0.0,0.0,0.0,0.0,0.0,0.0,0.0,0.0,0.0,0.0,0.0,0.0,0.0,0.0,0.0,0.0,0.0,0.0,0.0,0.0,0.0,0.0,0.0,0.0,0.0,0.0,0.0,0.0,0.0,0.0,0.0,0.0,0.0,0.0,0.0,0.0,0.0,0.0,0.0,0.0,0.0,0.0,0.0,0.0,0.0,0.0,0.0,0.0,0.0,0.0,0.0,0.0,0.0,1.599,1.6905,1.8463,1.8733,1.7528,1.5999,1.4468,0.0,0.0,0.0,0.0,0.0,0.0,0.0,0.0,0.0,0.0,0.0,0.0,0.0,0.0,0.0,0.0,0.0,0.0,0.0,0.0,0.0,0.0,0.0,0.0,0.0,0.0,0.0,0.0,0.0,0.0,0.0,0.0,0.0,0.0,0.0,0.0,0.0,0.0,0.0,0.0,0.0,0.0,0.0,0.0,0.0,0.0,0.0,0.0,0.9239,0.0,0.0,0.0,0.0,0.0,0.0,0.0,0.0,0.0,0.0,0.0,0.0,0.0,0.0,0.0,0.0,0.0,0.0,0.0,0.0,0.0,0.0,0.0,0.0,0.0,0.0,0.0,0.0,0.0,0.0,0.0,0.0,0.0,0.0,0.0,0.0,0.0,0.0,0.0,0.0,0.0,0.0,0.0,0.0,0.0,0.0,0.0,0.0,0.0,0.0,0.0,0.0,0.0,0.0,0.0,0.0,0.0,0.0,0.0,1.6309,1.7462,1.8687,1.8903,1.8003,1.6892,1.5371,0.0,0.0,0.0,0.0,0.0,0.0,0.0,0.0,0.0,0.0,0.0,0.0,0.0,0.0,0.0,0.0,0.0,0.0,0.0,0.0,0.0,0.0,0.0,0.0,0.0,0.0,0.0,0.0,0.0,0.0,0.0,0.0,0.0,0.0,0.0,0.0,0.0,0.0,0.0,0.0,0.0,0.0,0.0,0.0,0.0,0.0,0.0,0.0,0.0,0.0,0.0,0.0,0.0,0.0,0.0,0.0,0.0,0.0,0.0,0.0,0.0,0.0,0.0,0.0,0.0,0.0,0.0,0.0,0.0,0.0,0.0,0.0,0.0,0.0,0.0,0.0,0.0,0.0,0.0,0.0,0.0,0.0,0.0,0.0,0.0,0.0,0.0,0.0,0.0,0.0,0.0,0.0,0.0,0.0,0.0,0.0,0.0,0.0,0.0,0.0,0.0,0.0,0.0,0.0,0.0,0.0,0.0,1.5022,1.6558,1.824,1.8944,1.9068,1.8596,1.7884,1.6317,1.3846,0.0,0.0,0.0,0.0,0.0,0.0,0.0,0.0,0.0,0.0,0.0,0.0,0.0,0.0,0.0,0.0,0.0,0.0,0.0,0.0,0.0,0.0,0.0,0.0,0.0,0.0,0.0,0.0,0.0,0.0,0.0,0.0,0.0,0.0,0.0,0.0,0.0,0.0,0.9462,1.0786,0.0,0.0,0.0,0.0,0.0,0.0,0.0,0.0,0.9791,0.0,0.0,0.0,0.0,0.0,0.0,0.0,0.0,0.0,0.0,0.0,0.0,0.0,0.0,0.0,0.0,0.0,0.0,0.0,0.0,0.0,0.0,0.0,0.0,0.0,0.0,0.0,0.0,0.0,0.0,0.0,0.0,0.0,0.0,0.0,0.0,0.0,0.0,0.0,0.0,0.0,0.0,0.0,0.0,0.0,0.0,0.0,0.0,0.0,0.0,0.0,0.0,0.0,0.0,0.0,0.0,1.5242,1.557,1.6815,1.9018,1.9242,1.9068,1.8605,1.7879,1.6795,1.5276,0.0,0.0,0.0,0.0,0.0,0.0,0.0,0.0,0.0,0.0,0.0,0.0,0.0,0.0,0.0,0.0,0.0,0.0,0.0,0.0,0.0,0.0,0.0,0.0,0.0,0.0,0.0,0.0,0.0,0.0,0.0,0.0,0.0,0.0,0.0,0.0,0.0,0.0,0.0,1.3878,1.4693,0.0,0.0,0.0,0.0,0.0,0.0,0.0,0.0,0.9907,0.0,0.0,0.0,0.0,0.0,0.0,0.0,0.0,0.0,0.0,0.0,0.0,0.0,0.0,0.0,0.0,0.0,0.0,0.0,0.0,0.0,0.0,0.0,0.0,0.0,0.0,0.0,0.0,0.0,0.0,0.0,0.0,0.0,0.0,0.0,0.0,0.0,0.0,0.0,0.0,0.0,0.0,0.0,0.0,0.0,0.0,0.0,0.0,0.0,0.0,0.0,0.0,0.0,0.0,0.0,1.4976,1.5884,1.7285,1.9209,1.9282,1.9073,1.8601,1.7879,1.6895,0.0,0.0,0.0,0.0,0.0,0.0,0.0,0.0,0.0,0.0,0.0,0.0,0.0,0.0,0.0,0.0,0.0,0.0,0.0,0.0,0.0,0.0,0.0,0.0,0.0,0.0,0.0,0.0,0.0,0.0,0.0,0.0,0.0,0.0,0.0,0.0,0.0,0.0,0.0,0.0,1.4505,1.5296,1.4949,0.0,0.0,0.0,0.0,0.0,0.0,1.1156,1.0917,0.0,0.0,0.0,0.0,0.0,0.0,0.0,0.0,0.0,0.0,0.0,0.0,0.0,0.0,0.0,0.0,0.0,0.0,0.0,0.0,0.0,0.0,0.0,0.0,0.0,0.0,0.0,0.0,0.0,0.0,0.0,0.0,0.0,0.0,0.0,0.0,0.0,0.0,0.0,0.0,0.0,0.0,0.0,0.0,0.0,0.0,0.0,0.0,0.0,0.0,0.0,0.0,0.0,0.0,0.0,1.449,1.6101,1.7686,1.9198,1.9273,1.9027,1.8596,1.7962,1.6941,0.0,0.0,0.0,0.0,0.0,0.0,0.0,0.0,0.0,0.0,0.0,0.0,0.0,0.0,0.0,0.0,0.0,0.0,0.0,0.0,0.0,0.0,0.0,0.0,0.0,0.0,0.0,0.0,0.0,0.0,0.0,0.0,0.0,0.0,0.0,0.0,0.0,0.0,0.0,0.0,0.0,1.6116,1.6241,1.5494,0.0,0.0,0.0,0.0,1.2731,1.2993,0.0,0.0,0.0,0.0,0.0,0.0,0.0,0.0,0.0,0.0,0.0,0.0,0.0,0.0,0.0,0.0,0.0,0.0,0.0,0.0,0.0,0.0,0.0,0.0,0.0,0.0,0.0,0.0,0.0,0.0,0.0,0.0,0.0,0.0,0.0,0.0,0.0,0.0,0.0,0.0,0.0,0.0,0.0,0.0,0.0,0.0,0.0,0.0,0.0,0.0,0.0,0.0,0.0,0.0,0.0,0.0,1.4493,1.6061,1.7682,1.9194,1.9121,1.8891,1.8622,1.8288,1.7038,0.0,0.0,0.0,0.0,0.0,0.0,0.0,0.0,0.0,0.0,0.0,0.0,0.0,0.0,0.0,0.0,0.0,0.0,0.0,0.0,0.0,0.0,0.0,0.0,0.0,0.0,0.0,0.0,0.0,0.0,0.0,0.0,0.0,0.0,0.0,0.0,0.0,0.0,0.0,0.0,0.0,1.9166,1.5962,1.6645,1.6765,0.0,0.0,0.0,1.4687,1.548,0.0,0.0,0.0,0.0,0.0,0.0,0.0,0.0,0.0,0.0,0.0,0.0,0.0,0.0,0.0,0.0,0.0,0.0,0.0,0.0,0.0,0.0,0.0,0.0,0.0,0.0,0.0,0.0,0.0,0.0,0.0,0.0,0.0,0.0,0.0,0.0,0.0,0.0,0.0,0.0,0.0,0.0,0.0,0.0,0.0,0.0,0.0,0.0,0.0,0.0,0.0,0.0,0.0,0.0,0.0,1.3367,1.4527,1.6542,1.8126,1.9234,1.9133,1.8861,1.8612,1.7924,1.661,0.0,0.0,0.0,0.0,0.0,0.0,0.0,0.0,0.0,0.0,0.0,0.0,0.0,0.0,0.0,0.0,0.0,0.0,0.0,0.0,0.0,0.0,0.0,0.0,0.0,0.0,0.0,0.0,0.0,0.0,0.0,0.0,0.0,0.0,0.0,0.0,0.0,0.0,0.0,0.0,0.0,0.0,1.8458,1.8489,0.0,0.0,0.0,1.6718,1.695,0.0,0.0,0.0,0.0,0.0,0.0,0.0,0.0,0.0,0.0,0.0,0.0,0.0,0.0,0.0,0.0,0.0,0.0,0.0,0.0,0.0,0.0,0.0,0.0,0.0,0.0,0.0,0.0,0.0,0.0,0.0,0.0,0.0,0.0,0.0,0.0,0.0,0.0,0.0,0.0,0.0,0.0,0.0,0.0,0.0,0.0,0.0,0.0,0.0,0.0,0.0,0.0,0.0,0.0,0.0,0.0,0.0,1.453,1.7069,1.8658,1.9193,1.9008,1.877,1.8491,1.7731,0.0,0.0,0.0,0.0,0.0,0.0,0.0,0.0,0.0,0.0,0.0,0.0,0.0,0.0,0.0,0.0,0.0,0.0,0.0,0.0,0.0,0.0,0.0,0.0,0.0,0.0,0.0,0.6519,0.0,0.0,0.0,0.0,0.0,0.0,0.0,0.0,0.0,0.0,0.0,0.0,0.0,0.0,1.9062,1.9829,1.9854,1.9786,0.0,0.0,1.8238,1.8703,1.8018,1.68,0.0,0.0,0.0,0.0,0.0,0.0,0.0,0.0,0.0,0.0,0.0,0.0,0.0,0.0,0.0,0.0,0.0,0.0,0.0,0.0,0.0,0.0,0.0,0.0,0.0,0.0,0.0,0.0,0.0,0.0,0.0,0.0,0.0,0.0,0.0,0.0,0.0,0.0,0.0,0.0,0.0,0.0,0.0,0.0,0.0,0.0,0.0,0.0,0.0,0.0,0.0,0.0,0.0,0.0,0.0,1.4601,1.7623,1.9141,1.9036,1.8766,1.8481,1.8251,1.7936,1.6394,0.0,0.0,0.0,0.0,0.0,0.0,0.0,0.0,0.0,0.0,0.0,0.0,0.0,0.0,0.0,0.0,0.0,0.0,0.0,0.0,0.0,0.0,0.0,0.0,0.0,0.0,0.0,0.0,0.0,0.0,0.0,0.0,0.0,0.0,0.0,0.0,0.0,0.0,0.0,0.0,0.0,1.9248,1.8225,2.0083,2.0924,0.0,0.0,2.0333,1.9389,1.9959,1.9492,1.6623,0.0,0.0,0.0,0.0,0.0,0.0,0.0,0.0,0.0,0.0,0.0,0.0,0.0,0.0,0.0,0.0,0.0,0.0,0.0,0.0,0.0,0.0,0.0,0.0,0.0,0.0,0.0,0.0,0.0,0.0,0.0,0.0,0.0,0.0,0.0,0.0,0.0,0.0,0.0,0.0,0.0,0.0,0.0,0.0,0.0,0.0,0.0,0.0,0.0,0.0,0.0,0.0,0.0,1.4488,1.4527,1.7656,1.9206,1.901,1.8738,1.8482,1.8185,1.7938,1.6639,0.0,0.0,0.0,0.0,0.0,0.0,0.0,0.0,0.0,0.0,0.0,0.0,0.0,0.0,0.0,0.0,0.0,0.0,0.0,0.0,0.0,0.0,0.0,0.0,0.0,0.0,0.0,0.0,0.7914,0.8162,0.8077,0.0,0.0,0.0,0.0,0.0,0.0,0.0,0.0,0.0,0.0,1.9589,1.9659,2.0436,0.0,0.0,1.9848,1.9759,2.0593,2.0505,1.9721,1.7925,1.5945,0.0,0.0,0.0,0.0,0.0,0.0,0.0,0.0,0.0,0.0,0.0,0.0,0.0,0.0,0.0,0.0,0.0,0.0,0.0,0.0,0.0,0.0,0.0,0.0,0.0,0.0,0.0,0.0,0.0,0.0,0.0,0.0,0.0,0.0,0.0,0.0,0.0,0.0,0.0,0.0,0.0,0.0,0.0,0.0,0.0,0.0,0.0,0.0,0.0,0.0,0.0,0.0,1.464,1.4866,1.7742,1.9105,1.8905,1.8626,1.8373,1.81,1.7894,1.687,0.0,0.0,0.0,0.0,0.0,0.0,0.0,0.0,0.0,0.0,0.0,0.0,0.0,0.0,0.0,0.0,0.0,0.0,0.0,0.0,0.0,0.0,0.0,0.0,0.0,0.0,0.0,0.0,0.8501,0.8624,0.8533,0.0,0.0,0.0,0.0,0.0,0.0,0.0,0.0,0.0,0.0,1.9755,2.0487,2.0678,2.083,2.1157,2.0241,1.9964,2.1368,2.0676,1.9723,1.9005,0.0,0.0,0.0,0.0,0.0,0.0,0.0,0.0,0.0,0.0,0.0,0.0,0.0,0.0,0.0,0.0,0.0,0.0,0.0,0.0,0.0,0.0,0.0,0.0,0.0,0.0,0.0,0.0,0.0,0.0,0.9365,0.0,0.0,0.0,0.0,0.0,0.0,0.0,0.0,0.0,0.0,0.0,0.0,0.0,0.0,0.0,0.0,0.0,0.0,0.0,0.0,0.0,0.0,0.0,1.5674,1.7858,1.8865,1.8586,1.8363,1.8094,1.7845,1.7817,1.7117,1.559,0.0,0.0,0.0,0.0,0.0,0.0,0.0,0.0,0.0,0.0,0.0,0.0,0.0,0.0,0.0,0.0,0.0,0.0,0.0,0.0,0.0,0.0,0.0,0.0,0.0,0.0,0.9981,0.9134,0.8598,0.0,0.0,0.0,0.0,0.0,0.0,0.0,0.0,0.0,0.0,1.84,1.9641,2.0088,2.0759,2.1134,2.0866,2.1179,2.1482,2.1506,2.0672,1.9938,0.0,0.0,0.0,0.0,0.0,0.0,0.0,0.0,0.0,0.0,0.0,0.0,0.0,0.0,0.0,0.0,0.0,0.0,0.0,0.0,0.0,0.0,0.0,0.0,0.0,0.0,0.0,1.3211,1.2606,0.0,0.0,0.0,0.0,0.0,0.0,0.0,0.0,0.0,0.0,0.0,1.5576,1.561,0.0,0.0,0.0,0.0,0.0,0.0,0.0,0.0,0.0,0.0,0.0,0.0,1.4794,1.5508,1.7772,1.8784,1.8328,1.8261,1.8084,1.7788,1.7777,1.7112,1.5629,0.0,0.0,0.0,0.0,0.0,0.0,0.0,0.0,0.0,0.0,0.0,0.0,0.0,0.0,0.0,0.0,0.0,0.0,0.0,0.0,0.0,0.0,0.0,0.0,0.0,1.1,0.0,0.0,0.0,0.0,0.0,0.0,0.0,0.0,0.0,0.0,0.0,1.7638,1.8394,1.9758,2.0735,2.0877,2.0911,2.0866,0.0,0.0,0.0,0.0,0.0,0.0,0.0,0.0,0.0,0.0,0.0,0.0,0.0,0.0,1.7927,1.406,1.2518,1.2549,1.4993,0.0,0.0,0.0,0.0,0.0,0.0,0.0,0.0,0.0,0.0,0.0,0.0,0.0,0.0,0.0,0.0,1.4478,0.0,0.0,0.0,0.0,0.0,0.0,0.0,0.0,1.7188,1.7724,1.7862,1.7828,1.7591,0.0,1.6628,1.5788,0.0,0.0,0.0,0.0,0.0,0.0,0.0,0.0,1.5232,1.6156,1.782,1.856,1.823,1.8115,1.7976,1.7788,1.7777,1.7247,1.6011,1.5063,1.4116,0.0,0.0,0.0,0.0,0.0,0.0,0.0,0.0,0.0,0.0,0.0,0.0,0.0,0.0,0.0,0.0,0.0,0.0,0.0,0.0,0.0,0.0,0.0,1.1156,0.0,0.0,0.0,0.0,0.0,0.0,0.0,0.0,0.0,1.7025,1.8126,1.8988,1.9506,2.0701,2.1503,2.1368,0.0,0.0,0.0,0.0,0.0,0.0,0.0,2.1069,2.1827,2.1905,2.1337,1.9863,2.0036,2.0103,1.9111,0.0,0.0,1.7802,1.5896,1.5099,1.6727,1.5619,1.4511,1.4792,1.4284,1.3835,0.0,0.0,0.0,0.0,0.0,0.0,0.0,0.0,1.7646,1.7289,0.0,1.6306,0.0,0.0,0.0,0.0,0.0,0.0,0.0,0.0,2.0108,2.0737,2.0042,1.9974,2.0008,2.0035,1.9934,1.9541,1.8741,1.5373,0.0,0.0,0.0,0.0,0.0,0.0,1.6141,1.7579,1.8011,1.8215,1.8189,1.7932,1.7783,1.7777,1.7777,1.7461,1.6795,1.6693,1.6016,1.4643,1.3773,0.0,0.0,0.0,0.0,0.0,0.0,0.0,0.0,0.0,0.0,0.0,0.0,0.0,0.0,0.0,0.0,0.0,0.0,0.0,0.0,1.1049,0.0,0.0,0.0,0.0,0.0,0.0,0.0,0.0,0.0,0.0,1.9215,1.985,2.0181,2.0172,0.0,0.0,0.0,0.0,2.1764,2.2301,2.297,2.3417,2.3417,2.2827,2.2576,2.3286,0.0,0.0,1.9206,1.9734,1.9868,1.8459,1.8657,1.931,2.0531,1.9327,1.8244,1.7993,1.7056,1.6738,1.7264,1.6546,1.6085,2.0082,0.0,0.0,0.0,0.0,2.0028,2.0597,2.11,2.0941,2.0192,1.9129,1.8908,0.0,0.0,0.0,0.0,0.0,0.0,1.9127,1.9653,2.0136,2.0528,2.0852,2.0285,2.0291,2.0845,2.0291,2.0183,2.0446,1.8904,1.6688,1.3952,0.0,0.0,0.0,0.0,1.6875,1.7213,1.786,1.8115,1.7911,1.7833,1.7777,1.7777,1.7777,1.7721,1.749,1.6988,1.6524,1.6074,1.4357,0.0,0.0,0.0,0.0,0.0,0.0,0.0,0.0,0.0,0.0,0.0,0.0,0.0,0.0,0.0,0.0,0.0,0.0,0.0,1.1718,1.2313,1.2964,0.0,0.0,0.0,0.0,0.0,0.0,0.0,0.0,0.0,2.0499,2.1338,2.1719,0.0,0.0,2.2674,2.3119,2.3028,2.3104,2.3763,0.0,0.0,0.0,2.4,2.3819,2.3658,2.2938,2.2296,2.1848,2.1047,2.0291,1.9836,1.8996,1.8482,1.8825,1.9214,1.8705,1.7359,1.6696,1.6537,1.6718,1.6297,1.5896,2.2469,2.1274,2.1157,2.1257,2.1521,2.2189,2.274,2.318,2.3173,2.2632,2.1772,2.1772,2.113,1.9999,1.9851,0.0,0.0,0.0,2.1278,2.1962,2.1621,2.1602,2.1745,2.1287,2.1153,2.1336,2.0766,2.0873,2.1624,2.0839,1.9203,1.6735,0.0,0.0,1.5484,1.6871,1.786,1.8335,1.8433,1.8404,1.8234,1.7952,1.7777,1.7777,1.7777,1.7777,1.7783,1.736,1.7069,1.6926,1.5387,1.3998,0.0,0.0,0.0,0.0,0.0,0.0,0.0,0.0,0.0,0.0,0.0,1.0968,0.0,0.0,0.0,0.0,1.1666,1.2877,1.4174,1.4587,0.0,0.0,0.0,0.0,0.0,0.0,0.0,2.0287,2.0027,2.0316,2.2268,2.2827,2.2876,2.2358,2.2946,2.3584,2.4057,0.0,2.4,2.4448,2.4588,2.4602,2.4635,2.4821,2.4579,2.3337,2.2912,2.2524,2.2127,2.1215,2.0509,2.0152,1.9024,1.8045,1.8085,1.8317,1.792,1.6182,1.5798,1.5853,1.6076,1.5882,1.5655,2.4802,2.4914,2.4206,2.3882,2.3901,2.4441,2.463,2.4609,2.4643,2.4617,2.4515,2.4515,2.4079,2.3392,2.2779,0.0,0.0,2.3425,2.3771,2.4404,2.3876,2.3342,2.2717,2.2646,2.231,2.1708,2.1447,2.1656,2.2214,2.1588,2.082,2.0031,1.8824,1.8234,1.8237,1.8255,1.8955,2.029,1.9401,1.892,1.8877,1.8222,1.7856,1.7777,1.7777,1.7766,1.7783,1.7749,1.7612,1.7257,1.6552,1.5402,1.377,0.0,0.0,0.0,0.0,0.0,0.0,0.0,0.0,0.0,0.0,0.0,0.0,0.0,0.0,0.0,1.3836,0.0,1.7435,1.7224,0.0,0.0,0.0,1.6652,1.8386,1.8445,1.9065,2.0964,0.0,0.0,0.0,0.0,2.3757,2.3033,2.3811,2.4523,2.4575,2.4591,2.4617,2.4745,2.4821,2.4931,2.5034,2.5303,2.4833,2.2919,2.2373,2.2043,2.1214,2.0733,2.0419,1.9943,1.8791,1.7881,1.7935,1.7129,1.611,1.5057,1.4739,1.4855,1.5504,1.5682,1.5682,2.5382,2.5462,2.5662,2.5584,2.5378,2.6054,2.5963,2.5398,2.5947,2.5557,2.4515,2.4515,2.4186,2.3661,2.3874,2.3843,2.3611,2.3636,2.3711,2.3852,2.3399,2.3059,2.2931,2.2914,2.2809,2.2674,2.2608,2.2425,2.2086,2.1892,2.1334,2.0371,1.9771,1.922,1.8784,1.9527,1.9817,1.9624,1.9386,1.9157,1.8904,1.8713,1.8369,1.7811,1.7777,1.7681,1.7427,1.7415,1.7266,1.6926,1.6207,1.5377,1.4395,1.2591,0.0,0.0,0.0,0.0,0.0,0.0,0.0,0.0,0.0,1.3076,1.1913,0.0,1.3516,0.0,1.6298,1.7118,1.6815,1.7222,0.0,0.0,1.8768,1.942,2.2373,2.1452,2.1298,2.318,2.2957,2.3092,2.4238,2.4854,2.5125,2.4939,2.4656,2.4709,2.5226,2.5344,2.5555,2.599,2.5854,2.5839,2.5997,2.5461,2.4579,2.3482,2.2899,2.2538,2.2233,2.1034,2.0121,1.9909,1.8963,1.7817,1.6788,1.6272,1.5961,1.533,1.4721,1.4575,1.5659,1.5898,1.5891,2.6494,2.6519,2.68,2.6976,2.7007,2.7028,2.6896,2.6732,2.715,2.6858,2.6064,2.5828,2.5559,2.5297,2.5553,2.5371,2.4852,2.481,2.4657,2.4333,2.3855,2.3453,2.318,2.3152,2.2976,2.2712,2.2894,2.2828,2.2472,2.2449,2.2144,2.1592,2.1095,2.0666,2.0285,2.0257,2.0268,2.0376,1.9902,1.9381,1.8871,1.8561,1.8369,1.8226,1.7955,1.7834,1.7941,1.7695,1.7449,1.7253,1.6427,1.5631,1.4921,1.3631,1.2613,0.0,0.0,0.0,0.0,0.0,0.0,0.0,0.0,0.0,0.0,0.0,1.538,0.0,1.8046,0.0,1.827,1.9074,2.0092,2.1173,2.0723,2.1396,2.3963,2.3,2.2663,2.4118,2.397,2.4157,2.5269,2.5538,2.5736,2.6015,2.5741,2.5621,2.5997,2.6081,2.6193,2.636,2.597,2.5514,2.5388,2.4705,2.4081,2.3666,2.3097,2.2615,2.2276,2.1203,2.0272,1.9917,1.9083,1.8311,1.777,1.7091,1.658,1.6086,1.5307,1.4982,1.5464,1.5599,1.5598,2.7824,2.7735,2.7735,2.797,2.8323,2.759,2.7571,2.8118,2.8118,2.8053,2.7948,2.743,2.7179,2.7105,2.7169,2.6872,2.6258,2.6226,2.5906,2.5343,2.4729,2.4143,2.3556,2.3394,2.3016,2.2492,2.2879,2.3042,2.2988,2.2988,2.2952,2.2871,2.2269,2.2013,2.2083,2.0718,2.0495,2.1389,2.0445,1.963,1.8968,1.8353,1.8289,1.8738,1.8219,1.8134,1.856,1.8116,1.7785,1.7648,1.6919,1.6202,1.5536,1.5079,1.452,0.0,1.4324,0.0,0.0,0.0,0.0,0.0,0.0,0.0,0.0,1.6834,1.7613,1.7903,1.9498,2.0469,2.0425,2.14,2.2276,2.2636,2.2433,2.2829,2.4212,2.378,2.3645,2.4495,2.4864,2.5499,2.6427,2.6116,2.6015,2.6683,2.6699,2.6681,2.6851,2.6699,2.6376,2.5961,2.5496,2.4928,2.4028,2.3677,2.3591,2.3469,2.2933,2.2366,2.1702,2.1037,2.0433,1.9901,1.9297,1.9074,1.9683,1.8704,1.7688,1.6948,1.6008,1.5336,1.524,1.5201,1.5126,2.8876,2.8427,2.8397,2.8158,2.7755,2.76,2.781,2.8276,2.8276,2.7934,2.7368,2.7264,2.6935,2.6598,2.702,2.6883,2.6378,2.6336,2.6285,2.6139,2.5069,2.4502,2.4352,2.381,2.3479,2.3358,2.3442,2.3222,2.2758,2.2758,2.2643,2.2425,2.1971,2.2139,2.2685,0.0,0.0,0.0,2.0326,2.0041,1.9708,1.9564,1.927,1.8826,1.8682,0.0,1.7643,1.7941,1.7745,1.6955,1.7241,0.0,0.0,0.0,0.0,0.0,0.0,0.0,0.0,0.0,0.0,0.0,1.7389,1.7116,1.6495,1.8864,2.0122,1.9391,2.1299,2.2012,2.0558,2.1709,2.2592,2.2708,2.3219,2.4005,2.5112,2.489,2.4899,2.554,2.5541,2.5791,2.6547,2.6564,2.6784,2.74,2.7144,2.7169,2.7698,2.6845,2.5988,2.5462,2.5266,2.4782,2.3762,2.364,2.3447,2.2953,2.2323,2.1702,2.1115,2.0459,2.0004,1.9824,1.9708,1.9605,1.9785,1.954,1.8778,1.7253,1.6107,1.5396,1.5366,1.5318,1.5352,2.9398,0.0,2.9099,2.8889,0.0,2.8603,2.871,2.8921,2.8556,2.818,2.7841,2.7557,2.7257,2.6998,2.7292,2.7072,2.6499,2.6499,2.6317,2.6001,2.5371,2.5113,2.5094,2.4735,2.4406,2.4107,2.4107,2.3759,2.3171,2.3152,2.3077,2.293,2.2445,2.2425,2.2806,2.1759,2.079,2.0015,1.9993,1.9936,1.9784,1.9483,1.9289,1.9226,0.0,0.0,0.0,0.0,0.0,0.0,0.0,0.0,0.0,0.0,0.0,1.6844,1.768,1.8086,1.7817,1.8138,1.8574,1.9041,1.9217,1.9284,1.9194,2.0713,2.1497,2.126,2.263,2.3069,2.2055,2.2932,2.3596,2.3603,2.3932,2.4552,2.5365,2.5391,2.5575,2.6196,2.6535,2.6852,2.719,2.7613,2.7828,2.7918,2.7712,2.7412,2.724,2.6891,2.6405,2.5831,2.4874,2.4461,2.4502,2.3958,2.3551,2.3143,2.2348,2.1524,2.0894,2.0258,1.9824,1.9824,1.9824,1.9824,1.9824,1.9824,1.9263,1.7617,1.6257,1.5454,1.541,1.541,1.541,2.9434,2.9316,2.9316,2.9257,2.9139,2.9139,2.9153,2.9105,0.0,0.0,0.0,2.8016,2.7757,2.7752,2.7625,2.728,2.6764,2.6764,2.6494,2.5944,2.5812,2.5752,2.5782,2.5674,2.5292,2.4814,2.4773,2.4425,2.3789,2.3789,2.3729,2.358,2.3112,2.2782,2.2683,2.2154,2.1285,2.0118,1.9938,1.9878,1.9848,1.9211,1.916,1.966,1.8642,1.8267,1.8672,1.775,1.7565,1.8214,1.7618,1.7301,1.7554,1.8638,1.8972,1.8425,2.0256,2.1042,2.0285,2.0839,2.0981,2.0447,2.0847,2.1401,2.2101,2.213,2.2398,2.3058,2.3667,2.3879,2.3608,2.4229,2.4711,2.4711,2.4956,2.5346,2.5913,2.6142,2.6513,2.7072,2.7638,2.7948,2.7841,2.8355,2.87,2.8231,2.7983,2.7708,2.6885,2.6736,2.6615,2.612,2.5036,2.4432,2.5108,2.474,2.3915,2.3622,2.2622,2.1642,2.1013,2.0463,2.0114,2.0025,1.9974,1.9936,1.9836,1.9824,1.928,1.7893,1.6574,1.5613,1.5439,1.541,1.541,2.8746,2.8223,2.8239,2.7889,2.7358,2.7373,2.7373,2.749,2.8834,2.9442,2.9402,2.8569,2.8304,2.8418,2.7681,2.7368,2.7452,2.7465,2.7405,0.0,2.6734,2.6452,2.6435,2.5884,2.5543,2.5483,2.5453,2.5113,2.4504,2.4444,2.4156,2.367,2.3531,2.3201,2.2733,2.2613,2.2183,2.1425,2.0857,2.0548,2.0548,1.9908,1.9588,1.9669,1.9519,1.919,1.8724,1.9031,1.9087,1.8689,1.9066,1.9066,1.8594,1.9868,2.0398,1.9858,2.1233,2.182,2.1089,2.1116,2.1427,2.1975,2.3183,2.3552,2.2691,2.2619,2.3047,2.412,2.4369,2.4407,2.438,2.5033,2.5507,2.5533,2.6581,2.7384,2.7461,2.801,2.8434,2.8536,2.8739,2.8605,2.8244,2.8242,2.8378,2.8212,2.7886,2.7473,2.7273,2.6477,2.5863,2.5731,2.5511,2.5423,2.5652,2.5374,2.4695,2.3749,2.2884,2.2057,2.1454,2.1215,2.098,2.0628,2.0566,2.0402,2.0,1.9824,1.9225,1.7998,1.7073,1.6424,1.5648,1.541,1.541,2.8821,2.8569,2.8541,2.836,2.8085,2.8085,2.8085,2.8146,2.8917,2.8827,2.8169,2.7766,2.764,2.7697,2.73,2.7032,2.6837,2.6837,2.6692,2.6388,2.6087,2.6168,2.6502,2.6222,2.6128,2.6105,2.5719,2.5202,2.4604,2.4546,2.44,2.4101,2.4108,2.3808,2.3231,2.3201,2.3052,2.2712,2.1754,2.1236,2.1236,2.0946,2.0627,2.0249,1.9908,1.9369,1.8732,1.8634,1.8634,1.8702,1.9001,1.9031,1.8749,1.9916,2.0606,2.0629,2.1802,2.2649,2.2984,2.2992,2.3113,2.3492,2.4094,2.4467,2.4281,2.3901,2.4081,2.4989,2.5101,2.5278,2.565,2.6353,2.681,2.6818,2.7799,2.8416,2.8484,2.8739,2.8976,2.9016,2.9053,2.9077,2.8982,2.8858,2.8705,2.8562,2.7956,2.7552,2.7605,2.7106,2.6674,2.6674,2.6662,2.6662,2.6618,2.5897,2.5107,2.4211,2.3151,2.2251,2.1658,2.1493,2.1407,2.1181,2.113,2.103,2.0715,2.0526,1.9756,1.8497,1.7773,1.7025,1.5893,1.541,1.541,2.872,2.8628,2.8601,2.8563,2.8427,2.8443,2.8443,2.8427,2.8427,2.7865,2.6977,2.7065,2.7167,2.7223,2.7042,2.6745,2.6413,2.6373,2.6154,2.5756,2.5632,2.5897,2.6346,2.6328,2.6276,2.6264,2.5747,2.5133,2.4554,2.4469,2.4399,2.425,2.4188,2.3945,2.3578,2.3462,2.345,2.3509,2.2622,2.2064,2.1914,2.1794,2.1455,2.0946,2.0428,1.9908,1.939,1.8873,1.8835,1.9322,1.939,1.9382,1.9417,2.0369,2.1047,2.1445,2.2466,2.351,2.4401,2.4677,2.4737,2.4745,2.4914,2.5252,2.571,2.5346,2.5312,2.5964,2.6142,2.6412,2.7106,2.7706,2.8069,2.8103,2.8789,2.9204,2.9247,2.9382,2.9484,2.9495,2.9486,2.9559,2.9646,2.9415,2.8948,2.8466,2.7978,2.7623,2.7585,2.7585,2.7585,2.7585,2.7585,2.7525,2.7522,2.6733,2.5709,2.4868,2.3689,2.28,2.2173,2.1895,2.1802,2.1734,2.1677,2.1568,2.1493,2.1253,2.0387,1.9034,1.8396,1.7719,1.6178,1.5679,1.5527,2.7906,2.7482,2.7527,2.717,2.685,2.6807,2.685,2.6824,2.6748,2.6688,2.6688,2.7298,2.7701,2.7802,2.7077,2.6761,2.6859,2.6906,2.6836,2.6712,2.636,2.6155,2.6144,2.573,2.5508,2.5535,2.5411,2.5024,2.4429,2.4402,2.4099,2.3508,2.3028,2.309,2.3418,2.3028,2.3072,2.3588,2.349,2.3161,2.2613,2.2004,2.1665,2.1605,2.1545,2.1495,2.1315,2.1356,2.1345,2.1425,2.1365,2.1405,2.1453,2.2287,2.2636,2.2291,2.3539,2.4409,2.4534,2.5143,2.5483,2.5541,2.6108,2.6522,2.6632,2.6564,2.6826,2.7418,2.7587,2.7934,2.8662,2.8831,2.8874,2.8924,2.9529,2.9997,3.0027,3.0615,3.0997,3.0997,3.0253,3.0146,2.9771,2.9119,2.8372,2.7892,2.7735,2.7585,2.7585,2.7585,2.7585,2.7585,2.7585,2.7585,2.7547,2.7522,2.6488,2.5424,2.4605,2.3687,2.298,2.2779,2.2795,2.2307,2.2237,2.2081,2.1769,2.1387,2.0891,1.9491,1.8822,1.8395,1.701,1.6269,1.5933,2.7971,2.7752,2.777,2.7645,2.7444,2.7437,2.7462,2.7437,2.711,2.6977,2.6944,2.7003,2.7033,2.7082,2.6743,2.6458,2.6189,2.6179,2.5996,2.5709,2.5464,2.5447,2.551,2.5339,2.5288,2.5356,2.4978,2.4617,2.4401,2.4347,2.4204,2.4009,2.3772,2.3597,2.3426,2.2924,2.2937,2.3507,2.3236,2.3124,2.3189,2.2962,2.2662,2.2343,2.2303,2.2104,2.1764,2.1704,2.1704,2.1704,2.1704,2.1704,2.1704,2.2075,2.2488,2.2942,2.4186,2.5071,2.5371,2.5696,2.6021,2.6445,2.7009,2.7528,2.7985,2.7774,2.8002,2.8939,2.9016,2.9001,2.9077,2.9407,2.9634,2.9698,3.0007,3.0209,3.0242,3.0164,3.0128,3.0118,2.9607,2.9282,2.918,2.8516,2.7922,2.7623,2.7615,2.7657,2.7615,2.7585,2.7585,2.7585,2.7585,2.7585,2.7509,2.6493,2.5864,2.5329,2.438,2.341,2.326,2.3095,2.2985,2.279,2.2745,2.2709,2.2558,2.1923,2.1278,1.987,1.8241,1.7451,1.6782,1.6566,1.6352,2.8473,2.8304,2.8172,2.8122,2.8122,2.8122,2.8122,2.8072,2.767,2.7512,2.7469,2.7085,2.6876,2.67,2.6575,2.6231,2.5879,2.5854,2.5636,2.5259,2.5118,2.5113,2.5221,2.5085,2.5086,2.5103,2.4549,2.4127,2.3985,2.3985,2.3984,2.4023,2.3904,2.369,2.3337,2.2832,2.2848,2.34,2.3238,2.3322,2.3559,2.378,2.358,2.3002,2.2932,2.2733,2.2263,2.2233,2.2243,2.2193,2.2233,2.2203,2.2213,2.2355,2.2867,2.3791,2.4567,2.5307,2.5985,2.6202,2.6614,2.7283,2.7705,2.8132,2.8572,2.8538,2.8777,2.9343,2.9615,2.9478,2.9736,2.995,3.0122,3.015,3.0139,3.0053,3.0011,2.964,2.944,2.9339,2.8985,2.8475,2.8427,2.8186,2.8019,2.794,2.8085,2.8162,2.8167,2.8184,2.8154,2.7944,2.8034,2.8004,2.7616,2.673,2.5659,2.4912,2.4272,2.3798,2.329,2.3095,2.3095,2.297,2.308,2.304,2.282,2.2326,2.1323,1.99,1.8374,1.7167,1.7187,1.6999,1.6892,2.9402,2.8775,2.8286,2.8044,2.8085,2.8037,2.8074,2.8002,2.7987,2.798,2.7907,2.7844,2.7666,2.7112,2.6661,2.6482,2.6441,2.6424,2.6373,2.6273,2.5829,2.5577,2.5535,2.5066,2.4854,2.4843,2.4389,2.3816,2.3291,2.321,2.3155,2.317,2.2778,2.2771,2.3122,2.2733,2.2764,2.339,2.3875,2.4066,2.3697,2.4215,2.4212,2.3699,2.355,2.349,2.346,2.349,2.346,2.349,2.343,2.346,2.3503,2.3916,2.4438,2.4976,2.4692,2.4997,2.606,2.6672,2.7235,2.7869,2.8033,2.8125,2.8352,2.8672,2.8803,2.8501,2.9113,2.9772,3.0603,3.0314,3.0186,3.0178,2.9729,2.9473,2.944,2.9316,2.9384,2.9237,2.8834,2.8369,2.7833,2.8377,2.8646,2.872,2.9064,2.9405,2.9289,2.9368,2.9129,2.883,2.8919,2.9069,2.7961,2.701,2.6254,2.5422,2.4831,2.4568,2.3754,2.3095,2.3095,2.3095,2.3095,2.305,2.2944,2.2194,2.0951,1.9711,1.8684,1.7857,1.7637,1.75,1.7392,2.7572,2.7365,2.7158,2.7065,2.7065,2.7085,2.7088,2.7041,2.6675,2.6492,2.6446,2.6166,2.589,2.5723,2.6271,2.6489,2.649,2.6499,2.6499,2.6474,2.6273,2.5979,2.5603,2.5385,2.5118,2.4816,2.4591,2.4214,2.3738,2.3662,2.3461,2.3135,2.292,2.2942,2.3032,2.2617,2.2662,2.3257,2.3244,2.3436,2.4079,2.4406,2.4611,2.4814,2.4029,2.3599,2.3599,2.3599,2.3599,2.3599,2.3599,2.3599,2.365,2.4184,2.4784,2.5238,2.5216,2.5507,2.6205,2.6503,2.6968,2.7645,2.8041,2.8446,2.8801,2.8898,2.8908,2.8989,2.8944,2.9374,2.9794,2.9838,2.9717,2.9651,2.9191,2.8842,2.8729,2.848,2.8228,2.8284,2.8368,2.8474,2.8454,2.8895,2.9289,2.9269,2.9466,2.963,2.9627,2.9608,2.9548,2.9338,2.9428,2.9458,2.9082,2.7562,2.6396,2.5587,2.4902,2.4082,2.3236,2.312,2.312,2.3195,2.317,2.2778,2.2494,2.1211,2.0074,1.9094,1.8076,1.8076,1.8008,1.7793,1.7759,2.6483,2.6483,2.6483,2.6483,2.6483,2.6483,2.6483,2.6459,2.6084,2.5887,2.5797,2.5509,2.5266,2.5189,2.5853,2.6104,2.6045,2.6459,2.6751,2.6725,2.6575,2.6273,2.5954,2.5887,2.5686,2.536,2.5143,2.4766,2.4315,2.4255,2.3963,2.3436,2.3386,2.3256,2.307,2.2719,2.2821,2.3126,2.3304,2.3822,2.4459,2.4945,2.5274,2.5413,2.4717,2.4238,2.4268,2.4227,2.4268,2.4268,2.4238,2.4238,2.4298,2.4664,2.5074,2.5407,2.5534,2.5857,2.6402,2.6618,2.7086,2.774,2.8155,2.8602,2.9045,2.8681,2.8599,2.8681,2.8599,2.8602,2.8998,2.912,2.912,2.9025,2.8551,2.8321,2.8498,2.818,2.8128,2.8398,2.8728,2.8903,2.9019,2.9503,2.9836,2.9905,3.0052,3.0229,3.0215,3.0223,3.0117,2.994,2.9854,2.9599,2.8981,2.7641,2.6318,2.5443,2.5281,2.4224,2.3441,2.3341,2.3271,2.3321,2.3002,2.2482,2.1542,2.0236,1.9193,1.8226,1.8025,1.8025,1.8008,1.8008,1.7784,2.638,2.6297,2.6442,2.6235,2.6173,2.6152,2.6359,2.6192,2.6211,2.6022,2.5895,2.6187,2.5651,2.5527,2.548,2.5331,2.5273,2.64,2.7069,2.7083,2.6619,2.648,2.6499,2.6424,2.6373,2.6323,2.5854,2.5318,2.4816,2.4791,2.4515,2.4104,2.4004,2.3712,2.3145,2.316,2.311,2.3338,2.4294,2.4874,2.4661,2.5707,2.62,2.5812,2.5644,2.5615,2.5603,2.5555,2.5435,2.5465,2.5495,2.5585,2.5435,2.5573,2.5626,2.5661,2.5674,2.6004,2.6579,2.7151,2.7674,2.8168,2.8413,2.8394,2.8384,2.8106,2.7868,2.7906,2.7959,2.8046,2.8613,2.8772,2.8779,2.8504,2.8264,2.8192,2.8505,2.8633,2.8816,2.9279,2.9488,2.9592,2.9711,3.0123,3.0483,3.061,3.093,3.1245,3.1197,3.1182,3.1106,3.0607,3.0205,2.9842,2.8773,2.7601,2.6374,2.5349,2.5459,2.507,2.4343,2.4025,2.3857,2.3791,2.2863,2.2265,2.0926,1.9683,1.8944,1.8192,1.8127,1.8008,1.8008,1.7925,1.7483,2.4167,2.4145,2.4167,2.4167,2.4167,2.4167,2.4167,2.4167,2.4167,2.4146,2.4167,2.4167,2.4063,2.4153,2.4661,2.4953,2.4906,2.5732,2.6353,2.658,2.6142,2.6355,2.6897,2.6675,2.6499,2.6474,2.6323,2.5904,2.5435,2.5343,2.5084,2.4641,2.4566,2.4264,2.3753,2.3712,2.3537,2.3266,2.4105,2.4757,2.5108,2.6021,2.6663,2.6954,2.6973,2.6973,2.6944,2.6093,2.5644,2.5644,2.5615,2.5615,2.5674,2.6033,2.6285,2.6345,2.6734,2.7046,2.7238,2.7441,2.7649,2.7867,2.7897,2.7885,2.7945,2.8192,2.8261,2.8351,2.868,2.9099,2.9219,2.9279,2.9309,2.9256,2.9081,2.8992,2.9219,2.9309,2.9219,2.9219,2.9758,3.0103,3.0179,3.0642,3.1091,3.1122,3.1332,3.1423,3.1452,3.1336,3.119,3.0543,3.0271,2.9695,2.8514,2.7593,2.6738,2.5845,2.5726,2.5722,2.514,2.4647,2.4477,2.3746,2.2823,2.1721,2.038,1.9372,1.8667,1.8288,1.8154,1.8066,1.8027,1.7868,1.7694,2.3101,2.3101,2.3101,2.3101,2.3101,2.3101,2.3101,2.3101,2.3101,2.3101,2.3123,2.3123,2.3101,2.3234,2.3865,2.4146,2.4191,2.4535,2.5104,2.5828,2.6052,2.6553,2.7412,2.7035,2.6667,2.6524,2.6499,2.6281,2.5954,2.5904,2.5653,2.5184,2.5093,2.4816,2.4356,2.428,2.3998,2.3619,2.4209,2.4722,2.5132,2.5987,2.6749,2.7165,2.7446,2.7572,2.7525,2.6776,2.6333,2.6333,2.6333,2.6345,2.6375,2.6764,2.6973,2.7033,2.7303,2.7585,2.7585,2.758,2.7735,2.7884,2.7961,2.8124,2.8334,2.88,2.8949,2.9056,2.9309,2.9698,2.9877,2.9937,3.0013,3.0283,2.9817,2.9758,2.9877,3.0163,3.0223,3.0193,3.0522,3.0717,3.0883,3.1062,3.1481,3.1466,3.1234,3.1073,3.097,3.0733,3.0328,2.9857,2.9305,2.8721,2.8109,2.7515,2.7033,2.6434,2.598,2.5954,2.5669,2.5261,2.496,2.3576,2.2508,2.1503,2.0219,1.9284,1.8524,1.8374,1.8389,1.8461,1.8577,1.8621,1.8293,2.3101,2.3101,2.3101,2.3101,2.3101,2.3101,2.3101,2.3101,2.3101,2.3101,2.3101,2.3101,2.3101,2.3101,2.3256,2.3278,2.3147,2.328,2.3978,2.4973,2.576,2.6714,2.7544,2.7268,2.6891,2.6658,2.66,2.6524,2.6399,2.6399,2.6223,2.5703,2.5653,2.5385,2.4958,2.4842,2.4566,2.4198,2.4749,2.4939,2.4662,2.5855,2.6577,2.6686,2.731,2.7688,2.7663,2.7688,2.7645,2.7585,2.7435,2.7405,2.7525,2.7585,2.7525,2.7602,2.7645,2.7794,2.7735,2.7944,2.8124,2.859,2.8667,2.8876,2.9352,2.9518,2.9624,2.9638,2.9788,3.0013,3.0448,3.0582,3.0837,3.1182,3.0522,3.0163,3.0522,3.1076,3.1152,3.1301,3.1481,3.154,3.1511,3.1617,3.1455,3.1457,3.098,3.0599,3.043,3.0145,2.9339,2.8995,2.8877,2.8452,2.8072,2.761,2.7206,2.7161,2.6631,2.6361,2.6055,2.56,2.4835,2.3461,2.2188,2.1177,2.0243,1.9313,1.9033,1.9181,1.9213,1.9187,1.9086,1.905,1.8633,2.3101,2.3101,2.3101,2.3101,2.3101,2.3101,2.3101,2.3101,2.3101,2.3101,2.3101,2.3101,2.3101,2.3101,2.3101,2.3101,2.3101,2.3101,2.3714,2.4702,2.5038,2.5891,2.6743,2.6841,2.6883,2.7029,2.7102,2.6884,2.6524,2.6575,2.6449,2.6273,2.6248,2.5979,2.5485,2.541,2.5093,2.4778,2.5288,2.5612,2.558,2.6303,2.687,2.6971,2.7639,2.8057,2.8169,2.8745,2.8543,2.7675,2.7585,2.7585,2.7675,2.7675,2.7914,2.8261,2.8351,2.8573,2.8933,2.9022,2.9142,2.9279,2.9338,2.9428,2.9592,3.0027,3.0223,3.0342,3.0658,3.1032,3.1212,3.1286,3.1405,3.1421,3.1226,3.1046,3.1212,3.1375,3.1511,3.1511,3.1511,3.1974,3.2228,3.1955,3.1427,3.1562,3.1078,3.0431,3.0211,3.0025,2.9429,2.9308,2.9107,2.8656,2.819,2.7703,2.7508,2.7735,2.7401,2.6872,2.6314,2.5582,2.4534,2.324,2.203,2.0964,2.022,1.9391,1.9599,1.9867,1.9754,1.9603,1.9375,1.9231,1.8842,2.3101,2.3101,2.3101,2.3101,2.3101,2.3101,2.3101,2.3101,2.3101,2.3101,2.3101,2.3101,2.3101,2.3101,2.3101,2.3101,2.3101,2.3101,2.3454,2.393,2.4083,2.5133,2.6438,2.6833,2.7123,2.758,2.7645,2.7487,2.7236,2.716,2.706,2.6876,2.6851,2.6549,2.603,2.5979,2.5703,2.53,2.5569,2.5716,2.5531,2.6168,2.6462,2.6674,2.7342,2.7853,2.8311,2.9139,2.9189,2.859,2.8453,2.8453,2.8423,2.8453,2.8633,2.9009,2.9026,2.9205,2.9488,2.9608,2.9728,2.9907,2.9967,3.0147,3.0402,3.0747,3.0927,3.0987,3.154,3.1839,3.1974,3.2153,3.2333,3.2392,3.2333,3.2243,3.1959,3.2213,3.2019,3.1839,3.2004,3.2152,3.2447,3.1747,3.1568,3.1272,3.057,3.0208,2.9986,2.9844,2.9618,2.9353,2.9077,2.8623,2.8417,2.8048,2.7635,2.784,2.7619,2.7186,2.6166,2.5295,2.4172,2.2937,2.1834,2.089,2.0279,1.9902,2.0096,2.0232,2.0137,2.0079,1.9925,1.9829,1.9354,2.3101,2.3101,2.3101,2.3101,2.3101,2.3101,2.3101,2.3101,2.3101,2.3101,2.3101,2.3101,2.3101,2.3101,2.3101,2.3101,2.3101,2.3101,2.3123,2.3256,2.3432,2.4451,2.6476,2.6606,2.7109,2.7724,2.7989,2.7962,2.7892,2.7996,2.7814,2.7487,2.7386,2.7102,2.6675,2.6575,2.6256,2.5804,2.577,2.5676,2.5463,2.5852,2.6154,2.6296,2.6924,2.7701,2.8381,2.9084,2.9417,2.947,2.9504,2.9269,2.9326,2.9369,2.9554,2.9654,2.9698,2.9758,2.9847,2.9983,3.0073,3.0522,3.0612,3.0897,3.1361,3.157,3.166,3.1809,3.2273,3.2542,3.2662,3.3125,3.3275,3.3275,3.3425,3.3275,3.2976,3.3185,3.299,3.1871,3.2689,3.228,3.1615,3.1255,3.1615,3.1182,3.0432,2.9969,2.9761,2.9595,2.9314,2.8962,2.8746,2.8534,2.8435,2.8391,2.8009,2.7826,2.7521,2.6947,2.5618,2.465,2.3677,2.2664,2.1954,2.1268,2.0603,2.0468,2.0644,2.078,2.0779,2.0761,2.0723,2.0722,2.0448,2.3101,2.3101,2.3101,2.3101,2.3101,2.3101,2.3101,2.3101,2.3101,2.3101,2.3101,2.3101,2.3101,2.3101,2.3101,2.3101,2.3101,2.3101,2.3101,2.3101,2.3101,2.3868,2.5165,2.5393,2.6172,2.7174,2.7503,2.7751,2.8045,2.8222,2.8072,2.7953,2.7896,2.7663,2.7211,2.711,2.6859,2.6399,2.6323,2.6273,2.6147,2.6224,2.6341,2.6424,2.7125,2.7931,2.865,2.9034,2.9126,2.9023,2.8812,2.8669,2.8711,2.8696,2.9154,2.9901,3.0187,3.0438,3.0914,3.0844,3.1122,3.114,3.1201,3.1585,3.2183,3.2303,3.2542,3.2916,3.3215,3.3305,3.3395,3.3425,3.3634,3.3769,3.3976,3.414,3.4023,3.3693,3.3097,3.2513,3.2279,3.2155,3.1477,3.0824,3.0869,3.0829,3.044,2.9808,2.9574,2.9429,2.9271,2.9051,2.9076,2.8982,2.8925,2.8692,2.7994,2.7433,2.7027,2.6632,2.5303,2.4225,2.3335,2.2774,2.2332,2.165,2.0977,2.0996,2.1132,2.1281,2.1429,2.1359,2.1365,2.1444,2.1062,2.3101,2.3101,2.3101,2.3101,2.3101,2.3101,2.3101,2.3101,2.3101,2.3101,2.3101,2.3101,2.3101,2.3101,2.3101,2.3101,2.3101,2.3101,2.3101,2.3101,2.3123,2.343,2.3822,2.4296,2.5165,2.7324,2.8315,2.8645,2.8837,2.8787,2.88,2.8461,2.848,2.8197,2.7745,2.767,2.7519,2.7336,2.7236,2.7153,2.6927,2.6876,2.67,2.6704,2.7246,2.7983,2.832,2.8816,2.8721,2.8441,2.8161,2.8234,2.8551,2.8639,2.9078,2.9604,2.981,2.9925,3.0227,3.0388,3.0551,3.1322,3.1366,3.2034,3.2646,3.2976,3.3095,3.3455,3.3769,3.4069,3.4382,3.4442,3.4442,3.4377,3.4297,3.428,3.4188,3.3937,3.3547,3.2975,3.2608,3.183,3.1088,3.0569,3.0362,3.0451,3.0307,2.9757,2.9738,2.9611,2.9642,2.9578,2.9654,2.964,2.9518,2.8983,2.7917,2.7091,2.6214,2.5782,2.4968,2.3992,2.308,2.2689,2.2304,2.2004,2.1485,2.1561,2.1754,2.2081,2.2194,2.2,2.164,2.1195,2.0747,2.284,2.284,2.3016,2.3101,2.3101,2.3101,2.3101,2.3101,2.3101,2.3101,2.3101,2.3101,2.3101,2.3101,2.3101,2.3101,2.3101,2.3101,2.3101,2.3101,2.3101,2.3188,2.3321,2.38,2.483,2.7562,2.8016,2.8571,2.8934,2.9419,2.8911,2.8773,2.9013,2.8731,2.8329,2.8222,2.8122,2.7971,2.7921,2.7795,2.7487,2.7412,2.7211,2.7116,2.7413,2.7797,2.805,2.8382,2.8517,2.7833,2.7749,2.8166,2.8622,2.8807,2.8939,2.8991,2.9219,2.9406,2.9537,2.9525,3.0015,3.1073,3.1117,3.1717,3.2713,3.2965,3.3051,3.3365,3.3673,3.4126,3.4945,3.4613,3.4721,3.4701,3.4165,3.3859,3.3756,3.3705,3.3194,3.2968,3.2274,3.1485,3.0798,3.0233,3.0145,3.0024,2.9895,2.9779,2.9779,2.9779,2.9779,2.9779,2.9779,2.9779,2.9702,2.8692,2.7686,2.6192,2.5252,2.4999,2.4491,2.3772,2.2998,2.2614,2.227,2.2091,2.2051,2.2127,2.2399,2.2886,2.278,2.2382,2.1684,2.0884,2.0314,2.1614,2.168,2.2687,2.3101,2.3101,2.3101,2.3057,2.3101,2.3101,2.3101,2.3101,2.3101,2.3101,2.3101,2.3101,2.3101,2.3101,2.3101,2.3101,2.3101,2.3101,2.3101,2.3212,2.3779,2.4745,2.5147,2.5818,2.6337,2.7342,2.7864,2.8453,2.8459,2.9167,2.9283,2.8907,2.8756,2.858,2.8355,2.8298,2.8154,2.8021,2.7896,2.7846,2.7688,2.7888,2.7967,2.8007,2.8148,2.8173,2.8055,2.8037,2.8112,2.8228,2.8112,2.834,2.8849,2.922,2.934,2.94,2.9925,3.0289,3.0665,3.0715,3.1087,3.1786,3.2067,3.2472,3.2743,3.2923,3.3045,3.307,3.3359,3.3185,3.307,3.3045,3.2851,3.2727,3.2281,3.1829,3.1746,3.1407,3.1148,3.0507,3.0043,2.9966,2.9934,2.9856,2.9779,2.9779,2.9779,2.9779,2.9779,2.9779,2.9779,2.976,2.841,2.7096,2.5126,2.4188,2.4296,2.3867,2.3432,2.2947,2.2693,2.2674,2.2732,2.2713,2.2674,2.2771,2.3023,2.2831,2.2599,2.1701,2.0765,1.9697,2.0381,2.0449,2.1011,2.161,2.2098,2.2164,2.2536,2.3079,2.3101,2.3101,2.3101,2.3101,2.3101,2.3101,2.3101,2.3101,2.3101,2.3101,2.3101,2.3101,2.3101,2.3101,2.3101,2.3735,2.3865,2.3931,2.4016,2.4872,2.6461,2.7622,2.7964,2.8386,2.9248,2.9628,2.9453,2.9377,2.9227,2.895,2.8925,2.8781,2.8505,2.8298,2.8147,2.8122,2.8147,2.8122,2.8122,2.8122,2.8115,2.8115,2.8097,2.8122,2.8098,2.8071,2.811,2.8549,2.8863,2.8943,2.8952,2.9223,2.9548,3.0403,3.0482,3.105,3.1775,3.2242,3.2148,3.2412,3.2593,3.2593,3.2664,3.2522,3.2593,3.2504,3.2182,3.1893,3.1683,3.0988,3.0714,3.0589,3.0495,3.0381,3.0139,2.9837,2.9798,2.9779,2.9779,2.9779,2.9779,2.9779,2.9779,2.9643,2.9605,2.9546,2.917,2.7706,2.6357,2.4425,2.3408,2.3539,2.3495,2.3188,2.3101,2.3006,2.3081,2.3101,2.3042,2.2886,2.3023,2.3101,2.2955,2.2626,2.1607,2.0599,1.9464,1.9131,1.9177,1.9405,2.0184,2.1212,2.1306,2.2009,2.2928,2.3101,2.3101,2.3101,2.3101,2.3101,2.3101,2.3101,2.3101,2.3101,2.3101,2.3101,2.3101,2.3101,2.3101,2.3101,2.3101,2.319,2.3321,2.3278,2.4038,2.5378,2.6623,2.74,2.7907,2.885,2.9643,2.9671,2.9704,2.9779,2.9779,2.9779,2.9528,2.9082,2.8681,2.8448,2.8448,2.8448,2.8524,2.8599,2.8599,2.8599,2.8574,2.8549,2.8499,2.8448,2.8448,2.8448,2.8423,2.8348,2.8273,2.8353,2.8603,2.9306,3.0142,3.0286,3.0917,3.1432,3.162,3.1856,3.2046,3.1956,3.1847,3.1719,3.1938,3.1938,3.1792,3.1304,3.0902,3.0771,3.0419,3.0101,2.9953,2.9779,2.9779,2.9779,2.9779,2.9779,2.9779,2.9779,2.9779,2.9779,2.9779,2.9721,2.9507,2.9365,2.9229,2.843,2.6789,2.5399,2.38,2.3254,2.3278,2.3234,2.3123,2.3101,2.3101,2.3101,2.3101,2.3101,2.3101,2.3101,2.3101,2.3101,2.2397,2.1005,2.0012,1.9092,1.7917,1.7986,1.9016,2.0184,2.1123,2.115,2.1921,2.295,2.2994,2.3101,2.3101,2.3101,2.3101,2.3101,2.3101,2.3101,2.3101,2.3101,2.3101,2.3101,2.3101,2.3101,2.3101,2.3101,2.3101,2.3101,2.3101,2.3169,2.4081,2.4978,2.5901,2.683,2.7947,2.8787,2.974,2.9779,2.9779,2.9779,2.9779,2.9729,2.9654,2.9528,2.9522,2.9503,2.9478,2.9453,2.9377,2.9377,2.9402,2.9453,2.9503,2.9553,2.9623,2.9603,2.9603,2.9428,2.9157,2.8813,2.8881,2.9132,2.9441,2.9891,2.9904,2.9992,3.0362,3.0438,3.0438,3.0145,3.0254,3.0381,3.0476,3.0292,3.0196,3.0311,3.0324,3.012,2.9985,3.0196,2.9837,2.9779,2.9779,2.9779,2.9779,2.9779,2.9779,2.9779,2.9779,2.9779,2.9682,2.9585,2.9028,2.8633,2.8311,2.8191,2.7606,2.5985,2.4744,2.321,2.3164,2.3101,2.3101,2.3101,2.3101,2.3101,2.3101,2.3101,2.3101,2.3101,2.3101,2.2898,2.2606,2.1463,2.0042,1.9258,1.8543,1.6622,1.6669,1.7179,1.8118,1.92,1.9245,2.0359,2.1832,2.2098,2.247,2.3013,2.3101,2.3101,2.3101,2.3101,2.3101,2.3101,2.3101,2.3101,2.3101,2.3101,2.3101,2.3101,2.3101,2.3101,2.3101,2.3101,2.3101,2.3452,2.4232,2.5378,2.6481,2.7542,2.8727,2.9682,2.9779,2.9779,2.9779,2.9779,2.9779,2.9779,2.9779,2.9779,2.9779,2.9779,2.9779,2.9779,2.9779,2.9779,2.9779,2.9779,2.9779,2.9779,2.9779,2.9779,2.9754,2.9553,2.9408,2.9434,2.9679,2.9754,2.9779,2.9779,2.9837,2.9779,2.9779,2.9779,2.9818,2.9798,2.9779,2.9779,2.9779,2.9779,2.9779,2.9779,2.9779,2.9779,2.9779,2.9779,2.9779,2.9804,2.988,2.9955,2.998,2.993,2.9779,2.974,2.9702,2.9404,2.9028,2.8291,2.7342,2.7058,2.6833,2.6193,2.5126,2.4293,2.3203,2.3181,2.314,2.3101,2.3101,2.3181,2.314,2.3101,2.3101,2.3101,2.3059,2.3059,2.2561,2.1964,2.0668,1.9399,1.8574,1.7816,1.5808,1.5808,1.5808,1.6527,1.7676,1.7707,1.8925,2.0724,2.0836,2.1525,2.2492,2.2928,2.3101,2.3101,2.3101,2.3101,2.3101,2.3101,2.3101,2.3101,2.3101,2.3101,2.3101,2.3101,2.3101,2.3101,2.3101,2.3101,2.3343,2.3973,2.4957,2.6419,2.7136,2.845,2.9443,2.9779,2.9779,2.9779,2.9779,2.9779,2.9779,2.9779,2.9779,2.9779,2.9779,2.9779,2.9779,2.9779,2.9779,2.9779,2.9779,2.9779,2.9779,2.9779,2.9779,2.9779,2.9704,2.9704,2.9704,2.9779,2.9779,2.9779,2.9779,2.9779,2.9779,2.9779,2.9779,2.9779,2.9779,2.9779,2.9779,2.9779,2.9779,2.9779,2.9779,2.9779,2.9804,2.9854,2.988,2.9854,2.9955,3.0156,3.0206,3.0256,3.0131,2.9854,2.974,2.9674,2.9145,2.8535,2.747,2.6488,2.6196,2.58,2.4893,2.4164,2.3422,2.3354,2.3352,2.3413,2.351,2.3435,2.3396,2.3318,2.3218,2.3101,2.3101,2.3059,2.2909,2.1983,2.1015,1.9929,1.8863,1.7994,1.7232,1.5808,1.5808,1.5808,1.6518,1.7614,1.7707,1.8427,1.9637,1.9644,2.0343,2.1585,2.2422,2.2851,2.303,2.2964,2.2991,2.312,2.3101,2.3101,2.3101,2.3101,2.3101,2.3101,2.3101,2.3101,2.3101,2.3101,2.3101,2.3123,2.3278,2.4681,2.6254,2.6666,2.7988,2.915,2.9779,2.9779,2.9779,2.9779,2.9779,2.9779,2.9779,2.9779,2.9779,2.9779,2.9779,2.9779,2.9779,2.9779,2.9779,2.9779,2.9779,2.9779,2.9779,2.9779,2.9779,2.9779,2.9779,2.9779,2.9779,2.9779,2.9779,2.9779,2.9779,2.9779,2.9779,2.9779,2.9779,2.9779,2.9854,2.9829,2.9804,2.993,3.008,3.0156,3.0131,3.0105,3.0005,3.0005,2.9955,3.0156,3.0482,3.0658,3.0733,3.0608,3.0357,2.9682,2.9567,2.8631,2.7913,2.6709,2.5825,2.5508,2.487,2.3792,2.3411,2.385,2.3994,2.3997,2.4065,2.4176,2.4001,2.375,2.3669,2.361,2.3357,2.3101,2.3118,2.2665,2.122,1.9957,1.8652,1.7816,1.7079,1.6544,1.5808,1.5821,1.6019,1.6279,1.6541,1.6761,1.7508,1.8557,1.8822,1.9589,2.074,2.1078,2.1733,2.2336,2.2218,2.2622,2.3346,2.3198,2.3159,2.3101,2.3101,2.3101,2.3101,2.314,2.3101,2.3101,2.3101,2.3101,2.3101,2.3162,2.3973,2.5189,2.6178,2.7851,2.9091,2.974,2.9779,2.9779,2.9779,2.9779,2.9779,2.9779,2.9779,2.9779,2.9779,2.9779,2.9779,2.9779,2.9779,2.9779,2.9779,2.9779,2.9779,2.9779,2.9779,2.9779,2.9779,2.9779,2.9779,2.9779,2.9779,2.9779,2.9779,2.9779,2.9779,2.9804,2.9779,2.9779,2.9854,3.0005,3.0256,3.0331,3.0432,3.0583,3.0653,3.0557,3.0507,3.0432,3.0457,3.0532,3.0783,3.1085,3.1185,3.1281,3.1105,3.0869,3.0102,2.9275,2.8234,2.7337,2.6217,2.5289,2.4942,2.4806,2.385,2.4086,2.4565,2.4608,2.4581,2.4598,2.4617,2.4371,2.4137,2.4059,2.3997,2.3793,2.3579,2.3354,2.2473,2.1105,1.9094,1.7055,1.6431,1.6211,1.6136,1.5861,1.5979,1.6217,1.6152,1.6019,1.6273,1.6908,1.7619,1.789,1.8641,1.9853,2.0305,2.1238,2.2089,2.2511,2.2825,2.3712,2.3708,2.3571,2.3552,2.3571,2.3493,2.3493,2.3513,2.351,2.3335,2.3318,2.3337,2.3357,2.334,2.4228,2.5227,2.6042,2.7529,2.8811,2.9643,2.976,2.9779,2.9779,2.9779,2.9779,2.9779,2.9779,2.9779,2.9779,2.9779,2.9779,2.9779,2.9779,2.9779,2.9779,2.9779,2.9779,2.9779,2.9779,2.9779,2.9779,2.9779,2.9804,2.9779,2.9779,2.9779,2.9779,2.9779,2.9804,2.993,3.0105,3.0105,3.0206,3.0427,3.0823,3.0869,3.0899,3.1059,3.106,3.1004,3.1055,3.103,3.1105,3.1205,3.1436,3.1621,3.1452,3.1401,3.073,3.0507,3.0029,2.8862,2.7368,2.6548,2.5848,2.5009,2.4388,2.4326,2.4238,2.4535,2.482,2.5117,2.5106,2.5024,2.496,2.4715,2.4609,2.457,2.4442,2.4268,2.3875,2.3408,2.2304,2.1007,1.8801,1.65,1.6476,1.6421,1.6373,1.5992,1.6284,1.631,1.631,1.6351,1.658,1.6775,1.695,1.6979,1.7593,1.8844,2.0699,2.1936,2.2422,2.2959,2.3636,2.4244,2.4293,2.4238,2.4176,2.4118,2.4254,2.4254,2.4176,2.3981,2.3828,2.3789,2.3769,2.3769,2.3769,2.4621,2.543,2.6012,2.6865,2.8143,2.9209,2.9727,2.9765,2.9763,2.9643,2.988,2.9854,2.9779,2.9779,2.9779,2.9779,2.9779,2.9779,2.9779,2.9779,2.9779,2.9779,2.9779,2.9779,2.9779,2.9779,2.9779,2.9804,2.9829,2.9829,2.993,2.993,2.998,2.998,3.0005,3.0256,3.0563,3.0608,3.0904,3.1211,3.1357,3.1407,3.143,3.1589,3.1617,3.1633,3.1733,3.1738,3.1838,3.1426,3.1767,3.2068,3.1815,3.1417,3.0474,2.9997,2.9723,2.8604,2.6978,2.6096,2.5577,2.5242,2.4625,2.4687,2.4809,2.4834,2.5082,2.5439,2.5552,2.5387,2.5309,2.5187,2.5098,2.5039,2.4563,2.4065,2.3692,2.335,2.1701,1.9966,1.8297,1.665,1.6637,1.6545,1.6431,1.5981,1.631,1.6511,1.6698,1.6872,1.6979,1.7033,1.706,1.7246,1.7533,1.7916,1.8812,2.0255,2.1418,2.2236,2.3193,2.4668,2.4473,2.4414,2.4453,2.4492,2.4414,2.4453,2.4512,2.4375,2.4258,2.4199,2.4196,2.4196,2.4219,2.4353,2.4994,2.5867,2.6734,2.7508,2.821,2.838,2.9288,2.9197,2.9091,3.0113,2.9972,2.9732,2.9738,2.9757,2.9732,2.9732,2.9713,2.9779,2.9779,2.9779,2.9779,2.9804,2.9804,2.9829,2.9829,2.9829,2.998,3.0306,3.0557,3.0658,3.0507,3.0337,3.0482,3.0809,3.1004,3.111,3.116,3.1406,3.1648,3.1829,3.1905,3.2052,3.2499,3.2612,3.2612,3.2638,3.2616,3.2514,3.1674,3.1508,3.0915,3.0545,3.0506,2.9806,2.8984,2.8606,2.8361,2.7092,2.6227,2.563,2.5606,2.5347,2.5328,2.5356,2.5299,2.5283,2.5551,2.5654,2.5615,2.5557,2.5503,2.5339,2.515,2.4471,2.3797,2.3044,2.2111,2.0404,1.8705,1.7522,1.6853,1.6797,1.6567,1.6251,1.6152,1.6471,1.674,1.706,1.7301,1.7327,1.7327,1.738,1.7528,1.7608,1.7791,1.8391,1.9796,2.1445,2.2407,2.2997,2.523,2.5039,2.4859,2.4859,2.4859,2.4918,2.4898,2.4801,2.4844,2.4707,2.4648,2.4648,2.4648,2.4648,2.4812,2.5161,2.5568,2.621,2.6871,2.7283,2.788,2.8566,2.8389,2.8725,2.9466,2.9594,2.9278,2.9491,2.9553,2.9401,2.949,2.9632,2.9804,2.9785,2.9804,2.9804,2.9854,2.998,3.003,3.008,3.0306,3.0532,3.0909,3.1085,3.116,3.1235,3.1014,3.106,3.1361,3.1482,3.1607,3.1708,3.1834,3.2135,3.2416,3.2516,3.2692,3.314,3.3079,3.3054,3.2438,3.237,3.1843,3.107,3.0442,2.9806,2.9272,2.9195,2.8978,2.8187,2.7454,2.7311,2.7198,2.6452,2.5835,2.5815,2.5757,2.5659,2.5601,2.5586,2.5605,2.5679,2.5757,2.5835,2.5698,2.5596,2.5416,2.5113,2.4245,2.3284,2.2055,2.0775,1.9287,1.8306,1.7604,1.7132,1.7022,1.6778,1.6497,1.6458,1.6727,1.7072,1.7353,1.7568,1.7568,1.7595,1.7595,1.7608,1.7608,1.7726,2.0061,2.1094,2.2022,2.4116,2.5207,2.5548,2.5577,2.5562,2.5581,2.5464,2.5542,2.5562,2.5542,2.5308,2.5176,2.5121,2.5098,2.5102,2.5098,2.5269,2.5503,2.5657,2.5944,2.6279,2.676,2.7457,2.7789,2.7719,2.8278,2.9073,2.8579,2.8611,2.8855,2.8961,2.896,2.9127,2.9487,2.9806,2.9927,2.998,2.9949,3.0075,3.0382,3.0512,3.0738,3.1085,3.1311,3.1436,3.1537,3.1813,3.1989,3.1763,3.1562,3.1637,3.1984,3.216,3.234,3.2491,3.2839,3.3115,3.314,3.319,3.3208,3.3127,3.2619,3.1795,3.1258,3.0672,3.0033,2.9455,2.8887,2.8404,2.8258,2.8345,2.7758,2.7152,2.6943,2.6833,2.6605,2.6089,2.6069,2.5991,2.5854,2.5874,2.605,2.6089,2.6225,2.6069,2.6069,2.5913,2.5624,2.5213,2.4708,2.3863,2.2679,2.0887,1.9523,1.8351,1.7689,1.7715,1.749,1.7382,1.7329,1.7029,1.6471,1.6727,1.7046,1.7367,1.7582,1.7608,1.7608,1.7608,1.7608,1.7608,1.7687,1.8394,2.0076,2.1744,2.2542,2.4048,2.5118,2.5698,2.5698,2.5698,2.5698,2.5698,2.5698,2.5698,2.5601,2.5542,2.5508,2.5488,2.5484,2.5503,2.5503,2.5679,2.5698,2.5698,2.5842,2.6119,2.6806,2.7156,2.6913,2.7655,2.8297,2.7988,2.8096,2.8157,2.8196,2.8338,2.8988,2.9436,2.9915,3.0653,3.0844,3.0934,3.0979,3.1105,3.116,3.1235,3.1612,3.1989,3.2039,3.2365,3.2638,3.2717,3.2638,3.2663,3.2663,3.2638,3.2763,3.2893,3.3119,3.3391,3.3596,3.3671,3.3617,3.3496,3.3187,3.2397,3.1551,3.0695,3.0062,2.9087,2.8483,2.8191,2.7717,2.7708,2.7738,2.7266,2.6974,2.6877,2.6682,2.6557,2.6401,2.6381,2.6401,2.6367,2.6576,2.6771,2.6752,2.6713,2.6537,2.6315,2.6141,2.5737,2.5068,2.4022,2.2721,2.1044,1.9206,1.8279,1.8063,1.8291,1.8329,1.8023,1.7782,1.7729,1.6889,1.6645,1.6926,1.722,1.7448,1.7595,1.7608,1.7608,1.7608,1.7608,1.7608,1.7661,1.8277,1.9627,2.1541,2.2466,2.3732,2.5601,2.5698,2.5698,2.5698,2.5698,2.5698,2.5698,2.5698,2.5698,2.5698,2.5698,2.5659,2.5698,2.5698,2.5698,2.5698,2.5698,2.5698,2.5752,2.5834,2.6119,2.6374,2.6528,2.6968,2.7299,2.7462,2.7262,2.7517,2.7475,2.7878,2.8558,2.8966,3.0017,3.0766,3.0931,3.1406,3.1457,3.1537,3.1934,3.2039,3.2336,3.2562,3.2638,3.2839,3.304,3.3165,3.3273,3.3391,3.3266,3.3165,3.3266,3.337,3.3621,3.3872,3.4073,3.4182,3.402,3.3852,3.3046,3.2207,3.1308,3.0374,2.9348,2.8275,2.7748,2.7512,2.7355,2.7381,2.7524,2.7604,2.7689,2.7623,2.7331,2.7025,2.6894,2.6777,2.6855,2.6914,2.7168,2.7285,2.7174,2.7037,2.6881,2.6658,2.6409,2.5766,2.4969,2.3231,2.1291,1.9836,1.8618,1.8535,1.841,1.8639,1.8705,1.8411,1.8143,1.8116,1.6795,1.686,1.7166,1.7501,1.7595,1.7608,1.7608,1.7608,1.7608,1.7608,1.7608,1.7819,1.8812,1.9948,2.1228,2.2366,2.3757,2.5045,2.5479,2.5698,2.5698,2.5698,2.5698,2.5698,2.5698,2.5698,2.5698,2.5698,2.5698,2.5698,2.5698,2.5698,2.5698,2.5698,2.5698,2.5698,2.5698,2.5868,2.5906,2.6016,2.6291,2.6737,2.6583,2.6211,2.7052,2.6991,2.6836,2.7349,2.8277,2.9539,3.0028,3.0601,3.1323,3.1813,3.2039,3.2516,3.2763,3.2914,3.3065,3.3115,3.3266,3.3316,3.3448,3.3583,3.3493,3.3313,3.3258,3.3294,3.364,3.3898,3.3712,3.3747,3.3886,3.3847,3.3173,3.2289,3.1465,3.0603,2.9706,2.8864,2.803,2.7883,2.7637,2.7721,2.7819,2.7859,2.8112,2.8164,2.8118,2.7942,2.7559,2.7402,2.7226,2.7363,2.7461,2.7461,2.7545,2.7421,2.731,2.7065,2.6605,2.6053,2.5453,2.4837,2.2597,2.0283,1.957,1.872,1.8718,1.8744,1.8786,1.8799,1.8651,1.8529,1.8364,1.6782,1.674,1.686,1.7394,1.7608,1.7608,1.7608,1.7608,1.7608,1.7608,1.7608,1.7687,1.8042,1.8916,2.0333,2.1608,2.2943,2.4196,2.5118,2.5601,2.5698,2.5698,2.5698,2.5698,2.5698,2.5698,2.5698,2.5698,2.5698,2.5698,2.5698,2.5698,2.5698,2.5698,2.5698,2.5698,2.5698,2.5698,2.5698,2.5825,2.5898,2.619,2.6106,2.5945,2.6167,2.6008,2.6516,2.7045,2.7704,2.9285,3.049,3.093,3.1717,3.2628,3.2796,3.2943,3.309,3.3241,3.3376,3.3421,3.3479,3.3535,3.3541,3.3516,3.3131,3.2982,3.3033,3.3239,3.3682,3.3782,3.3482,3.3386,3.3506,3.3363,3.2439,3.1534,3.0701,2.9857,2.9099,2.8337,2.816,2.8061,2.8066,2.8125,2.8184,2.8262,2.8281,2.8262,2.8262,2.8242,2.8008,2.7949,2.7851,2.7969,2.8027,2.793,2.7688,2.7578,2.7182,2.6824,2.6305,2.5638,2.4122,2.2644,2.116,1.9472,1.9109,1.904,1.9174,1.9187,1.908,1.904,1.8986,1.8555,1.8297,1.6523,1.678,1.6979,1.7421,1.7608,1.7608,1.7608,1.7608,1.7608,1.7608,1.7608,1.7608,1.7687,1.833,1.9446,2.0461,2.1988,2.3409,2.4369,2.5118,2.5504,2.5577,2.5698,2.5698,2.5698,2.5698,2.5698,2.5698,2.5698,2.5737,2.5698,2.5698,2.5737,2.5737,2.5732,2.5737,2.5718,2.5737,2.5718,2.5893,2.5991,2.5971,2.5874,2.5737,2.5698,2.5864,2.6299,2.662,2.7173,2.8308,2.9897,3.0716,3.2443,3.3388,3.3847,3.3847,3.3847,3.3831,3.3679,3.3498,3.335,3.3288,3.3002,3.2795,3.2176,3.2125,3.2137,3.2089,3.2425,3.2411,3.2169,3.2592,3.2815,3.2246,3.1403,3.0837,3.0191,2.9408,2.8661,2.8311,2.8251,2.8184,2.8184,2.8223,2.8223,2.8301,2.8301,2.8301,2.8301,2.8301,2.822,2.8247,2.8121,2.8014,2.8174,2.8164,2.79,2.7637,2.7182,2.6427,2.5278,2.4083,2.2053,2.03,1.9766,1.9448,1.9377,1.9361,1.9401,1.9401,1.9267,1.9294,1.9334,1.8761,1.798,1.6274,1.6926,1.7247,1.7501,1.7608,1.7608,1.7608,1.7608,1.7608,1.7608,1.7608,1.7608,1.7608,1.8382,1.8994,1.9705,2.1355,2.2567,2.3135,2.4097,2.502,2.526,2.543,2.5601,2.5698,2.5698,2.5757,2.5815,2.5835,2.5874,2.5971,2.605,2.5893,2.5849,2.5869,2.5849,2.5893,2.5991,2.6108,2.6264,2.6445,2.6309,2.6108,2.603,2.5932,2.5874,2.5874,2.6289,2.6754,2.7478,2.8771,3.0418,3.2153,3.3423,3.3884,3.3979,3.3932,3.3862,3.339,3.2887,3.2536,3.2014,3.1527,3.1404,3.1285,3.1249,3.1043,3.0983,3.0965,3.0948,3.1166,3.1604,3.1781,3.1111,3.0458,3.001,2.9717,2.8973,2.8374,2.8347,2.832,2.832,2.832,2.832,2.832,2.832,2.832,2.8293,2.8301,2.8247,2.8121,2.804,2.7699,2.7384,2.7645,2.8121,2.7573,2.7066,2.6109,2.5145,2.3932,2.2595,2.0945,1.9895,1.9649,1.9417,1.9415,1.9401,1.9401,1.9401,1.9428,1.9401,1.9253,1.8217,1.7291,1.5965,1.7046,1.7528,1.7569,1.7608,1.7608,1.7608,1.7608,1.7608,1.7608,1.7608,1.7608,1.7608,1.7832,1.8068,1.9202,2.0333,2.0871,2.1634,2.286,2.3899,2.4048,2.4732,2.5254,2.5263,2.5596,2.5874,2.6113,2.625,2.6264,2.6518,2.6713,2.668,2.6699,2.6693,2.6719,2.6699,2.6641,2.668,2.6713,2.6894,2.6914,2.6797,2.6797,2.6752,2.6752,2.6752,2.6878,2.696,2.7672,2.8761,3.0049,3.1641,3.27,3.3287,3.3287,3.3335,3.3311,3.2699,3.2097,3.1776,3.1229,3.1218,3.1005,3.041,3.0139,2.9538,2.9501,2.9501,2.9571,2.9833,3.0203,3.054,3.0146,2.9442,2.8874,2.8913,2.8579,2.8464,2.8484,2.8437,2.8437,2.8418,2.8418,2.8437,2.8476,2.8396,2.8207,2.818,2.8029,2.7933,2.7722,2.72,2.6628,2.7384,2.796,2.6672,2.5899,2.4941,2.3828,2.2488,2.1264,2.0183,1.9415,1.9562,1.9508,1.9481,1.9455,1.9522,1.9481,1.9508,1.9428,1.9076,1.7935,1.6445,1.4962]},{"header":{"parameterUnit":"m.s-1","parameterCategory":1,"la1":31.0,"la2":29.5877,"lo1":-88.7671,"lo2":-86.6584,"dy":0.0162,"dx":0.0185,"nx":115,"ny":88,"refTime":"2026-04-10T00:00:00:Z","depth":0,"parameterNumber":3,"parameterNumberName":"V-component_of_WINDS"},"data":[0.0,0.0,0.0,0.0,0.0,0.0,0.0,0.0,0.0,0.0,0.0,0.0,0.0,0.0,0.0,0.0,0.0,0.0,0.0,0.0,0.0,0.0,0.0,0.0,0.0,0.0,0.0,0.0,0.0,0.0,0.0,0.0,0.0,0.0,0.0,0.0,0.0,0.0,0.0,0.0,0.0,0.0,0.0,0.0,0.0,0.0,0.0,0.0,0.0,0.0,0.0,0.0,0.0,0.0,0.0,0.0,0.0,0.0,0.0,0.0,0.0,0.0,0.0,0.0,0.0,0.0,0.0,0.0,0.0,0.0,0.0,0.0,0.0,0.0,0.0,0.0,0.0,0.0,0.0,0.0,0.0,0.0,0.0,0.0,0.0,0.0,0.0,0.0,0.0,0.0,0.0,0.0,0.0,0.0,0.0,0.0,0.0,0.0,0.0,0.0,0.0,0.0,0.0,0.0,0.0,0.0,0.0,0.0,0.0,0.0,0.0,0.0,0.0,0.0,0.0,0.0,0.0,0.0,0.0,0.0,0.0,0.0,0.0,0.0,0.0,0.0,0.0,0.0,0.0,0.0,0.0,0.0,0.0,0.0,0.0,0.0,0.0,0.0,0.0,0.0,0.0,0.0,0.0,0.0,0.0,0.0,0.0,0.0,0.0,0.0,0.0,0.0,0.0,0.0,0.0,0.0,0.0,0.0,0.0,0.0,0.0,0.0,0.0,0.0,0.0,0.0,0.0,0.0,0.0,0.0,0.0,0.0,0.0,0.0,0.0,0.0,0.0,0.0,0.0,0.0,0.0,0.0,0.0,0.0,0.0,0.0,0.0,0.0,0.0,0.0,0.0,0.0,0.0,0.0,0.0,0.0,0.0,0.0,0.0,0.0,0.0,0.0,0.0,0.0,0.0,0.0,0.0,0.0,0.0,0.0,0.0,0.0,0.0,0.0,0.0,0.0,0.0,0.0,0.0,0.0,0.0,0.0,0.0,0.0,0.0,0.0,0.0,0.0,0.0,0.0,0.0,0.0,0.0,0.0,0.0,0.0,0.0,0.0,0.0,0.0,0.0,0.0,0.0,0.0,0.0,0.0,0.0,0.0,0.0,0.0,0.0,0.0,0.0,0.0,0.0,0.0,0.0,0.0,0.0,0.0,0.0,0.0,0.0,0.0,0.0,0.0,0.0,0.0,0.0,0.0,0.0,0.0,0.0,0.0,0.0,0.0,0.0,0.0,0.0,0.0,0.0,0.0,0.0,0.0,0.0,0.0,0.0,0.0,0.0,0.0,0.0,0.0,0.0,0.0,0.0,0.0,0.0,0.0,0.0,0.0,0.0,0.0,0.0,0.0,0.0,0.0,0.0,0.0,0.0,0.0,0.0,0.0,0.0,0.0,0.0,0.0,0.0,0.0,0.0,0.0,0.0,0.0,0.0,0.0,0.0,0.0,0.0,0.0,0.0,0.0,0.0,0.0,0.0,0.0,0.0,0.0,0.0,0.0,0.0,0.0,0.0,0.0,0.0,0.0,0.0,0.0,0.0,0.0,0.0,0.0,0.0,0.0,0.0,0.0,0.0,0.0,0.0,0.0,0.0,0.0,0.0,0.0,0.0,0.0,0.0,0.0,0.0,0.0,0.0,0.0,0.0,0.0,0.0,0.0,0.0,0.0,0.0,0.0,0.0,0.0,0.0,0.0,0.0,0.0,0.0,0.0,0.0,0.0,0.0,0.0,0.0,0.0,0.0,0.0,0.0,0.0,0.0,0.0,0.0,0.0,0.0,0.0,0.0,0.0,0.0,0.0,0.0,0.0,0.0,0.0,0.0,0.0,0.0,0.0,0.0,0.0,0.0,0.0,0.0,0.0,0.0,0.0,0.0,0.0,0.0,0.0,0.0,0.0,0.0,0.0,0.0,0.0,0.0,0.0,0.0,0.0,0.0,0.0,0.0,0.0,0.0,0.0,0.0,0.0,0.0,0.0,0.0,0.0,0.0,0.0,0.0,0.0,0.0,0.0,0.0,0.0,0.0,0.0,0.0,0.0,0.0,0.0,0.0,0.0,0.0,0.0,0.0,0.0,0.0,0.0,0.0,0.0,0.0,0.0,0.0,0.0,0.0,0.0,0.0,0.0,0.0,0.0,0.0,0.0,0.0,0.0,0.0,0.0,0.0,0.0,0.0,0.0,0.0,0.0,0.0,0.0,0.0,0.0,0.0,0.0,0.0,0.0,0.0,0.0,0.0,0.0,0.0,0.0,0.0,0.0,0.0,0.0,0.0,0.0,0.0,0.0,0.0,0.0,0.0,0.0,0.0,0.0,0.0,0.0,0.0,0.0,0.0,0.0,0.0,0.0,0.0,0.0,0.0,0.0,0.0,0.0,0.0,0.0,0.0,0.0,0.0,0.0,0.0,0.0,0.0,0.0,0.0,0.0,0.0,0.0,0.0,0.0,0.0,0.0,0.0,0.0,0.0,0.0,0.0,0.0,0.0,0.0,0.0,0.0,0.0,0.0,0.0,0.0,0.0,0.0,0.0,0.0,0.0,0.0,0.0,0.0,0.0,0.0,0.0,0.0,0.0,0.0,0.0,0.0,0.0,0.0,0.0,0.0,0.0,0.0,0.0,0.0,0.0,0.0,0.0,0.0,0.0,0.0,0.0,0.0,0.0,0.0,0.0,0.0,0.0,0.0,0.0,0.0,0.0,0.0,0.0,0.0,0.0,0.0,0.0,0.0,0.0,0.0,0.0,0.0,0.0,0.0,0.0,0.0,0.0,0.0,0.0,0.0,0.0,0.0,0.0,0.0,0.0,0.0,0.0,0.0,0.0,0.0,0.0,0.0,0.0,0.0,0.0,0.0,0.0,0.0,0.0,0.0,0.0,0.0,0.0,0.0,0.0,0.0,0.0,0.0,0.0,0.0,0.0,0.0,0.0,0.0,0.0,0.0,0.0,0.0,0.0,0.0,0.0,0.0,0.0,0.0,0.0,0.0,0.0,0.0,0.0,0.0,0.0,0.0,0.0,0.0,0.0,0.0,0.0,0.0,0.0,0.0,0.0,0.0,0.0,0.0,0.0,0.0,0.0,0.0,0.0,0.0,0.0,0.0,0.0,0.0,0.0,0.0,0.0,0.0,0.0,0.0,0.0,0.0,0.0,0.0,0.0,0.0,0.0,0.0,0.0,0.0,0.0,0.0,0.0,0.0,0.0,0.0,0.0,0.0,0.0,0.0,0.0,0.0,0.0,0.0,0.0,0.0,0.0,0.0,0.0,0.0,0.0,0.0,0.0,0.0,0.0,0.0,0.0,0.0,0.0,0.0,0.0,0.0,0.0,0.0,0.0,0.0,0.0,0.0,0.0,0.0,0.0,0.0,0.0,0.0,0.0,0.0,0.0,0.0,0.0,0.0,0.0,0.0,0.0,0.0,0.0,0.0,0.0,0.0,0.0,0.0,0.0,0.0,0.0,0.0,0.0,0.0,0.0,0.0,0.0,0.0,0.0,0.0,0.0,0.0,0.0,0.0,0.0,0.0,0.0,0.0,0.0,0.0,0.0,0.0,0.0,0.0,0.0,0.0,0.0,0.0,0.0,0.0,0.0,0.0,0.0,0.0,0.0,0.0,0.0,0.0,0.0,0.0,0.0,0.0,0.0,0.0,0.0,0.0,0.0,0.0,0.0,0.0,0.0,0.0,0.0,0.0,0.0,0.0,0.0,0.0,0.0,0.0,0.0,0.0,0.0,0.0,0.0,0.0,0.0,0.0,0.0,0.0,0.0,0.0,0.0,0.0,0.0,0.0,0.0,0.0,0.0,0.0,0.0,0.0,0.0,0.0,0.0,0.0,0.0,0.0,0.0,0.0,0.0,0.0,0.0,0.0,0.0,0.0,0.0,0.0,0.0,0.0,0.0,0.0,0.0,0.0,0.0,0.0,0.0,0.0,0.0,0.0,0.0,0.0,0.0,0.0,0.0,0.0,0.0,0.0,0.0,0.0,0.0,0.0,0.0,0.0,0.0,0.0,0.0,0.0,0.0,0.0,0.0,0.0,0.0,0.0,0.0,0.0,0.0,0.0,0.0,0.0,0.0,0.0,0.0,0.0,0.0,0.0,0.0,0.0,0.0,0.0,0.0,0.0,0.0,0.0,0.0,0.0,0.0,0.0,0.0,0.0,0.0,0.0,0.0,0.0,0.0,0.0,0.0,0.0,0.0,0.0,0.0,0.0,0.0,0.0,0.0,0.0,0.0,0.0,0.0,0.0,0.0,0.0,0.0,0.0,0.0,0.0,0.4285,0.0,0.0,0.0,0.0,0.0,0.0,0.0,0.0,0.0,0.0,0.0,0.0,0.0,0.0,0.0,0.0,0.0,0.0,0.0,0.0,0.0,0.0,0.0,0.0,0.0,0.0,0.0,0.0,0.0,0.0,0.0,0.0,0.0,0.0,0.0,0.0,0.0,0.0,0.0,0.0,0.0,0.0,0.0,0.0,0.0,0.0,0.0,0.0,0.0,0.0,0.0,0.0,0.0,0.0,0.0,0.0,0.0,0.0,0.0,0.0,0.0,0.0,0.0,0.0,0.0,0.0,0.0,0.0,0.0,0.0,0.0,0.0,0.0,0.0,0.0,0.0,0.0,0.0,0.0,0.0,0.0,0.0,0.0,0.0,0.0,0.0,0.0,0.0,0.0,0.0,0.0,0.0,0.0,0.0,0.0,0.0,0.0,0.0,0.0,0.0,0.0,0.0,0.0,0.0,0.0,0.0,0.0,0.0,0.0,0.0,0.3506,0.3506,0.3622,0.388,0.428,0.0,0.0,0.0,0.0,0.0,0.0,0.0,0.0,0.0,0.0,0.0,0.0,0.0,0.0,0.0,0.0,0.0,0.0,0.0,0.0,0.0,0.0,0.0,0.0,0.0,0.0,0.0,0.0,0.0,0.0,0.0,0.0,0.0,0.0,0.0,0.0,0.0,0.0,0.0,0.0,0.0,0.0,0.0,0.0,0.0,0.0,0.0,0.0,0.0,0.0,0.0,0.0,0.0,0.0,0.0,0.0,0.0,0.0,0.0,0.0,0.0,0.0,0.0,0.0,0.0,0.0,0.0,0.0,0.0,0.0,0.0,0.0,0.0,0.0,0.0,0.0,0.0,0.0,0.0,0.0,0.0,0.0,0.0,0.0,0.0,0.0,0.0,0.0,0.0,0.0,0.0,0.0,0.0,0.0,0.0,0.0,0.0,0.0,0.0,0.0,0.0,0.0,0.0,0.0,0.0,0.0,0.0,0.0,0.0,0.0,0.0,0.0,0.3675,0.396,0.4494,0.0,0.0,0.0,0.0,0.0,0.0,0.0,0.0,0.0,0.0,0.0,0.0,0.0,0.0,0.0,0.0,0.0,0.0,0.0,0.0,0.0,0.0,0.0,0.0,0.0,0.0,0.0,0.0,0.0,0.0,0.0,0.0,0.0,0.0,0.0,0.0,0.0,0.0,0.0,0.0,0.0,0.0,0.0,0.0,0.0,0.0,0.0,0.0,0.0,0.0,0.0,0.0,0.0,0.0,0.0,0.0,0.0,0.0,0.0,0.0,0.0,0.0,0.0,0.0,0.0,0.0,0.0,0.0,0.0,0.0,0.0,0.0,0.0,0.0,0.0,0.0,0.0,0.0,0.0,0.0,0.0,0.0,0.0,0.0,0.0,0.0,0.0,0.0,0.0,0.0,0.0,0.0,0.0,0.0,0.0,0.0,0.0,0.0,0.0,0.0,0.0,0.0,0.0,0.0,0.0,0.0,0.0,0.0,0.0,0.0,0.365,0.394,0.4177,0.0,0.5078,0.0,0.0,0.0,0.0,0.0,0.0,0.0,0.0,0.0,0.0,0.0,0.0,0.0,0.0,0.0,0.0,0.0,0.0,0.0,0.0,0.0,0.0,0.0,0.0,0.0,0.0,0.0,0.0,0.0,0.0,0.0,0.0,0.0,0.0,0.0,0.0,0.0,0.0,0.0,0.0,0.0,0.0,0.0,0.0,0.0,0.0,0.0,0.0,0.0,0.0,0.0,0.0,0.0,0.0,0.0,0.0,0.0,0.0,0.0,0.0,0.0,0.0,0.0,0.0,0.0,0.0,0.0,0.0,0.0,0.0,0.0,0.0,0.0,0.0,0.0,0.0,0.0,0.0,0.0,0.0,0.0,0.0,0.0,0.0,0.0,0.0,0.0,0.0,0.0,0.0,0.0,0.0,0.0,0.0,0.0,0.0,0.0,0.0,0.0,0.0,0.0,0.0,0.0,0.0,0.0,0.0,0.0,0.0,0.0,0.0,0.0,0.3998,0.4413,0.4749,0.0,0.0,0.0,0.0,0.0,0.0,0.0,0.0,0.0,0.0,0.0,0.0,0.0,0.0,0.0,0.0,0.0,0.0,0.0,0.0,0.0,0.0,0.0,0.0,0.0,0.0,0.0,0.0,0.0,0.0,0.0,0.0,0.0,0.0,0.0,0.0,0.0,0.0,0.0,0.0,0.0,0.0,0.0,0.0,0.0,0.0,0.0,0.0,0.0,0.0,0.0,0.0,0.0,0.0,0.0,0.0,0.0,0.0,0.0,0.0,0.0,0.0,0.0,0.0,0.0,0.0,0.0,0.0,0.0,0.0,0.0,0.0,0.0,0.0,0.0,0.0,0.0,0.0,0.0,0.0,0.0,0.0,0.0,0.0,0.0,0.0,0.0,0.0,0.0,0.0,0.0,0.0,0.0,0.0,0.0,0.0,0.0,0.0,0.0,0.0,0.0,0.0,0.0,0.0,0.0,0.0,0.0,0.0,0.0,0.0,0.3878,0.0,0.4111,0.4466,0.4704,0.479,0.0,0.0,0.0,0.0,0.0,0.0,0.0,0.0,0.0,0.0,0.0,0.0,0.0,0.0,0.0,0.0,0.0,0.0,0.0,0.0,0.0,0.0,0.0,0.0,0.0,0.0,0.0,0.0,0.0,0.0,0.0,0.0,0.0,0.0,0.0,0.0,0.0,0.0,0.0,0.0,0.0,0.0,0.0,0.0,0.0,0.0,0.0,0.0,0.0,0.0,0.0,0.0,0.0,0.0,0.0,0.0,0.0,0.0,0.0,0.0,0.0,0.0,0.0,0.0,0.0,0.0,0.0,0.0,0.0,0.0,0.0,0.0,0.0,0.0,0.0,0.0,0.0,0.0,0.0,0.0,0.0,0.0,0.0,0.0,0.0,0.0,0.0,0.0,0.0,0.0,0.0,0.0,0.0,0.0,0.0,0.0,0.0,0.0,0.0,0.0,0.0,0.0,0.0,0.0,0.0,0.0,0.0,0.0,0.0,0.3985,0.4114,0.4368,0.4332,0.4476,0.0,0.0,0.0,0.0,0.0,0.0,0.0,0.0,0.0,0.0,0.0,0.0,0.0,0.0,0.0,0.0,0.0,0.0,0.0,0.0,0.0,0.0,0.0,0.0,0.0,0.0,0.0,0.0,0.0,0.0,0.0,0.0,0.0,0.0,0.0,0.0,0.0,0.0,0.0,0.0,0.0,0.0,0.0,0.0,0.0,0.0,0.0,0.0,0.0,0.0,0.0,0.0,0.0,0.0,0.0,0.0,0.0,0.0,0.0,0.0,0.0,0.0,0.0,0.0,0.0,0.0,0.0,0.0,0.0,0.0,0.0,0.0,0.0,0.0,0.0,0.0,0.0,0.0,0.0,0.0,0.0,0.0,0.0,0.0,0.0,0.0,0.0,0.0,0.0,0.0,0.0,0.0,0.0,0.0,0.0,0.0,0.0,0.0,0.0,0.0,0.0,0.0,0.0,0.0,0.0,0.0,0.0,0.0,0.0,0.3418,0.381,0.42,0.463,0.4628,0.4749,0.0,0.0,0.0,0.0,0.0,0.0,0.0,0.0,0.0,0.0,0.0,0.0,0.0,0.0,0.0,0.0,0.0,0.0,0.0,0.0,0.0,0.0,0.0,0.0,0.0,0.0,0.0,0.0,0.0,0.0,0.0,0.0,0.0,0.0,0.0,0.0,0.0,0.0,0.0,0.0,0.0,0.0,0.0,0.0,0.0,0.0,0.0,0.0,0.0,0.0,0.0,0.0,0.0,0.0,0.0,0.0,0.0,0.0,0.0,0.0,0.0,0.0,0.0,0.0,0.0,0.0,0.0,0.0,0.0,0.0,0.0,0.0,0.0,0.0,0.0,0.0,0.0,0.0,0.0,0.0,0.0,0.0,0.0,0.0,0.0,0.0,0.0,0.0,0.0,0.0,0.0,0.0,0.0,0.0,0.0,0.0,0.0,0.0,0.0,0.0,0.0,0.0,0.0,0.0,0.0,0.0,0.0,0.0,0.0,0.3382,0.0,0.4423,0.0,0.4794,0.4871,0.0,0.0,0.0,0.0,0.0,0.0,0.0,0.0,0.0,0.0,0.0,0.0,0.0,0.0,0.0,0.0,0.0,0.0,0.0,0.0,0.0,0.0,0.0,0.0,0.0,0.0,0.0,0.0,0.0,0.0,0.0,0.0,0.0,0.0,0.0,0.0,0.0,0.0,0.0,0.0,0.0,0.0,0.0,0.0,0.0,0.0,0.0,0.0,0.0,0.0,0.0,0.0,0.0,0.0,0.0,0.0,0.0,0.0,0.0,0.0,0.0,0.0,0.0,0.0,0.0,0.0,0.0,0.0,0.0,0.0,0.0,0.0,0.0,0.0,0.0,0.0,0.0,0.0,0.0,0.0,0.0,0.0,0.0,0.0,0.0,0.0,0.0,0.0,0.0,0.0,0.0,0.0,0.0,0.0,0.0,0.0,0.0,0.0,0.0,0.0,0.0,0.0,0.0,0.0,0.0,0.0,0.0,0.0,0.0,0.3948,0.4489,0.4761,0.4801,0.479,0.4771,0.0,0.0,0.0,0.0,0.0,0.0,0.0,0.0,0.0,0.0,0.0,0.0,0.0,0.0,0.0,0.0,0.0,0.0,0.0,0.0,0.0,0.0,0.0,0.0,0.0,0.0,0.0,0.0,0.0,0.0,0.0,0.0,0.0,0.0,0.0,0.0,0.0,0.0,0.0,0.0,0.0,0.0,0.0,0.0,0.0,0.0,0.0,0.0,0.0,0.0,0.0,0.0,0.0,0.0,0.0,0.0,0.0,0.0,0.0,0.0,0.0,0.0,0.0,0.0,0.0,0.0,0.0,0.0,0.0,0.0,0.0,0.0,0.0,0.0,0.0,0.0,0.0,0.0,0.0,0.0,0.0,0.0,0.0,0.0,0.0,0.0,0.0,0.0,0.0,0.0,0.0,0.0,0.0,0.0,0.0,0.0,0.0,0.0,0.0,0.0,0.0,0.0,0.0,0.0,0.0,0.0,0.0,0.0,0.0,0.3644,0.4044,0.457,0.5167,0.4713,0.4779,0.0,0.0,0.0,0.0,0.0,0.0,0.0,0.0,0.0,0.0,0.0,0.0,0.0,0.0,0.0,0.0,0.0,0.0,0.0,0.0,0.0,0.0,0.0,0.0,0.0,0.0,0.0,0.0,0.0,0.0,0.0,0.0,0.0,0.0,0.0,0.0,0.0,0.0,0.0,0.0,0.0,0.0,0.0,0.0,0.0,0.0,0.0,0.0,0.0,0.0,0.0,0.0,0.0,0.0,0.0,0.0,0.0,0.0,0.0,0.0,0.0,0.0,0.0,0.0,0.0,0.0,0.0,0.0,0.0,0.0,0.0,0.0,0.0,0.0,0.0,0.0,0.0,0.0,0.0,0.0,0.0,0.0,0.0,0.0,0.0,0.0,0.0,0.0,0.0,0.0,0.0,0.0,0.0,0.0,0.0,0.0,0.0,0.0,0.0,0.0,0.0,0.0,0.0,0.0,0.0,0.0,0.0,0.0,0.0,0.3981,0.4302,0.4842,0.5573,0.497,0.4999,0.5751,0.0,0.0,0.0,0.0,0.0,0.0,0.0,0.0,0.0,0.0,0.0,0.0,0.0,0.0,0.0,0.0,0.0,0.0,0.0,0.0,0.0,0.0,0.0,0.0,0.0,0.0,0.0,0.0,0.0,0.0,0.0,0.0,0.0,0.0,0.0,0.0,0.0,0.0,0.0,0.0,0.0,0.0,0.0,0.0,0.0,0.0,0.0,0.0,0.0,0.0,0.0,0.0,0.0,0.0,0.0,0.0,0.0,0.0,0.0,0.0,0.0,0.0,0.0,0.0,0.0,0.0,0.0,0.0,0.0,0.0,0.0,0.0,0.0,0.0,0.0,0.0,0.0,0.0,0.0,0.0,0.0,0.0,0.0,0.0,0.0,0.0,0.0,0.0,0.0,0.0,0.0,0.0,0.0,0.0,0.0,0.0,0.0,0.0,0.0,0.0,0.0,0.0,0.0,0.0,0.0,0.0,0.0,0.0,0.4767,0.514,0.5533,0.5941,0.5478,0.5409,0.0,0.0,0.0,0.0,0.0,0.0,0.0,0.0,0.0,0.0,0.0,0.0,0.0,0.0,0.0,0.0,0.0,0.0,0.0,0.0,0.0,0.0,0.0,0.0,0.0,0.0,0.0,0.0,0.0,0.0,0.0,0.0,0.0,0.0,0.0,0.0,0.0,0.0,0.0,0.0,0.0,0.0,0.0,0.0,0.0,0.0,0.0,0.0,0.0,0.0,0.0,0.0,0.0,0.0,0.0,0.0,0.0,0.0,0.0,0.0,0.0,0.0,0.0,0.0,0.0,0.0,0.0,0.0,0.0,0.0,0.0,0.0,0.0,0.0,0.0,0.0,0.0,0.0,0.0,0.0,0.0,0.0,0.0,0.0,0.0,0.0,0.0,0.0,0.0,0.0,0.0,0.0,0.0,0.0,0.0,0.0,0.0,0.0,0.0,0.0,0.0,0.0,0.0,0.0,0.0,0.0,0.0,0.0,0.0,0.4516,0.545,0.6176,0.6585,0.5705,0.5534,0.0,0.0,0.0,0.0,0.0,0.0,0.0,0.0,0.0,0.0,0.0,0.0,0.0,0.0,0.0,0.0,0.0,0.0,0.0,0.0,0.0,0.0,0.0,0.0,0.0,0.0,0.0,0.0,0.0,0.0,0.0,0.0,0.0,0.0,0.0,0.0,0.0,0.0,0.0,0.0,0.0,0.0,0.0,0.0,0.0,0.0,0.0,0.0,0.0,0.0,0.0,0.0,0.0,0.0,0.0,0.0,0.0,0.0,0.0,0.0,0.0,0.0,0.0,0.0,0.0,0.0,0.0,0.0,0.0,0.0,0.0,0.0,0.0,0.0,0.0,0.0,0.0,0.0,0.0,0.0,0.0,0.0,0.0,0.0,0.0,0.0,0.0,0.0,0.0,0.0,0.0,0.0,0.0,0.0,0.0,0.0,0.0,0.0,0.0,0.0,0.0,0.0,0.0,0.0,0.0,0.0,0.0,0.0,0.4604,0.5158,0.6077,0.681,0.7354,0.6424,0.6072,0.0,0.0,0.0,0.0,0.0,0.0,0.0,0.0,0.0,0.0,0.0,0.0,0.0,0.0,0.0,0.0,0.0,0.0,0.0,0.0,0.0,0.0,0.0,0.0,0.0,0.0,0.0,0.0,0.0,0.0,0.0,0.0,0.0,0.0,0.0,0.0,0.0,0.0,0.0,0.0,0.0,0.0,0.0,0.0,0.0,0.0,0.0,0.0,0.0,0.0,0.0,0.0,0.0,0.0,0.0,0.0,0.0,0.0,0.0,0.0,0.0,0.0,0.0,0.0,0.0,0.0,0.0,0.0,0.0,0.0,0.0,0.0,0.0,0.0,0.0,0.0,0.0,0.0,0.0,0.0,0.0,0.0,0.0,0.0,0.0,0.0,0.0,0.0,0.0,0.0,0.0,0.0,0.0,0.0,0.0,0.0,0.0,0.0,0.0,0.0,0.0,0.0,0.0,0.0,0.0,0.0,0.0,0.0,0.5299,0.6173,0.672,0.7332,0.7941,0.7273,0.6775,0.0,0.0,0.0,0.0,0.0,0.0,0.0,0.0,0.0,0.0,0.0,0.0,0.0,0.0,0.0,0.0,0.0,0.0,0.0,0.0,0.0,0.0,0.0,0.0,0.0,0.0,0.0,0.0,0.0,0.0,0.0,0.0,0.0,0.0,0.0,0.0,0.0,0.0,0.0,0.0,0.0,0.0,0.0,0.0,0.0,0.0,0.0,0.0,0.0,0.0,0.0,0.0,0.0,0.0,0.0,0.0,0.0,0.0,0.0,0.0,0.0,0.0,0.0,0.0,0.0,0.0,0.0,0.0,0.0,0.0,0.0,0.0,0.0,0.0,0.0,0.0,0.0,0.0,0.0,0.0,0.0,0.0,0.0,0.0,0.0,0.0,0.0,0.0,0.0,0.0,0.0,0.0,0.0,0.0,0.0,0.0,0.0,0.0,0.0,0.0,0.0,0.0,0.0,0.0,0.0,0.0,0.0,0.0,0.5515,0.6205,0.672,0.7332,0.7977,0.7186,0.6959,0.0,0.0,0.0,0.0,0.0,0.0,0.0,0.0,0.0,0.0,0.0,0.0,0.0,0.0,0.0,0.0,0.0,0.0,0.0,0.0,0.0,0.0,0.0,0.0,0.0,0.0,0.0,0.0,0.0,0.0,0.0,0.0,0.0,0.0,0.0,0.0,0.0,0.0,0.0,0.0,0.0,0.0,0.0,0.0,0.0,0.0,0.0,0.0,0.4581,0.0,0.0,0.0,0.0,0.0,0.0,0.0,0.0,0.0,0.0,0.0,0.0,0.0,0.0,0.0,0.0,0.0,0.0,0.0,0.0,0.0,0.0,0.0,0.0,0.0,0.0,0.0,0.0,0.0,0.0,0.0,0.0,0.0,0.0,0.0,0.0,0.0,0.0,0.0,0.0,0.0,0.0,0.0,0.0,0.0,0.0,0.0,0.0,0.0,0.0,0.0,0.0,0.0,0.0,0.0,0.0,0.0,0.0,0.0,0.5785,0.6388,0.679,0.7434,0.8252,0.7676,0.7424,0.0,0.0,0.0,0.0,0.0,0.0,0.0,0.0,0.0,0.0,0.0,0.0,0.0,0.0,0.0,0.0,0.0,0.0,0.0,0.0,0.0,0.0,0.0,0.0,0.0,0.0,0.0,0.0,0.0,0.0,0.0,0.0,0.0,0.0,0.0,0.0,0.0,0.0,0.0,0.0,0.0,0.0,0.0,0.0,0.0,0.0,0.0,0.0,0.0,0.0,0.0,0.0,0.0,0.0,0.0,0.0,0.0,0.0,0.0,0.0,0.0,0.0,0.0,0.0,0.0,0.0,0.0,0.0,0.0,0.0,0.0,0.0,0.0,0.0,0.0,0.0,0.0,0.0,0.0,0.0,0.0,0.0,0.0,0.0,0.0,0.0,0.0,0.0,0.0,0.0,0.0,0.0,0.0,0.0,0.0,0.0,0.0,0.0,0.0,0.0,0.0,0.0,0.0,0.0,0.0,0.0,0.0,0.544,0.6016,0.665,0.6883,0.7547,0.8647,0.8233,0.798,0.7893,0.0,0.0,0.0,0.0,0.0,0.0,0.0,0.0,0.0,0.0,0.0,0.0,0.0,0.0,0.0,0.0,0.0,0.0,0.0,0.0,0.0,0.0,0.0,0.0,0.0,0.0,0.0,0.0,0.0,0.0,0.0,0.0,0.0,0.0,0.0,0.0,0.0,0.0,0.1146,0.2596,0.0,0.0,0.0,0.0,0.0,0.0,0.0,0.0,0.4962,0.0,0.0,0.0,0.0,0.0,0.0,0.0,0.0,0.0,0.0,0.0,0.0,0.0,0.0,0.0,0.0,0.0,0.0,0.0,0.0,0.0,0.0,0.0,0.0,0.0,0.0,0.0,0.0,0.0,0.0,0.0,0.0,0.0,0.0,0.0,0.0,0.0,0.0,0.0,0.0,0.0,0.0,0.0,0.0,0.0,0.0,0.0,0.0,0.0,0.0,0.0,0.0,0.0,0.0,0.0,0.0,0.552,0.5648,0.611,0.691,0.698,0.7547,0.8626,0.8242,0.8248,0.8698,0.0,0.0,0.0,0.0,0.0,0.0,0.0,0.0,0.0,0.0,0.0,0.0,0.0,0.0,0.0,0.0,0.0,0.0,0.0,0.0,0.0,0.0,0.0,0.0,0.0,0.0,0.0,0.0,0.0,0.0,0.0,0.0,0.0,0.0,0.0,0.0,0.0,0.0,0.0,0.3436,0.458,0.0,0.0,0.0,0.0,0.0,0.0,0.0,0.0,0.533,0.0,0.0,0.0,0.0,0.0,0.0,0.0,0.0,0.0,0.0,0.0,0.0,0.0,0.0,0.0,0.0,0.0,0.0,0.0,0.0,0.0,0.0,0.0,0.0,0.0,0.0,0.0,0.0,0.0,0.0,0.0,0.0,0.0,0.0,0.0,0.0,0.0,0.0,0.0,0.0,0.0,0.0,0.0,0.0,0.0,0.0,0.0,0.0,0.0,0.0,0.0,0.0,0.0,0.0,0.0,0.5451,0.5811,0.6302,0.6956,0.6983,0.7537,0.8637,0.8242,0.8309,0.0,0.0,0.0,0.0,0.0,0.0,0.0,0.0,0.0,0.0,0.0,0.0,0.0,0.0,0.0,0.0,0.0,0.0,0.0,0.0,0.0,0.0,0.0,0.0,0.0,0.0,0.0,0.0,0.0,0.0,0.0,0.0,0.0,0.0,0.0,0.0,0.0,0.0,0.0,0.0,0.3667,0.4613,0.5636,0.0,0.0,0.0,0.0,0.0,0.0,0.5464,0.5676,0.0,0.0,0.0,0.0,0.0,0.0,0.0,0.0,0.0,0.0,0.0,0.0,0.0,0.0,0.0,0.0,0.0,0.0,0.0,0.0,0.0,0.0,0.0,0.0,0.0,0.0,0.0,0.0,0.0,0.0,0.0,0.0,0.0,0.0,0.0,0.0,0.0,0.0,0.0,0.0,0.0,0.0,0.0,0.0,0.0,0.0,0.0,0.0,0.0,0.0,0.0,0.0,0.0,0.0,0.0,0.5301,0.59,0.6459,0.6987,0.7122,0.7651,0.8647,0.8435,0.8481,0.0,0.0,0.0,0.0,0.0,0.0,0.0,0.0,0.0,0.0,0.0,0.0,0.0,0.0,0.0,0.0,0.0,0.0,0.0,0.0,0.0,0.0,0.0,0.0,0.0,0.0,0.0,0.0,0.0,0.0,0.0,0.0,0.0,0.0,0.0,0.0,0.0,0.0,0.0,0.0,0.0,0.487,0.6305,0.628,0.0,0.0,0.0,0.0,0.676,0.6764,0.0,0.0,0.0,0.0,0.0,0.0,0.0,0.0,0.0,0.0,0.0,0.0,0.0,0.0,0.0,0.0,0.0,0.0,0.0,0.0,0.0,0.0,0.0,0.0,0.0,0.0,0.0,0.0,0.0,0.0,0.0,0.0,0.0,0.0,0.0,0.0,0.0,0.0,0.0,0.0,0.0,0.0,0.0,0.0,0.0,0.0,0.0,0.0,0.0,0.0,0.0,0.0,0.0,0.0,0.0,0.0,0.5293,0.5896,0.6469,0.6998,0.752,0.808,0.8683,0.9106,0.9059,0.0,0.0,0.0,0.0,0.0,0.0,0.0,0.0,0.0,0.0,0.0,0.0,0.0,0.0,0.0,0.0,0.0,0.0,0.0,0.0,0.0,0.0,0.0,0.0,0.0,0.0,0.0,0.0,0.0,0.0,0.0,0.0,0.0,0.0,0.0,0.0,0.0,0.0,0.0,0.0,0.0,0.6112,0.5938,0.6452,0.7192,0.0,0.0,0.0,0.831,0.8328,0.0,0.0,0.0,0.0,0.0,0.0,0.0,0.0,0.0,0.0,0.0,0.0,0.0,0.0,0.0,0.0,0.0,0.0,0.0,0.0,0.0,0.0,0.0,0.0,0.0,0.0,0.0,0.0,0.0,0.0,0.0,0.0,0.0,0.0,0.0,0.0,0.0,0.0,0.0,0.0,0.0,0.0,0.0,0.0,0.0,0.0,0.0,0.0,0.0,0.0,0.0,0.0,0.0,0.0,0.0,0.4849,0.5314,0.6062,0.662,0.7001,0.7597,0.8152,0.8704,0.8961,0.8866,0.0,0.0,0.0,0.0,0.0,0.0,0.0,0.0,0.0,0.0,0.0,0.0,0.0,0.0,0.0,0.0,0.0,0.0,0.0,0.0,0.0,0.0,0.0,0.0,0.0,0.0,0.0,0.0,0.0,0.0,0.0,0.0,0.0,0.0,0.0,0.0,0.0,0.0,0.0,0.0,0.0,0.0,0.6266,0.6878,0.0,0.0,0.0,0.8576,0.8636,0.0,0.0,0.0,0.0,0.0,0.0,0.0,0.0,0.0,0.0,0.0,0.0,0.0,0.0,0.0,0.0,0.0,0.0,0.0,0.0,0.0,0.0,0.0,0.0,0.0,0.0,0.0,0.0,0.0,0.0,0.0,0.0,0.0,0.0,0.0,0.0,0.0,0.0,0.0,0.0,0.0,0.0,0.0,0.0,0.0,0.0,0.0,0.0,0.0,0.0,0.0,0.0,0.0,0.0,0.0,0.0,0.0,0.5306,0.6212,0.6872,0.7224,0.7801,0.8357,0.8869,0.9083,0.0,0.0,0.0,0.0,0.0,0.0,0.0,0.0,0.0,0.0,0.0,0.0,0.0,0.0,0.0,0.0,0.0,0.0,0.0,0.0,0.0,0.0,0.0,0.0,0.0,0.0,0.0,0.1781,0.0,0.0,0.0,0.0,0.0,0.0,0.0,0.0,0.0,0.0,0.0,0.0,0.0,0.0,0.6182,0.6599,0.7239,0.7856,0.0,0.0,0.9031,0.9059,1.0117,1.078,0.0,0.0,0.0,0.0,0.0,0.0,0.0,0.0,0.0,0.0,0.0,0.0,0.0,0.0,0.0,0.0,0.0,0.0,0.0,0.0,0.0,0.0,0.0,0.0,0.0,0.0,0.0,0.0,0.0,0.0,0.0,0.0,0.0,0.0,0.0,0.0,0.0,0.0,0.0,0.0,0.0,0.0,0.0,0.0,0.0,0.0,0.0,0.0,0.0,0.0,0.0,0.0,0.0,0.0,0.0,0.5341,0.6403,0.7252,0.7836,0.8367,0.8889,0.9438,0.9942,0.9417,0.0,0.0,0.0,0.0,0.0,0.0,0.0,0.0,0.0,0.0,0.0,0.0,0.0,0.0,0.0,0.0,0.0,0.0,0.0,0.0,0.0,0.0,0.0,0.0,0.0,0.0,0.0,0.0,0.0,0.0,0.0,0.0,0.0,0.0,0.0,0.0,0.0,0.0,0.0,0.0,0.0,0.585,0.669,0.7409,0.8058,0.0,0.0,0.9725,0.9959,1.1523,1.215,1.0476,0.0,0.0,0.0,0.0,0.0,0.0,0.0,0.0,0.0,0.0,0.0,0.0,0.0,0.0,0.0,0.0,0.0,0.0,0.0,0.0,0.0,0.0,0.0,0.0,0.0,0.0,0.0,0.0,0.0,0.0,0.0,0.0,0.0,0.0,0.0,0.0,0.0,0.0,0.0,0.0,0.0,0.0,0.0,0.0,0.0,0.0,0.0,0.0,0.0,0.0,0.0,0.0,0.0,0.5309,0.5314,0.6426,0.7301,0.7899,0.8429,0.8977,0.9479,1.002,0.9618,0.0,0.0,0.0,0.0,0.0,0.0,0.0,0.0,0.0,0.0,0.0,0.0,0.0,0.0,0.0,0.0,0.0,0.0,0.0,0.0,0.0,0.0,0.0,0.0,0.0,0.0,0.0,0.0,0.2005,0.2288,0.2698,0.0,0.0,0.0,0.0,0.0,0.0,0.0,0.0,0.0,0.0,0.62,0.6614,0.7237,0.0,0.0,0.8915,0.9477,1.0606,1.1513,1.185,1.1119,0.9939,0.0,0.0,0.0,0.0,0.0,0.0,0.0,0.0,0.0,0.0,0.0,0.0,0.0,0.0,0.0,0.0,0.0,0.0,0.0,0.0,0.0,0.0,0.0,0.0,0.0,0.0,0.0,0.0,0.0,0.0,0.0,0.0,0.0,0.0,0.0,0.0,0.0,0.0,0.0,0.0,0.0,0.0,0.0,0.0,0.0,0.0,0.0,0.0,0.0,0.0,0.0,0.0,0.5347,0.5411,0.6644,0.7562,0.8147,0.8673,0.9198,0.9725,1.0098,0.9764,0.0,0.0,0.0,0.0,0.0,0.0,0.0,0.0,0.0,0.0,0.0,0.0,0.0,0.0,0.0,0.0,0.0,0.0,0.0,0.0,0.0,0.0,0.0,0.0,0.0,0.0,0.0,0.0,0.2233,0.2519,0.3053,0.0,0.0,0.0,0.0,0.0,0.0,0.0,0.0,0.0,0.0,0.6574,0.7092,0.7603,0.8192,0.894,0.9278,0.9859,1.1064,1.1446,1.1618,1.1675,0.0,0.0,0.0,0.0,0.0,0.0,0.0,0.0,0.0,0.0,0.0,0.0,0.0,0.0,0.0,0.0,0.0,0.0,0.0,0.0,0.0,0.0,0.0,0.0,0.0,0.0,0.0,0.0,0.0,0.0,0.4317,0.0,0.0,0.0,0.0,0.0,0.0,0.0,0.0,0.0,0.0,0.0,0.0,0.0,0.0,0.0,0.0,0.0,0.0,0.0,0.0,0.0,0.0,0.0,0.5705,0.7102,0.8142,0.8667,0.9218,0.9735,1.0264,1.0312,0.9883,0.9012,0.0,0.0,0.0,0.0,0.0,0.0,0.0,0.0,0.0,0.0,0.0,0.0,0.0,0.0,0.0,0.0,0.0,0.0,0.0,0.0,0.0,0.0,0.0,0.0,0.0,0.0,0.2264,0.2437,0.2737,0.0,0.0,0.0,0.0,0.0,0.0,0.0,0.0,0.0,0.0,0.6313,0.6907,0.8257,0.8678,0.9094,0.9786,1.0574,1.1183,1.139,1.1533,1.1715,0.0,0.0,0.0,0.0,0.0,0.0,0.0,0.0,0.0,0.0,0.0,0.0,0.0,0.0,0.0,0.0,0.0,0.0,0.0,0.0,0.0,0.0,0.0,0.0,0.0,0.0,0.0,0.6328,0.632,0.0,0.0,0.0,0.0,0.0,0.0,0.0,0.0,0.0,0.0,0.0,0.8959,0.8978,0.0,0.0,0.0,0.0,0.0,0.0,0.0,0.0,0.0,0.0,0.0,0.0,0.5605,0.6246,0.7316,0.8326,0.9201,0.9418,0.9755,1.0283,1.0303,0.9892,0.9023,0.0,0.0,0.0,0.0,0.0,0.0,0.0,0.0,0.0,0.0,0.0,0.0,0.0,0.0,0.0,0.0,0.0,0.0,0.0,0.0,0.0,0.0,0.0,0.0,0.0,0.3161,0.0,0.0,0.0,0.0,0.0,0.0,0.0,0.0,0.0,0.0,0.0,0.6246,0.6683,0.7498,0.822,0.8701,0.9215,0.9786,0.0,0.0,0.0,0.0,0.0,0.0,0.0,0.0,0.0,0.0,0.0,0.0,0.0,0.0,1.1698,0.8302,0.7831,0.891,1.2087,0.0,0.0,0.0,0.0,0.0,0.0,0.0,0.0,0.0,0.0,0.0,0.0,0.0,0.0,0.0,0.0,0.78,0.0,0.0,0.0,0.0,0.0,0.0,0.0,0.0,0.9357,1.0002,1.0312,1.0293,1.0156,0.0,0.9637,0.9138,0.0,0.0,0.0,0.0,0.0,0.0,0.0,0.0,0.6096,0.6827,0.7899,0.8815,0.9478,0.9696,0.9951,1.0283,1.0303,0.997,0.9221,0.8675,0.8129,0.0,0.0,0.0,0.0,0.0,0.0,0.0,0.0,0.0,0.0,0.0,0.0,0.0,0.0,0.0,0.0,0.0,0.0,0.0,0.0,0.0,0.0,0.0,0.3457,0.0,0.0,0.0,0.0,0.0,0.0,0.0,0.0,0.0,0.6218,0.6845,0.7324,0.75,0.8614,0.9518,0.9724,0.0,0.0,0.0,0.0,0.0,0.0,0.0,1.2179,1.2586,1.3146,1.3252,1.2367,1.3183,1.3784,1.3227,0.0,0.0,1.1533,1.0521,1.1443,1.5684,1.4002,1.2601,1.4873,1.4986,1.4819,0.0,0.0,0.0,0.0,0.0,0.0,0.0,0.0,0.9076,0.8916,0.0,0.8854,0.0,0.0,0.0,0.0,0.0,0.0,0.0,0.0,1.142,1.1973,1.1615,1.1576,1.1595,1.1626,1.1567,1.131,1.082,0.8842,0.0,0.0,0.0,0.0,0.0,0.0,0.6862,0.7473,0.8785,0.9507,0.9557,1.003,1.0293,1.0303,1.0303,1.0069,0.966,0.9602,0.9212,0.8465,0.7942,0.0,0.0,0.0,0.0,0.0,0.0,0.0,0.0,0.0,0.0,0.0,0.0,0.0,0.0,0.0,0.0,0.0,0.0,0.0,0.0,0.3537,0.0,0.0,0.0,0.0,0.0,0.0,0.0,0.0,0.0,0.0,0.7053,0.7907,0.854,0.8562,0.0,0.0,0.0,0.0,1.1817,1.2779,1.3262,1.3503,1.3503,1.3196,1.3084,1.3495,0.0,0.0,1.3636,1.4703,1.5366,1.4568,1.5988,1.6786,1.5071,1.3533,1.35,1.6094,1.5732,1.5557,1.7207,1.7685,1.7844,1.3883,0.0,0.0,0.0,0.0,1.1403,1.1668,1.1968,1.1773,1.1351,1.085,1.0766,0.0,0.0,0.0,0.0,0.0,0.0,1.0371,1.0712,1.145,1.1867,1.2008,1.1741,1.173,1.202,1.173,1.1682,1.1775,1.0928,0.9611,0.7944,0.0,0.0,0.0,0.0,0.8083,0.8547,0.9174,0.9696,1.0069,1.0205,1.0303,1.0303,1.0303,1.0244,1.0098,0.9795,0.9504,0.9269,0.8258,0.0,0.0,0.0,0.0,0.0,0.0,0.0,0.0,0.0,0.0,0.0,0.0,0.0,0.0,0.0,0.0,0.0,0.0,0.0,0.4121,0.4315,0.4583,0.0,0.0,0.0,0.0,0.0,0.0,0.0,0.0,0.0,0.8282,0.8811,0.9317,0.0,0.0,1.16,1.2099,1.2601,1.3105,1.3685,0.0,0.0,0.0,1.3821,1.3978,1.4622,1.5381,1.583,1.5584,1.6205,1.6653,1.6406,1.7198,1.7693,1.7212,1.6176,1.6171,1.8153,1.8502,1.8225,1.8324,1.844,1.853,1.6721,1.3717,1.3609,1.338,1.3027,1.2973,1.3113,1.3366,1.3379,1.3066,1.2602,1.2602,1.223,1.1532,1.116,0.0,0.0,0.0,1.181,1.2268,1.2783,1.3044,1.3033,1.2885,1.2804,1.2804,1.2156,1.2051,1.2469,1.2031,1.1115,0.9686,0.0,0.0,0.8071,0.8619,0.9174,0.9698,0.993,1.0228,1.0527,1.0391,1.0303,1.0303,1.0303,1.0303,1.0293,1.001,0.9967,1.0132,0.928,0.8557,0.0,0.0,0.0,0.0,0.0,0.0,0.0,0.0,0.0,0.0,0.0,0.4128,0.0,0.0,0.0,0.0,0.4268,0.4822,0.5583,0.549,0.0,0.0,0.0,0.0,0.0,0.0,0.0,0.7421,0.799,0.8821,1.0104,1.0478,1.0743,1.101,1.2009,1.2805,1.3079,0.0,1.3821,1.4062,1.4519,1.4801,1.4821,1.5043,1.5508,1.6455,1.6646,1.6973,1.7424,1.7742,1.8026,1.8365,1.8983,1.9225,1.8264,1.7864,1.8097,1.9414,1.9728,1.9533,1.9095,1.9054,1.9139,1.9772,1.8143,1.6365,1.5509,1.5264,1.4613,1.4292,1.4172,1.4192,1.4159,1.41,1.41,1.3919,1.3625,1.3201,0.0,0.0,1.3644,1.3828,1.4214,1.4938,1.505,1.4577,1.4689,1.4488,1.398,1.2998,1.2724,1.3085,1.2685,1.2218,1.1711,1.0596,0.9887,0.9633,0.9848,1.0278,1.0931,1.1004,1.0979,1.0898,1.0547,1.0322,1.0303,1.0303,1.0322,1.0371,1.0351,1.0582,1.1007,1.0659,1.0206,0.9687,0.0,0.0,0.0,0.0,0.0,0.0,0.0,0.0,0.0,0.0,0.0,0.0,0.0,0.0,0.0,0.5044,0.0,0.7412,0.6795,0.0,0.0,0.0,0.6102,0.6703,0.677,0.701,0.7617,0.0,0.0,0.0,0.0,1.2565,1.2263,1.3284,1.4087,1.4153,1.4126,1.4159,1.425,1.5192,1.5902,1.5738,1.6334,1.7247,1.8374,1.8118,1.809,1.8997,1.9292,1.9568,2.0052,2.1031,2.1098,1.8899,1.9425,2.0028,2.0395,2.0193,1.9962,2.0206,2.0118,2.0118,2.104,2.0573,1.9558,1.8081,1.6363,1.6538,1.5871,1.4682,1.498,1.4718,1.41,1.41,1.4354,1.4767,1.4115,1.4167,1.4772,1.4806,1.4834,1.4977,1.5745,1.6034,1.5945,1.597,1.5915,1.5766,1.552,1.5233,1.4897,1.4766,1.4054,1.2807,1.2947,1.2215,1.0668,1.1719,1.2218,1.2085,1.2099,1.1725,1.0928,1.0791,1.0605,1.0322,1.0303,1.0467,1.081,1.0829,1.1066,1.1579,1.1178,1.0729,1.0291,0.8919,0.0,0.0,0.0,0.0,0.0,0.0,0.0,0.0,0.0,0.5383,0.4388,0.0,0.4894,0.0,0.5932,0.6528,0.7073,0.7112,0.0,0.0,0.7666,0.7613,0.8199,0.8315,0.8389,0.8494,1.0191,1.1639,1.2316,1.3495,1.4215,1.4146,1.3932,1.3998,1.4509,1.454,1.4643,1.5062,1.5824,1.6146,1.5814,1.6594,1.794,1.9292,1.9862,2.0271,2.0373,2.0783,2.1133,2.128,2.1505,2.1711,2.1879,2.2218,2.3062,2.4414,2.3274,2.202,2.308,2.2391,2.1673,2.2207,2.2178,2.1775,2.0606,1.8977,1.8467,1.7467,1.6261,1.6475,1.6278,1.5855,1.6237,1.6658,1.6983,1.6594,1.6516,1.6664,1.6656,1.6534,1.6316,1.7074,1.7295,1.7074,1.7112,1.7021,1.6787,1.6538,1.6227,1.5919,1.5884,1.5434,1.4581,1.4685,1.4137,1.3016,1.3345,1.3399,1.3091,1.3173,1.2828,1.2037,1.1796,1.166,1.1667,1.1439,1.1554,1.2031,1.1837,1.1853,1.2137,1.1881,1.1514,1.1029,0.9881,0.8955,0.0,0.0,0.0,0.0,0.0,0.0,0.0,0.0,0.0,0.0,0.0,0.5712,0.0,0.7052,0.0,0.8605,0.873,0.9038,0.9775,0.9349,0.9276,0.9926,0.9897,0.9987,1.0362,1.1626,1.2811,1.3631,1.4357,1.4877,1.5019,1.4712,1.4607,1.4972,1.4982,1.518,1.5819,1.6525,1.7149,1.7266,1.8032,1.8857,1.9683,2.0524,2.1112,2.1186,2.1718,2.222,2.2487,2.2742,2.2969,2.3342,2.3795,2.4437,2.4859,2.4796,2.4629,2.5296,2.4753,2.4105,2.3296,2.3221,2.3221,2.2751,2.193,2.0439,1.9193,1.8239,1.8239,1.8196,1.8215,1.8985,1.9342,1.9446,1.9357,1.9101,1.8751,1.8728,1.8436,1.8015,1.8656,1.8714,1.826,1.8277,1.8063,1.7592,1.7085,1.6799,1.674,1.674,1.6657,1.6503,1.6068,1.5756,1.5589,1.488,1.4384,1.404,1.4183,1.4051,1.3499,1.3016,1.2971,1.335,1.2935,1.292,1.3331,1.3012,1.2803,1.2793,1.2793,1.2573,1.2029,1.1209,1.0453,0.0,0.8994,0.0,0.0,0.0,0.0,0.0,0.0,0.0,0.0,0.6284,0.6872,0.7611,0.8352,0.9342,1.0675,1.0655,1.091,1.1674,1.1123,1.0935,1.1484,1.139,1.158,1.2414,1.2978,1.3863,1.5085,1.5078,1.5019,1.5425,1.5707,1.5814,1.5757,1.5707,1.5868,1.6539,1.7177,1.7925,1.9177,1.967,1.9773,1.9978,2.0649,2.1318,2.1774,2.2363,2.2969,2.3482,2.383,2.406,2.3666,2.4348,2.4713,2.4374,2.5464,2.6463,2.6564,2.6496,2.6133,2.423,2.3853,2.3828,2.3445,2.2829,2.2525,2.1315,1.9547,1.9547,1.9356,1.9074,1.9223,1.9615,2.0134,1.9564,1.9554,2.0036,2.0027,1.9965,1.9899,2.0188,2.0265,2.0141,1.9693,1.9419,1.9319,1.9217,1.8931,1.8511,1.8511,1.8031,1.7168,1.7496,1.7219,1.6293,0.0,0.0,0.0,1.5282,1.488,1.4009,1.3874,1.3682,1.3429,1.3295,0.0,1.3325,1.3643,1.3833,1.3822,1.4212,0.0,0.0,0.0,0.0,0.0,0.0,0.0,0.0,0.0,0.0,0.0,0.898,0.8302,0.6927,0.7741,0.858,0.9068,0.9875,1.047,1.0759,1.1256,1.1589,1.1789,1.1991,1.2083,1.2045,1.241,1.2824,1.3031,1.3867,1.4703,1.5269,1.5318,1.5483,1.5979,1.6859,1.7476,1.7519,1.7041,1.6857,1.7296,1.765,1.8192,1.9566,1.9836,2.0003,2.0509,2.1137,2.1774,2.2397,2.2998,2.3395,2.3599,2.3696,2.373,2.3631,2.3784,2.439,2.5821,2.6414,2.67,2.6716,2.6699,2.659,2.4641,0.0,2.439,2.4214,0.0,2.3948,2.3327,2.2242,2.13,2.0757,2.0625,2.1003,2.1391,2.1717,2.1347,2.1246,2.1339,2.1339,2.1192,2.0962,2.1054,2.1119,2.108,2.0778,2.0502,2.0251,2.0251,1.9936,1.9422,1.9384,1.9108,1.8547,1.8585,1.8302,1.7698,1.7758,1.7215,1.6064,1.6028,1.5787,1.5284,1.5034,1.4902,1.492,0.0,0.0,0.0,0.0,0.0,0.0,0.0,0.0,0.0,0.0,0.0,1.1767,1.1142,1.0627,1.0312,1.0459,1.0562,1.0528,1.0285,0.9733,0.8747,0.9276,0.991,1.0586,1.1252,1.177,1.21,1.2613,1.2945,1.2932,1.3146,1.3313,1.3451,1.3733,1.4049,1.4297,1.4975,1.5522,1.5718,1.5922,1.633,1.6941,1.757,1.8316,1.8985,1.8939,1.8813,1.894,1.8787,1.9132,2.0265,2.0125,2.0182,2.0999,2.1675,2.2168,2.2603,2.3227,2.3599,2.3599,2.3599,2.3599,2.3599,2.3599,2.4109,2.5574,2.6368,2.6666,2.6691,2.6691,2.6691,2.5502,2.54,2.54,2.5349,2.5246,2.5246,2.5231,2.5106,0.0,0.0,0.0,2.3249,2.3498,2.3261,2.3412,2.3094,2.2433,2.2433,2.2207,2.1769,2.1683,2.1633,2.1658,2.1543,2.127,2.0867,2.0856,2.0541,1.9962,1.9962,1.9911,1.9786,1.9371,1.9095,1.897,1.8568,1.7841,1.6862,1.6712,1.6661,1.6636,1.612,1.6059,1.6497,1.5643,1.5361,1.5668,1.4944,1.4495,1.4375,1.4491,1.4262,1.3761,1.3557,1.3223,1.2708,1.2474,1.2148,1.1741,1.2031,1.2098,1.185,1.1541,1.117,1.0735,1.0674,1.1106,1.2131,1.2567,1.2999,1.3562,1.3971,1.4231,1.4231,1.4354,1.4615,1.4961,1.5112,1.525,1.561,1.5957,1.6279,1.6461,1.6744,1.7309,1.8137,1.8587,1.9132,2.0467,2.0725,2.0562,2.0499,2.0229,2.041,2.1185,2.1792,2.1368,2.1979,2.2622,2.3082,2.3235,2.3618,2.3865,2.3838,2.3778,2.3759,2.364,2.3599,2.3995,2.4998,2.5892,2.6573,2.6674,2.6691,2.6691,2.8095,2.7735,2.772,2.7407,2.6944,2.6929,2.6929,2.6809,2.5121,2.4405,2.4453,2.5304,2.5014,2.3925,2.4598,2.4186,2.301,2.2995,2.2945,0.0,2.2408,2.2196,2.2157,2.1719,2.1457,2.1407,2.1382,2.1119,2.0629,2.0579,2.0314,1.9861,1.9723,1.9447,1.9033,1.8933,1.8594,1.7978,1.7501,1.7261,1.7261,1.6687,1.64,1.6486,1.636,1.6084,1.5728,1.5969,1.5963,1.5526,1.5928,1.5928,1.5396,1.4785,1.425,1.3728,1.3123,1.2598,1.2145,1.2176,1.234,1.2719,1.3284,1.3106,1.1907,1.1791,1.2319,1.3611,1.3805,1.3897,1.4023,1.4453,1.4727,1.476,1.5366,1.585,1.5874,1.6172,1.6375,1.6434,1.6551,1.6934,1.7457,1.7755,1.8341,1.9435,2.0167,2.1176,2.206,2.1923,2.1439,2.1353,2.1312,2.1356,2.1812,2.4503,2.4912,2.3594,2.454,2.5234,2.4981,2.5032,2.4975,2.4556,2.4455,2.4287,2.3808,2.3599,2.4089,2.4971,2.5612,2.6125,2.6598,2.6691,2.6691,2.8852,2.8662,2.8635,2.8484,2.8207,2.8207,2.8207,2.8146,2.7411,2.6706,2.621,2.658,2.6373,2.5856,2.6163,2.5821,2.4889,2.4889,2.4701,2.4339,2.4088,2.3769,2.3396,2.3123,2.2637,2.2002,2.2333,2.2272,2.1768,2.1716,2.1587,2.1276,2.0613,2.0,1.9472,1.9447,1.9321,1.9058,1.8254,1.7839,1.7839,1.7576,1.7289,1.701,1.6687,1.6235,1.5718,1.5653,1.5653,1.5693,1.5944,1.5969,1.5698,1.5368,1.4902,1.4261,1.3906,1.3575,1.3237,1.3224,1.3327,1.3529,1.3893,1.3949,1.3563,1.3283,1.3521,1.4373,1.4492,1.4576,1.4791,1.5215,1.5517,1.5503,1.607,1.6406,1.6445,1.6551,1.6687,1.6774,1.7328,1.7666,1.7522,1.8606,1.9682,2.0632,2.1573,2.2461,2.301,2.2694,2.2357,2.2357,2.2372,2.2372,2.2484,2.4521,2.5494,2.4237,2.4826,2.5428,2.5527,2.5615,2.5483,2.5214,2.5154,2.5035,2.4687,2.4489,2.4615,2.4799,2.5799,2.6437,2.668,2.6691,2.6691,2.9935,2.9807,2.9779,2.9707,2.9566,2.9551,2.9551,2.9566,2.9566,2.9077,2.8304,2.8058,2.7796,2.7522,2.7699,2.7335,2.6674,2.6604,2.6326,2.584,2.5688,2.531,2.4784,2.4632,2.3998,2.3134,2.3593,2.3566,2.3098,2.3018,2.2978,2.2737,2.1707,2.0861,2.0271,2.0105,1.994,1.9748,1.8982,1.8493,1.8368,1.8267,1.8003,1.7576,1.716,1.6687,1.6271,1.5854,1.5839,1.6231,1.6271,1.6281,1.6239,1.5932,1.5556,1.5138,1.4607,1.4266,1.4141,1.4211,1.4264,1.425,1.4348,1.4543,1.4844,1.4615,1.4596,1.5028,1.5112,1.5268,1.563,1.5996,1.6226,1.6246,1.6621,1.684,1.6843,1.6921,1.698,1.7115,1.8047,1.8448,1.8234,1.9538,2.1032,2.1744,2.2555,2.305,2.3095,2.3095,2.3095,2.3095,2.3095,2.3045,2.317,2.4018,2.4718,2.4518,2.4963,2.5517,2.5961,2.6093,2.6069,2.6075,2.5919,2.5704,2.5615,2.5357,2.526,2.5519,2.6365,2.7058,2.7328,2.7122,2.6894,3.2674,3.2213,3.2124,3.1812,3.1264,3.1249,3.1264,3.1234,3.1248,3.1248,3.0939,3.035,2.9287,2.8322,2.8909,2.851,2.7332,2.7231,2.719,2.7093,2.6562,2.627,2.6115,2.559,2.5259,2.5065,2.5135,2.486,2.435,2.4322,2.4073,2.3559,2.2878,2.22,2.1624,2.1009,2.0435,1.9837,1.971,1.9434,1.8933,1.8443,1.8179,1.8129,1.8078,1.8016,1.7866,1.7939,1.7891,1.7978,1.7928,1.7941,1.7823,1.6833,1.6427,1.6893,1.525,1.4128,1.4147,1.4498,1.4768,1.4746,1.5092,1.5312,1.5357,1.5318,1.5488,1.587,1.5968,1.6148,1.6527,1.6625,1.6629,1.6699,1.7135,1.7341,1.7445,1.7676,1.7874,1.7874,1.8812,1.9275,1.9565,2.0794,2.1993,2.2662,2.2914,2.3095,2.3095,2.3095,2.3095,2.3095,2.3095,2.3095,2.314,2.317,2.4113,2.5066,2.5871,2.6452,2.6966,2.7238,2.7377,2.697,2.6826,2.6345,2.5944,2.5601,2.6058,2.6735,2.7258,2.7595,2.8379,2.818,2.7562,3.3335,3.3111,3.3095,3.2946,3.2706,3.2662,3.2691,3.2662,3.2273,3.2079,3.2004,3.1338,3.069,3.0176,3.0529,3.0103,2.9246,2.9202,2.8999,2.8679,2.8374,2.7862,2.7058,2.679,2.6244,2.5522,2.5838,2.5913,2.5741,2.5685,2.5173,2.4272,2.3902,2.3469,2.292,2.2259,2.1624,2.1004,2.0603,2.0079,1.9522,1.9246,1.8995,1.8707,1.8694,1.8506,1.8242,1.8192,1.8192,1.8192,1.8192,1.8192,1.8192,1.7678,1.7471,1.7584,1.674,1.5972,1.5566,1.5708,1.5926,1.6206,1.5949,1.5913,1.6137,1.6035,1.6187,1.675,1.6774,1.6722,1.6746,1.6957,1.7109,1.7233,1.7941,1.8512,1.8532,1.9101,1.9519,1.9606,2.0301,2.0767,2.091,2.1807,2.2686,2.305,2.312,2.313,2.312,2.3095,2.3095,2.3095,2.3095,2.3095,2.3185,2.4224,2.4895,2.5439,2.6403,2.7318,2.7446,2.7585,2.7575,2.7585,2.7317,2.7093,2.6914,2.7133,2.7543,2.805,2.8257,2.8477,2.8921,2.873,2.8358,3.3933,3.3769,3.3574,3.3514,3.3514,3.3514,3.3514,3.3455,3.2976,3.2751,3.2736,3.2243,3.1959,3.175,3.16,3.1226,3.0807,3.0777,3.0552,3.0103,2.9967,2.9306,2.8382,2.8136,2.7557,2.6744,2.6937,2.7002,2.6814,2.6814,2.6289,2.5454,2.519,2.4801,2.4219,2.3566,2.2948,2.2328,2.1646,2.0976,2.0412,2.0154,1.9786,1.9259,1.9221,1.9033,1.8681,1.8656,1.8644,1.8643,1.8656,1.8631,1.8619,1.8448,1.8189,1.7887,1.789,1.7659,1.7077,1.6813,1.6894,1.7298,1.6915,1.6737,1.6914,1.6664,1.6951,1.7981,1.806,1.791,1.7168,1.7576,1.7899,1.8004,1.8994,1.9634,1.9699,2.0252,2.0542,2.0687,2.118,2.1924,2.1986,2.2546,2.3123,2.3341,2.341,2.35,2.3556,2.3597,2.3572,2.3396,2.3471,2.3446,2.3301,2.3962,2.505,2.5685,2.6343,2.6929,2.742,2.7585,2.7585,2.7588,2.7597,2.758,2.7408,2.7911,2.8685,2.8887,2.9191,2.9511,2.977,2.9517,2.9444,3.504,3.4445,3.3785,3.3682,3.3545,3.3636,3.3606,3.3818,3.3576,3.3531,3.3592,3.3441,3.3081,3.2526,3.1986,3.1525,3.1406,3.1421,3.1361,3.1241,3.0747,3.0448,3.0331,2.9806,2.9423,2.9023,2.8588,2.8101,2.7573,2.7539,2.7534,2.7369,2.6728,2.6167,2.5595,2.4945,2.4278,2.3621,2.2905,2.2247,2.1667,2.1027,2.0429,1.9886,1.9761,1.971,1.9685,1.971,1.9685,1.971,1.966,1.9685,1.9634,1.9066,1.8457,1.7857,1.8313,1.8624,1.8354,1.7737,1.7518,1.7905,1.801,1.7939,1.8019,1.7506,1.7889,1.9565,1.9985,1.9636,1.8388,1.8713,1.9138,1.9225,1.9982,2.0494,2.0542,2.0719,2.0623,2.083,2.158,2.2314,2.2918,2.3056,2.3405,2.3807,2.4065,2.4266,2.4467,2.4616,2.4415,2.4164,2.4239,2.4365,2.3436,2.4001,2.4483,2.4846,2.5545,2.6174,2.6967,2.7585,2.7585,2.7585,2.7585,2.7623,2.771,2.8216,2.9102,2.9675,3.0378,3.0736,3.0548,3.0311,3.0238,3.684,3.6605,3.6369,3.6244,3.6244,3.6229,3.6275,3.6213,3.5804,3.5599,3.5536,3.516,3.483,3.4565,3.3854,3.2784,3.1569,3.1511,3.1511,3.1481,3.1241,3.0927,3.0478,3.0253,2.9967,2.9608,2.9338,2.8889,2.8321,2.8231,2.7991,2.7602,2.7375,2.7101,2.6819,2.6248,2.5587,2.494,2.4254,2.341,2.2405,2.2048,2.1583,2.0867,2.0162,1.9824,1.9824,1.9824,1.9824,1.9824,1.9824,1.9824,1.9823,1.9914,1.967,1.9083,1.9879,2.0266,1.9747,1.9411,1.9436,1.9833,1.9475,1.9368,1.961,1.9676,1.9938,2.0369,2.0837,2.0568,2.0025,1.996,2.0139,2.0236,2.0894,2.1439,2.1526,2.1854,2.2178,2.2297,2.2818,2.3368,2.3455,2.3347,2.3481,2.437,2.5166,2.5334,2.4915,2.4816,2.4766,2.4591,2.4666,2.4691,2.4349,2.479,2.5186,2.4844,2.5147,2.657,2.7569,2.7615,2.7615,2.7705,2.7675,2.7848,2.8027,2.8962,2.9761,3.0445,3.1151,3.1151,3.119,3.0818,3.0838,3.7822,3.7822,3.7822,3.7822,3.7822,3.7822,3.7822,3.7743,3.7338,3.7142,3.7014,3.6643,3.6337,3.6057,3.5584,3.4523,3.289,3.2204,3.1809,3.178,3.16,3.1241,3.0897,3.0851,3.0612,3.0223,2.9997,2.9548,2.9009,2.8906,2.859,2.7961,2.7902,2.7807,2.7555,2.7136,2.6691,2.6167,2.5376,2.4347,2.3312,2.2733,2.2189,2.149,2.074,2.0338,2.0363,2.0351,2.0363,2.0363,2.0338,2.0338,2.0388,2.0742,2.0738,2.0391,2.0979,2.1386,2.1024,2.075,2.0783,2.1214,2.0857,2.0709,2.103,2.1589,2.1698,2.1589,2.1698,2.1823,2.1753,2.172,2.1523,2.1257,2.176,2.2376,2.2592,2.305,2.342,2.3645,2.392,2.4199,2.4242,2.4024,2.4295,2.501,2.5923,2.6076,2.5551,2.536,2.5243,2.515,2.5554,2.573,2.5781,2.6259,2.6549,2.6203,2.598,2.723,2.806,2.794,2.7794,2.7854,2.7966,2.8137,2.8717,2.9651,3.0383,3.1018,3.1181,3.1181,3.119,3.119,3.1274,3.7894,3.7951,3.7851,3.7994,3.8037,3.8051,3.7908,3.7976,3.7916,3.7951,3.7943,3.7837,3.7542,3.7012,3.6901,3.6387,3.5472,3.3753,3.2764,3.26,3.197,3.1628,3.1511,3.1421,3.1361,3.1301,3.0777,3.0207,2.9608,2.9578,2.9249,2.8727,2.8607,2.8291,2.7645,2.7632,2.7572,2.7174,2.611,2.512,2.4394,2.3172,2.2253,2.1683,2.1518,2.1493,2.1507,2.1443,2.1343,2.1368,2.1393,2.1468,2.1343,2.1482,2.1479,2.1437,2.1543,2.182,2.2106,2.1525,2.1428,2.181,2.1876,2.1837,2.1978,2.2583,2.2998,2.2953,2.3073,2.3274,2.3692,2.3744,2.3304,2.227,2.276,2.3343,2.376,2.3973,2.418,2.454,2.4716,2.4775,2.4876,2.5053,2.5353,2.5628,2.6097,2.6451,2.6265,2.6223,2.613,2.6055,2.646,2.6928,2.7335,2.7752,2.7854,2.7846,2.7693,2.815,2.8883,2.9047,2.8526,2.8479,2.8582,2.8755,2.9168,3.0021,3.0539,3.1038,3.1121,3.119,3.119,3.1283,3.1621,3.9388,3.9401,3.9388,3.9388,3.9388,3.9388,3.9388,3.9388,3.9388,3.9355,3.9388,3.9388,3.9268,3.8983,3.8525,3.815,3.7807,3.62,3.4971,3.4059,3.331,3.2692,3.2197,3.172,3.1511,3.1481,3.1301,3.0837,3.0313,3.0237,2.9894,2.9398,2.9309,2.8949,2.8308,2.8291,2.8081,2.7543,2.6654,2.5834,2.5108,2.416,2.3331,2.2692,2.2608,2.2608,2.2583,2.1895,2.1518,2.1518,2.1493,2.1493,2.1543,2.1845,2.2031,2.2081,2.2408,2.2644,2.2779,2.2596,2.2465,2.2692,2.2717,2.2732,2.2781,2.3343,2.3687,2.3763,2.4039,2.439,2.449,2.454,2.4322,2.3956,2.4106,2.4274,2.449,2.4566,2.449,2.449,2.4942,2.5259,2.5351,2.5711,2.6088,2.6172,2.6408,2.6543,2.6508,2.6645,2.6756,2.7022,2.7617,2.8179,2.8607,2.9013,2.9276,2.9342,2.9239,2.9138,2.9795,2.98,2.9332,2.9226,2.9311,2.9556,2.9932,3.0408,3.1029,3.1163,3.1286,3.1292,3.1224,3.1541,3.2085,4.0113,4.0113,4.0113,4.0113,4.0113,4.0113,4.0113,4.0113,4.0113,4.0113,4.01,4.01,4.0113,3.999,3.9571,3.9355,3.9235,3.8374,3.7394,3.6084,3.4611,3.3683,3.2886,3.2183,3.1675,3.154,3.1511,3.1286,3.0897,3.0837,3.0538,3.0013,2.9937,2.9608,2.9026,2.8936,2.8663,2.7961,2.7243,2.6512,2.5743,2.4823,2.4058,2.3588,2.326,2.311,2.3045,2.2418,2.2096,2.2096,2.2096,2.2081,2.2106,2.2433,2.2608,2.2659,2.2884,2.3095,2.3095,2.304,2.3221,2.3346,2.3436,2.3547,2.3722,2.4139,2.4264,2.4381,2.4566,2.4892,2.5042,2.5093,2.5184,2.541,2.4992,2.4942,2.5042,2.531,2.536,2.5335,2.5611,2.5804,2.5971,2.6122,2.6474,2.6491,2.6765,2.6952,2.7011,2.728,2.7729,2.8179,2.8641,2.9226,2.9815,3.0259,3.069,3.0746,3.0722,3.0692,3.0932,3.0407,2.9845,3.021,3.0383,3.0674,3.1024,3.1431,3.1884,3.1745,3.1692,3.1695,3.1854,3.2415,3.2959,4.0113,4.0113,4.0113,4.0113,4.0113,4.0113,4.0113,4.0113,4.0113,4.0113,4.0113,4.0113,4.0113,4.0113,3.9978,3.9965,4.0041,3.9919,3.932,3.809,3.6324,3.4696,3.3638,3.3005,3.2405,3.1734,3.163,3.154,3.1391,3.1391,3.1182,3.0598,3.0538,3.0253,2.9744,2.9638,2.9309,2.8648,2.7913,2.7216,2.6621,2.5352,2.4594,2.4534,2.3897,2.3518,2.3548,2.3336,2.3145,2.3095,2.297,2.2945,2.3045,2.3095,2.3045,2.3135,2.3145,2.3271,2.3221,2.3396,2.3547,2.3963,2.4054,2.423,2.4575,2.4741,2.4858,2.4842,2.4967,2.5184,2.5577,2.5661,2.5904,2.6223,2.5611,2.531,2.5611,2.6105,2.6197,2.6323,2.6474,2.6524,2.6559,2.6736,2.6806,2.7045,2.759,2.8069,2.8253,2.8669,2.9052,2.9505,3.0001,3.0511,3.1177,3.1276,3.1679,3.1872,3.1808,3.1626,3.1677,3.109,3.0806,3.1134,3.1578,3.1843,3.2122,3.2463,3.2718,3.2767,3.2658,3.2492,3.2687,3.3205,3.3485,4.0113,4.0113,4.0113,4.0113,4.0113,4.0113,4.0113,4.0113,4.0113,4.0113,4.0113,4.0113,4.0113,4.0113,4.0113,4.0113,4.0113,4.0113,3.9662,3.8915,3.8281,3.6423,3.4773,3.4201,3.342,3.2391,3.2228,3.2004,3.154,3.16,3.1451,3.1241,3.1212,3.0927,3.0372,3.0283,2.9937,2.9334,2.8583,2.8135,2.7794,2.7001,2.6549,2.6446,2.569,2.5291,2.5225,2.4686,2.3898,2.317,2.3095,2.3095,2.317,2.317,2.3371,2.3687,2.3763,2.3923,2.4224,2.4299,2.4399,2.454,2.4591,2.4666,2.4775,2.5168,2.536,2.546,2.5753,2.6097,2.6248,2.6281,2.6381,2.6424,2.6231,2.608,2.6248,2.6356,2.6499,2.6499,2.6499,2.6919,2.7586,2.7901,2.8204,2.8637,2.9332,3.0003,2.9948,3.0189,3.0608,3.1155,3.1661,3.2071,3.2429,3.2436,3.2602,3.287,3.2691,3.2167,3.2171,3.191,3.1938,3.2171,3.2777,3.3145,3.3239,3.3459,3.3564,3.3769,3.3745,3.3697,3.3558,3.3776,3.3861,4.0113,4.0113,4.0113,4.0113,4.0113,4.0113,4.0113,4.0113,4.0113,4.0113,4.0113,4.0113,4.0113,4.0113,4.0113,4.0113,4.0113,4.0113,3.9817,3.9532,3.9348,3.7703,3.5688,3.5048,3.4328,3.3051,3.2946,3.2721,3.2422,3.2333,3.2213,3.1959,3.1929,3.157,3.0987,3.0927,3.0598,3.0018,2.9479,2.9195,2.889,2.8154,2.7824,2.7621,2.7016,2.6489,2.6056,2.5246,2.4465,2.3963,2.3822,2.3822,2.3797,2.3822,2.3973,2.4315,2.4356,2.4506,2.4716,2.4816,2.4917,2.5067,2.5118,2.5268,2.5511,2.5829,2.5979,2.603,2.6524,2.6776,2.6859,2.701,2.716,2.7211,2.716,2.7085,2.6876,2.706,2.6927,2.6776,2.6944,2.7734,2.9055,2.9187,2.9438,3.0035,3.0804,3.1213,3.1427,3.183,3.2146,3.26,3.2794,3.3036,3.3162,3.3168,3.3412,3.3698,3.3879,3.3275,3.3192,3.3077,3.3232,3.353,3.4027,3.4341,3.4342,3.4427,3.4676,3.4823,3.4878,3.4866,3.4729,3.4694,3.4693,4.0113,4.0113,4.0113,4.0113,4.0113,4.0113,4.0113,4.0113,4.0113,4.0113,4.0113,4.0113,4.0113,4.0113,4.0113,4.0113,4.0113,4.0113,4.01,3.9978,3.9829,3.8566,3.6483,3.6244,3.5329,3.4046,3.3727,3.3546,3.3351,3.3365,3.311,3.2721,3.2602,3.2228,3.172,3.16,3.1256,3.0717,3.0542,3.0263,2.988,2.9284,2.9015,2.8886,2.8248,2.743,2.6669,2.5901,2.5403,2.5281,2.506,2.4915,2.4909,2.4918,2.4881,2.4883,2.4892,2.4942,2.5017,2.5159,2.5234,2.5611,2.5686,2.5954,2.6373,2.6549,2.6625,2.6751,2.711,2.7336,2.7437,2.7795,2.7921,2.7921,2.8047,2.7921,2.767,2.7846,2.7774,2.7101,2.7827,2.9065,3.0298,3.0614,3.0298,3.1627,3.235,3.2885,3.3126,3.3378,3.3574,3.3723,3.3806,3.378,3.3813,3.3798,3.4167,3.4516,3.491,3.4763,3.474,3.4717,3.4775,3.5025,3.5521,3.5527,3.524,3.5408,3.5712,3.6175,3.6401,3.6186,3.5938,3.5983,3.6005,4.0113,4.0113,4.0113,4.0113,4.0113,4.0113,4.0113,4.0113,4.0113,4.0113,4.0113,4.0113,4.0113,4.0113,4.0113,4.0113,4.0113,4.0113,4.0113,4.0113,4.0113,3.9479,3.8291,3.8093,3.699,3.5574,3.5123,3.4577,3.3833,3.3634,3.3455,3.335,3.3245,3.2931,3.2392,3.2273,3.1974,3.1391,3.1301,3.1241,3.1092,3.0874,3.0671,3.0599,2.9927,2.9177,2.8526,2.8191,2.8096,2.7753,2.678,2.607,2.5965,2.5923,2.5822,2.5679,2.5584,2.5711,2.6055,2.6198,2.6172,2.6333,2.6442,2.6532,2.7035,2.7135,2.7336,2.762,2.7871,2.7946,2.8021,2.8047,2.8222,2.8304,2.8604,2.8774,2.8549,2.8334,2.8612,2.9274,2.9416,3.0183,3.2595,3.2517,3.2636,3.3314,3.3881,3.4593,3.4742,3.4763,3.4691,3.4622,3.4651,3.4578,3.4625,3.4768,3.5233,3.5671,3.6029,3.6321,3.6263,3.6384,3.6452,3.6667,3.6984,3.6754,3.6197,3.6411,3.6694,3.7329,3.7828,3.7419,3.7145,3.7235,3.7274,4.0113,4.0113,4.0113,4.0113,4.0113,4.0113,4.0113,4.0113,4.0113,4.0113,4.0113,4.0113,4.0113,4.0113,4.0113,4.0113,4.0113,4.0113,4.0113,4.0113,4.01,3.9876,3.9597,3.9262,3.8291,3.6343,3.5676,3.5059,3.4596,3.4384,3.4322,3.3994,3.3979,3.3604,3.3066,3.2976,3.2796,3.2542,3.2422,3.2288,3.2019,3.1959,3.175,3.144,3.0762,3.0041,2.9615,2.9132,2.9226,2.9227,2.8626,2.7836,2.7511,2.7476,2.7354,2.7247,2.7196,2.7301,2.7607,2.7663,2.7599,2.7438,2.7447,2.7511,2.7637,2.767,2.777,2.8072,2.8304,2.8555,2.885,2.89,2.89,2.9038,2.9553,2.9931,2.9917,2.9729,2.9876,3.085,3.1011,3.225,3.3447,3.3765,3.4055,3.4343,3.4521,3.515,3.5167,3.5172,3.5248,3.525,3.534,3.5402,3.5453,3.5791,3.6383,3.6905,3.7438,3.7689,3.7813,3.7979,3.8129,3.809,3.7864,3.7542,3.7166,3.7438,3.7823,3.8536,3.8831,3.8492,3.8248,3.8139,3.8162,4.0217,4.0217,4.0116,4.0113,4.0113,4.0113,4.0113,4.0113,4.0113,4.0113,4.0113,4.0113,4.0113,4.0113,4.0113,4.0113,4.0113,4.0113,4.0113,4.0113,4.0113,4.0062,3.994,3.961,3.8834,3.6994,3.6553,3.6121,3.5931,3.5688,3.5346,3.4904,3.4653,3.4278,3.3799,3.3634,3.3514,3.3335,3.3275,3.3125,3.2721,3.2632,3.2392,3.1961,3.15,3.1109,3.0881,3.0469,3.0182,3.0709,3.0785,3.0403,2.9866,2.9251,2.9066,2.8959,2.8839,2.8928,2.8962,2.9141,2.9144,2.8881,2.889,2.8873,2.8815,2.8942,2.9081,2.9196,2.9498,2.9928,3.0177,3.0321,3.0316,3.0398,3.0999,3.1333,3.1444,3.1499,3.1811,3.2046,3.2415,3.3397,3.4242,3.4741,3.5024,3.5231,3.5392,3.5489,3.5489,3.5489,3.5489,3.5489,3.5489,3.5489,3.5554,3.6274,3.695,3.7976,3.8608,3.8726,3.8957,3.908,3.9042,3.8679,3.8427,3.8215,3.8193,3.8374,3.8894,3.974,3.9756,3.9309,3.9119,3.902,3.9232,4.0756,4.0721,4.0303,4.0113,4.0113,4.0113,4.0138,4.0113,4.0113,4.0113,4.0113,4.0113,4.0113,4.0113,4.0113,4.0113,4.0113,4.0113,4.0113,4.0113,4.0113,4.0113,4.0003,3.9623,3.8935,3.8676,3.8232,3.7876,3.7205,3.6767,3.6214,3.606,3.554,3.4937,3.4488,3.4308,3.4099,3.3829,3.3724,3.359,3.3395,3.3245,3.3185,3.2961,3.2689,3.2673,3.2792,3.2775,3.2805,3.2957,3.2972,3.2806,3.2188,3.0983,3.0027,2.9647,2.9832,3.0151,3.0147,3.0452,3.0588,3.0599,3.0548,3.0784,3.0964,3.1068,3.0984,3.1379,3.1586,3.1911,3.211,3.1865,3.2046,3.211,3.2191,3.2389,3.2514,3.2957,3.3394,3.3526,3.3791,3.403,3.471,3.5215,3.528,3.5359,3.5424,3.5489,3.5489,3.5489,3.5489,3.5489,3.5489,3.5489,3.5506,3.6446,3.7337,3.8737,3.9375,3.9262,3.9525,3.9829,3.9795,3.9356,3.9322,3.9423,3.9389,3.9322,3.9491,3.9977,3.9997,3.9994,4.0178,4.0318,4.0894,4.1386,4.1353,4.107,4.0803,4.054,4.0504,4.0343,4.0125,4.0113,4.0113,4.0113,4.0113,4.0113,4.0113,4.0113,4.0113,4.0113,4.0113,4.0113,4.0113,4.0113,4.0113,4.0113,3.9649,3.9571,3.9486,3.948,3.89,3.779,3.6949,3.6691,3.6415,3.5878,3.531,3.51,3.5011,3.4831,3.4502,3.4472,3.4338,3.4009,3.3724,3.3544,3.3514,3.3544,3.3514,3.3514,3.3514,3.3469,3.3469,3.3484,3.3514,3.3228,3.2686,3.1772,3.143,3.1567,3.1759,3.1804,3.2137,3.2211,3.2108,3.2087,3.2083,3.2194,3.2171,3.243,3.2553,3.2593,3.2593,3.2522,3.2664,3.2593,3.2682,3.2999,3.3279,3.3533,3.4228,3.4526,3.4689,3.4773,3.4872,3.5133,3.5441,3.5473,3.5489,3.5489,3.5489,3.5489,3.5489,3.5489,3.5603,3.5635,3.5683,3.5941,3.6935,3.7862,3.9183,3.9889,3.9812,3.9837,4.0062,4.0113,3.9897,4.0079,4.0113,4.0011,3.974,3.9977,4.0113,4.0061,4.0248,4.1069,4.1714,4.2041,4.1979,4.1958,4.1853,4.144,4.0967,4.0874,4.0589,4.0167,4.0113,4.0113,4.0113,4.0113,4.0113,4.0113,4.0113,4.0113,4.0113,4.0113,4.0113,4.0113,4.0113,4.0113,4.0113,4.0113,4.0016,3.994,3.9965,3.9467,3.8525,3.7627,3.7114,3.6783,3.6148,3.5603,3.5478,3.54,3.5489,3.5489,3.5489,3.519,3.4697,3.4218,3.3903,3.3903,3.3903,3.3993,3.4083,3.4083,3.4083,3.4053,3.4023,3.3963,3.3903,3.3903,3.3903,3.3873,3.3784,3.3694,3.3677,3.3824,3.3787,3.3623,3.3599,3.3446,3.334,3.343,3.3314,3.3185,3.3272,3.3377,3.3498,3.329,3.329,3.3429,3.3939,3.4358,3.4476,3.4839,3.5166,3.5343,3.5489,3.5489,3.5489,3.5489,3.5489,3.5489,3.5489,3.5489,3.5489,3.5489,3.5538,3.5716,3.5782,3.5894,3.643,3.7557,3.8511,3.961,4.0024,3.9965,3.999,4.01,4.0113,4.0113,4.0113,4.0113,4.0113,4.0113,4.0113,4.0113,4.0113,4.051,4.1336,4.1956,4.2383,4.2596,4.2567,4.2031,4.144,4.1013,4.0955,4.0636,4.0154,4.0129,4.0113,4.0113,4.0113,4.0113,4.0113,4.0113,4.0113,4.0113,4.0113,4.0113,4.0113,4.0113,4.0113,4.0113,4.0113,4.0113,4.0113,4.0113,4.0028,3.9441,3.8786,3.8175,3.7528,3.6753,3.6149,3.5522,3.5489,3.5489,3.5489,3.5489,3.5429,3.534,3.519,3.5144,3.516,3.513,3.51,3.5011,3.5011,3.504,3.51,3.516,3.522,3.5264,3.528,3.528,3.507,3.4787,3.4414,3.4458,3.4757,3.5008,3.4882,3.4974,3.5155,3.4889,3.4822,3.4822,3.5179,3.5034,3.4872,3.4789,3.5001,3.5083,3.4984,3.4922,3.5149,3.5264,3.5083,3.5441,3.5489,3.5489,3.5489,3.5489,3.5489,3.5489,3.5489,3.5489,3.5489,3.557,3.5651,3.6006,3.6321,3.6523,3.6615,3.701,3.8119,3.9028,4.0049,4.0121,4.0113,4.0113,4.0113,4.0113,4.0113,4.0113,4.0113,4.0113,4.0113,4.0113,4.0318,4.0573,4.1012,4.1552,4.2136,4.2711,4.316,4.3142,4.2857,4.2426,4.1948,4.1927,4.1397,4.0684,4.054,4.038,4.0163,4.0113,4.0113,4.0113,4.0113,4.0113,4.0113,4.0113,4.0113,4.0113,4.0113,4.0113,4.0113,4.0113,4.0113,4.0113,4.0113,4.0113,3.9863,3.9302,3.8525,3.7775,3.7009,3.6196,3.557,3.5489,3.5489,3.5489,3.5489,3.5489,3.5489,3.5489,3.5489,3.5489,3.5489,3.5489,3.5489,3.5489,3.5489,3.5489,3.5489,3.5489,3.5489,3.5489,3.5489,3.5459,3.522,3.5086,3.5116,3.537,3.5459,3.5489,3.5489,3.5441,3.5489,3.5489,3.5489,3.5457,3.5473,3.5489,3.5489,3.5489,3.5489,3.5489,3.5489,3.5489,3.5489,3.5489,3.5489,3.5489,3.5519,3.5609,3.5699,3.5729,3.5669,3.5489,3.5522,3.5554,3.575,3.6006,3.6538,3.7205,3.7413,3.7575,3.8023,3.8737,3.9402,4.0189,4.0202,4.018,4.0113,4.0113,4.0202,4.018,4.0113,4.0113,4.0113,4.0091,4.0091,4.0597,4.1145,4.1681,4.22,4.2655,4.3146,4.3506,4.3506,4.3506,4.3196,4.2739,4.2684,4.2072,4.1172,4.1115,4.0803,4.0368,4.0167,4.0113,4.0113,4.0113,4.0113,4.0113,4.0113,4.0113,4.0113,4.0113,4.0113,4.0113,4.0113,4.0113,4.0113,4.0113,4.0113,3.9927,3.9506,3.8799,3.7819,3.7307,3.6415,3.5718,3.5489,3.5489,3.5489,3.5489,3.5489,3.5489,3.5489,3.5489,3.5489,3.5489,3.5489,3.5489,3.5489,3.5489,3.5489,3.5489,3.5489,3.5489,3.5489,3.5489,3.5489,3.54,3.54,3.54,3.5489,3.5489,3.5489,3.5489,3.5489,3.5489,3.5489,3.5489,3.5489,3.5489,3.5489,3.5489,3.5489,3.5489,3.5489,3.5489,3.5489,3.5519,3.5579,3.5609,3.5579,3.5699,3.5938,3.5998,3.6058,3.5908,3.5579,3.5522,3.5679,3.6112,3.6646,3.7208,3.7961,3.8116,3.8385,3.898,3.9481,4.0062,4.0553,4.0599,4.0654,4.0823,4.0641,4.0574,4.0438,4.0316,4.0113,4.0113,4.0091,4.0133,4.0647,4.1244,4.2255,4.2869,4.3241,4.3467,4.3506,4.3506,4.3506,4.3242,4.2722,4.2684,4.2378,4.1874,4.1828,4.1536,4.1081,4.0451,4.039,4.0243,4.0281,4.0175,4.0146,4.0113,4.0113,4.0113,4.0113,4.0113,4.0113,4.0113,4.0113,4.0113,4.0113,4.0113,4.01,3.9965,3.9022,3.7933,3.7645,3.6722,3.5957,3.5489,3.5489,3.5489,3.5489,3.5489,3.5489,3.5489,3.5489,3.5489,3.5489,3.5489,3.5489,3.5489,3.5489,3.5489,3.5489,3.5489,3.5489,3.5489,3.5489,3.5489,3.5489,3.5489,3.5489,3.5489,3.5489,3.5489,3.5489,3.5489,3.5489,3.5489,3.5489,3.5489,3.5489,3.5579,3.5549,3.5519,3.5669,3.5848,3.5938,3.5908,3.5878,3.5759,3.5759,3.5699,3.5938,3.6327,3.6537,3.6626,3.6477,3.6178,3.6532,3.6675,3.7312,3.7852,3.8188,3.865,3.8767,3.9133,3.9843,4.0294,4.049,4.1401,4.1985,4.1946,4.1927,4.1623,4.1136,4.1048,4.0946,4.0506,4.0113,4.0193,4.0316,4.0655,4.1376,4.2578,4.3146,4.3359,4.3524,4.3506,4.3543,4.4011,4.3832,4.3233,4.3734,4.3609,4.3258,4.3612,4.3487,4.282,4.2218,4.1973,4.1788,4.092,4.0653,4.0692,4.0282,4.0214,4.0113,4.0113,4.0113,4.0113,4.018,4.0113,4.0113,4.0113,4.0113,4.0113,4.0168,3.9506,3.8695,3.8223,3.6875,3.6005,3.5522,3.5489,3.5489,3.5489,3.5489,3.5489,3.5489,3.5489,3.5489,3.5489,3.5489,3.5489,3.5489,3.5489,3.5489,3.5489,3.5489,3.5489,3.5489,3.5489,3.5489,3.5489,3.5489,3.5489,3.5489,3.5489,3.5489,3.5489,3.5489,3.5489,3.5519,3.5489,3.5489,3.5579,3.5759,3.6058,3.6148,3.6267,3.6447,3.649,3.6417,3.6357,3.6267,3.6297,3.6387,3.6686,3.7045,3.7165,3.7238,3.7028,3.687,3.7298,3.7852,3.8683,3.9131,3.9516,3.9792,3.9965,4.0233,4.0897,4.094,4.0883,4.2038,4.3226,4.3037,4.28,4.2266,4.186,4.1724,4.167,4.1472,4.1099,4.0553,4.0646,4.1198,4.2081,4.3159,4.3442,4.3649,4.3885,4.3653,4.3901,4.448,4.4378,4.4011,4.4709,4.4848,4.4658,4.5055,4.5003,4.4396,4.3545,4.3185,4.2888,4.2004,4.1389,4.1383,4.1115,4.0878,4.0844,4.0878,4.0743,4.0743,4.0777,4.0823,4.0519,4.0438,4.0472,4.0506,4.0426,4.0174,3.9646,3.8975,3.7891,3.618,3.5603,3.5506,3.5489,3.5489,3.5489,3.5489,3.5489,3.5489,3.5489,3.5489,3.5489,3.5489,3.5489,3.5489,3.5489,3.5489,3.5489,3.5489,3.5489,3.5489,3.5489,3.5489,3.5489,3.5519,3.5489,3.5489,3.5489,3.5489,3.5489,3.5519,3.5669,3.5878,3.5878,3.5998,3.6221,3.6653,3.6666,3.6946,3.722,3.7015,3.6909,3.6969,3.6939,3.7028,3.7148,3.7464,3.7768,3.8112,3.8305,3.8547,3.8224,3.8006,3.9094,4.0767,4.1027,4.0918,4.1162,4.1352,4.166,4.1982,4.1809,4.1822,4.2962,4.3871,4.3783,4.3505,4.297,4.2625,4.2557,4.2495,4.246,4.2145,4.1691,4.1672,4.1904,4.311,4.45,4.4509,4.4738,4.4755,4.3938,4.4663,4.4737,4.4737,4.4847,4.5553,4.5856,4.5792,4.5947,4.5758,4.5215,4.4137,4.3579,4.3419,4.2784,4.2368,4.2204,4.213,4.1982,4.1927,4.1826,4.2063,4.2063,4.1927,4.1589,4.1271,4.1204,4.117,4.117,4.117,4.1077,4.0995,4.0489,3.941,3.6801,3.591,3.5584,3.5552,3.5707,3.5603,3.5609,3.5579,3.5489,3.5489,3.5489,3.5489,3.5489,3.5489,3.5489,3.5489,3.5489,3.5489,3.5489,3.5489,3.5489,3.5489,3.5489,3.5519,3.5549,3.5549,3.5669,3.5669,3.5729,3.5729,3.5759,3.6058,3.6464,3.6477,3.6789,3.699,3.7122,3.7182,3.7623,3.7897,3.7721,3.7656,3.7776,3.7823,3.7943,3.8335,3.8409,3.8515,3.9027,3.9497,3.9984,3.9807,3.9132,4.0101,4.2144,4.2741,4.2462,4.248,4.2706,4.276,4.2916,4.2584,4.2847,4.395,4.4426,4.425,4.4115,4.3735,4.347,4.3369,4.3416,4.3471,4.3186,4.2838,4.3348,4.4002,4.4933,4.5902,4.5865,4.569,4.5607,4.3983,4.4737,4.5287,4.5801,4.6278,4.6571,4.6718,4.6792,4.7223,4.7367,4.7056,4.6199,4.5628,4.5094,4.3997,4.3278,4.2996,4.2388,4.2286,4.2354,4.2422,4.2286,4.2354,4.2455,4.2219,4.2016,4.1914,4.1961,4.1961,4.1948,4.1916,4.1855,4.1598,4.0391,3.9059,3.8167,3.7748,3.7445,3.6871,3.6206,3.6127,3.5838,3.563,3.5677,3.566,3.563,3.563,3.5647,3.5489,3.5489,3.5489,3.5489,3.5519,3.5519,3.5549,3.5549,3.5549,3.5729,3.6118,3.6417,3.6537,3.6357,3.6194,3.6327,3.6716,3.6909,3.7075,3.7135,3.7387,3.7592,3.7849,3.7938,3.8325,3.8816,3.8823,3.8823,3.8853,3.8871,3.9007,3.9642,3.9923,4.0335,4.0812,4.1133,4.1547,4.2172,4.1768,4.1557,4.3043,4.3757,4.3839,4.3853,4.3958,4.3924,4.3862,4.3489,4.3408,4.4201,4.4547,4.4479,4.4378,4.4228,4.4278,4.4116,4.4318,4.4462,4.4505,4.4714,4.5561,4.6369,4.6787,4.67,4.6305,4.6222,4.621,4.4378,4.5177,4.5993,4.6792,4.7452,4.7526,4.7526,4.759,4.8076,4.8296,4.8063,4.7292,4.6636,4.5988,4.5004,4.4177,4.3755,4.3369,4.3112,4.3112,4.3112,4.3213,4.3179,4.301,4.3031,4.2794,4.2692,4.2692,4.2692,4.2692,4.2868,4.2982,4.2604,4.2304,4.1329,4.0353,3.9131,3.8826,3.8278,3.7732,3.7504,3.7204,3.7056,3.6786,3.6536,3.6307,3.6134,3.5866,3.5519,3.5535,3.5519,3.5519,3.5579,3.5729,3.5789,3.5848,3.6118,3.6387,3.6836,3.7045,3.7135,3.7225,3.7002,3.7015,3.7375,3.7477,3.7627,3.7746,3.7896,3.8255,3.8631,3.8751,3.896,3.9451,3.9553,3.9523,3.9879,3.9884,4.0257,4.0905,4.1423,4.1979,4.259,4.2879,4.3215,4.3874,4.4474,4.4241,4.3898,4.4351,4.4804,4.477,4.4668,4.4499,4.4398,4.4316,4.435,4.4533,4.4668,4.4804,4.4567,4.4445,4.4638,4.4899,4.5064,4.5392,4.6045,4.6594,4.7145,4.7534,4.7799,4.7472,4.6847,4.681,4.691,4.514,4.5957,4.6746,4.7516,4.8186,4.8186,4.826,4.826,4.8296,4.8296,4.8212,4.7118,4.6622,4.6234,4.5177,4.4667,4.4473,4.4412,4.433,4.4364,4.4161,4.4296,4.433,4.4296,4.389,4.3606,4.3457,4.347,4.3423,4.347,4.3822,4.4228,4.4049,4.388,4.3041,4.2005,4.0707,4.0434,3.9865,3.9326,3.8889,3.9156,3.8842,3.8466,3.8043,3.7699,3.7323,3.674,3.6077,3.5824,3.5729,3.5653,3.5802,3.6207,3.6404,3.6673,3.7045,3.7315,3.7464,3.7584,3.7913,3.8123,3.7853,3.7614,3.7704,3.8075,3.8285,3.8542,3.8721,3.9092,3.9421,3.9451,3.9511,3.9751,3.992,4.0236,4.0741,4.1106,4.1593,4.2105,4.2559,4.3182,4.4106,4.457,4.4654,4.5296,4.5753,4.5513,4.5215,4.4942,4.5244,4.521,4.5074,4.4838,4.4871,4.5176,4.5244,4.5481,4.521,4.521,4.4939,4.506,4.5603,4.5923,4.584,4.6307,4.7399,4.8019,4.8437,4.8766,4.9089,4.8381,4.7755,4.7774,4.7923,4.5177,4.5957,4.6755,4.7553,4.8223,4.8296,4.8296,4.8296,4.8296,4.8296,4.8267,4.7919,4.7154,4.6365,4.6026,4.5346,4.4852,4.4567,4.4567,4.4567,4.4567,4.4567,4.4567,4.4567,4.4398,4.4296,4.4181,4.4147,4.4195,4.4228,4.4228,4.4533,4.4567,4.4567,4.4257,4.3685,4.2899,4.2168,4.1442,4.0856,4.0366,4.0391,4.0126,3.9796,3.9529,3.9138,3.8512,3.7974,3.7398,3.6897,3.684,3.6866,3.6879,3.7028,3.7135,3.7225,3.7674,3.8123,3.8182,3.8571,3.8853,3.899,3.8853,3.8883,3.8883,3.8853,3.9002,3.92,3.9469,3.975,4.0038,4.0127,4.0376,4.0679,4.0982,4.156,4.2108,4.2688,4.3184,4.3893,4.4334,4.4843,4.5733,4.583,4.5994,4.6638,4.6897,4.6728,4.639,4.6056,4.5785,4.5751,4.5785,4.5669,4.609,4.6428,4.6394,4.6327,4.6022,4.5925,4.6204,4.643,4.6838,4.7209,4.7502,4.8183,4.9071,4.9465,4.9544,5.0168,5.0445,4.9517,4.8773,4.8793,4.9049,4.5654,4.6425,4.7232,4.7856,4.826,4.8296,4.8296,4.8296,4.8296,4.8296,4.8277,4.8005,4.7385,4.646,4.6063,4.5468,4.4623,4.4567,4.4567,4.4567,4.4567,4.4567,4.4567,4.4567,4.4567,4.4567,4.4567,4.4499,4.4567,4.4567,4.4567,4.4567,4.4567,4.4567,4.4491,4.4353,4.4231,4.3624,4.3026,4.2382,4.1936,4.1737,4.1681,4.1231,4.1071,4.0562,3.999,3.955,3.8463,3.7866,3.7731,3.7387,3.7447,3.7584,3.8015,3.8182,3.8494,3.8763,3.8853,3.9092,3.9331,3.9481,3.9697,3.975,3.9601,3.9481,3.9601,3.9768,4.0068,4.0367,4.0606,4.0872,4.1361,4.1851,4.244,4.3032,4.369,4.4298,4.503,4.5804,4.6352,4.6765,4.7083,4.7068,4.7256,4.7752,4.8019,4.7966,4.7458,4.6868,4.6583,4.638,4.6515,4.6616,4.7056,4.7259,4.7008,4.6771,4.65,4.6583,4.7218,4.7394,4.7333,4.8297,4.9481,4.9956,5.0297,5.0411,5.0582,5.1122,5.1306,5.0498,4.9848,4.9774,5.0194,4.6324,4.7003,4.792,4.826,4.8296,4.8296,4.8296,4.8296,4.8296,4.8296,4.8219,4.7756,4.7208,4.6647,4.6112,4.5455,4.4893,4.4692,4.4567,4.4567,4.4567,4.4567,4.4567,4.4567,4.4567,4.4567,4.4567,4.4567,4.4567,4.4567,4.4567,4.4567,4.4567,4.4567,4.4567,4.4567,4.4468,4.4311,4.4111,4.381,4.3631,4.3862,4.4222,4.3345,4.283,4.2327,4.1764,4.0619,3.8978,3.8651,3.8299,3.7914,3.7913,3.8182,3.8751,3.9002,3.9182,3.9361,3.9421,3.9601,3.966,3.9906,4.0201,4.0631,4.0728,3.9811,3.9679,4.0763,4.1259,4.1864,4.2236,4.2174,4.2456,4.333,4.4138,4.4729,4.537,4.5962,4.6587,4.7231,4.7454,4.7868,4.7954,4.7943,4.801,4.8631,4.8781,4.8763,4.8458,4.7733,4.7462,4.7158,4.7394,4.7564,4.7564,4.765,4.7316,4.7064,4.7115,4.769,4.8615,4.8315,4.7711,4.9371,5.1081,5.1066,5.1259,5.1426,5.1499,5.1526,5.1563,5.1242,5.0996,5.0973,5.1268,4.5993,4.6324,4.7709,4.8296,4.8296,4.8296,4.8296,4.8296,4.8296,4.8296,4.8267,4.8094,4.7715,4.7044,4.6472,4.5828,4.5267,4.4852,4.4623,4.4567,4.4567,4.4567,4.4567,4.4567,4.4567,4.4567,4.4567,4.4567,4.4567,4.4567,4.4567,4.4567,4.4567,4.4567,4.4567,4.4567,4.4567,4.4567,4.4674,4.4632,4.4461,4.4375,4.4378,4.4202,4.3933,4.3537,4.3072,4.2558,4.1247,4.0462,4.0127,3.9608,3.9014,3.9128,3.926,3.9391,3.9571,3.9865,4.0184,4.0389,4.0546,4.1097,4.162,4.2027,4.1697,4.0251,4.0233,4.1687,4.2757,4.3437,4.3757,4.3616,4.3725,4.4802,4.5775,4.6385,4.6979,4.7544,4.8047,4.8287,4.848,4.8612,4.8714,4.8815,4.8951,4.8984,4.8951,4.8951,4.8917,4.8511,4.8409,4.824,4.8443,4.8545,4.8376,4.8199,4.7947,4.8352,4.8641,4.9278,4.998,5.0079,5.0122,5.1401,5.2605,5.2323,5.2223,5.259,5.2627,5.2333,5.2223,5.2076,5.2397,5.2488,5.2705,4.6104,4.6571,4.7783,4.8296,4.8296,4.8296,4.8296,4.8296,4.8296,4.8296,4.8296,4.8267,4.7985,4.7459,4.6988,4.6293,4.5635,4.5175,4.4852,4.4679,4.4637,4.4567,4.4567,4.4567,4.4567,4.4567,4.4567,4.4567,4.4635,4.4567,4.4567,4.4635,4.4635,4.4682,4.4635,4.4601,4.4635,4.4601,4.4905,4.5074,4.5041,4.4871,4.4635,4.4567,4.4516,4.426,4.3977,4.3591,4.2769,4.1866,4.1415,4.0878,4.0414,4.0337,4.0337,4.0337,4.0452,4.0629,4.1182,4.1553,4.1802,4.2574,4.3323,4.3833,4.4064,4.2987,4.312,4.4425,4.4918,4.5571,4.5221,4.5011,4.5469,4.6338,4.681,4.7276,4.7813,4.8355,4.8606,4.8686,4.8815,4.8815,4.8883,4.8883,4.9018,4.9018,4.9018,4.9018,4.9018,4.9065,4.9049,4.9077,4.9138,4.9046,4.8781,4.8753,4.8723,4.9291,4.9965,5.0425,5.092,5.1874,5.271,5.2955,5.3072,5.3057,5.3104,5.3214,5.3214,5.2847,5.292,5.3031,5.3443,5.3834,5.3967,4.6425,4.7305,4.8003,4.8296,4.8296,4.8296,4.8296,4.8296,4.8296,4.8296,4.8296,4.8296,4.7965,4.7684,4.7353,4.6589,4.6014,4.5775,4.532,4.4906,4.4817,4.472,4.4623,4.4567,4.4567,4.4668,4.477,4.4804,4.4871,4.5041,4.5176,4.4905,4.4886,4.4919,4.4886,4.4905,4.5074,4.5277,4.5548,4.5805,4.5568,4.5277,4.5142,4.4973,4.4871,4.4871,4.463,4.4307,4.3815,4.3212,4.2694,4.2045,4.1645,4.1472,4.1496,4.1484,4.1491,4.2071,4.2811,4.3127,4.3612,4.4302,4.5058,4.552,4.5734,4.5969,4.615,4.6397,4.6924,4.692,4.658,4.6459,4.7004,4.7523,4.7852,4.8081,4.8578,4.9021,4.9037,4.9052,4.9052,4.9052,4.9052,4.9052,4.9052,4.9052,4.9068,4.9018,4.9049,4.9077,4.9123,4.9271,4.9402,4.9301,4.9077,4.9297,4.9399,5.0088,5.071,5.125,5.1811,5.2499,5.2948,5.3082,5.3167,5.3251,5.3214,5.3214,5.3214,5.3287,5.3214,5.3351,5.4249,5.4633,5.4995,4.6755,4.8076,4.8269,4.8296,4.8296,4.8296,4.8296,4.8296,4.8296,4.8296,4.8296,4.8296,4.8173,4.8085,4.7601,4.7044,4.6808,4.646,4.5913,4.5425,4.5346,4.5021,4.4865,4.4995,4.4671,4.4871,4.5229,4.5466,4.5548,4.5988,4.6327,4.621,4.6244,4.6293,4.6278,4.6244,4.6143,4.621,4.6327,4.6583,4.6616,4.6413,4.6413,4.6394,4.6394,4.6394,4.6321,4.6229,4.5714,4.5037,4.4236,4.345,4.3003,4.2798,4.2798,4.2859,4.2828,4.3542,4.4229,4.4652,4.5227,4.585,4.6512,4.6996,4.7309,4.7733,4.7847,4.7847,4.8079,4.7917,4.7638,4.7423,4.7721,4.8341,4.8774,4.8841,4.9128,4.924,4.9273,4.9255,4.9255,4.9221,4.9221,4.9255,4.9323,4.9369,4.9477,4.9493,4.9668,4.9498,4.9438,4.9771,5.008,4.9402,4.9168,4.9835,5.0153,5.0854,5.1686,5.258,5.3045,5.2923,5.3251,5.3654,5.3508,5.3434,5.3361,5.3544,5.3434,5.3508,5.3287,5.3497,5.459,5.5628,5.6207]}]]